Date StartTime U_cm/s V_cm/s W_cm/s Ustd_cm/s Vstd_cm/s Wstd_cm/s Uvar_(cm/s)^2 Vvar_(cm/s)^2 Wvar_(cm/s)^2 KE_(m/s)^2 TurbulentKE_(m/s)^2 HorizWindSpeed_cm/s FrictionSpeec_cm/s DragCoef SpeedOfSound_m/s SonicTemperature_C Pressure_mb 
09/20/2013  00:00:00      -45.411      -40.974        5.645       23.636       25.037       15.978      558.679      626.848      255.308        0.261        0.072       61.164       11.185        0.033      340.383       14.366      858.471
09/20/2013  00:01:00      -36.860      -32.802       -3.534       33.058       16.524       12.006     1092.820      273.055      144.148        0.198        0.076       49.342       14.048        0.081      340.390       14.379      858.469
09/20/2013  00:02:00      -74.761      -46.515      -10.188       19.355       20.231       14.791      374.633      409.294      218.765        0.443        0.050       88.050       12.936        0.022      340.385       14.367      858.455
09/20/2013  00:03:00      -97.332      -53.496      -12.148       15.567       19.301       13.872      242.319      372.538      192.443        0.664        0.040      111.065       10.391        0.009      340.402       14.399      858.439
09/20/2013  00:04:00      -92.763      -70.984       -5.213       23.688       18.923       15.920      561.109      358.068      253.442        0.742        0.059      116.806        8.549        0.005      340.401       14.396      858.440
09/20/2013  00:05:00      -81.023      -57.374        0.959       27.164       22.521       22.044      737.873      507.197      485.931        0.579        0.087       99.279       17.456        0.031      340.313       14.247      858.438
09/20/2013  00:06:00      -50.225      -39.902        5.540       30.194       17.061       17.538      911.650      291.075      307.590        0.283        0.076       64.146       11.929        0.035      340.347       14.305      858.424
09/20/2013  00:07:00      -57.547      -39.766        2.361       26.174       17.508       15.285      685.101      306.517      233.616        0.306        0.061       69.950       16.713        0.057      340.354       14.316      858.409
09/20/2013  00:08:00      -94.681      -51.612      -10.049       12.777       10.160        7.027      163.241      103.233       49.384        0.602        0.016      107.834        3.589        0.001      340.388       14.375      858.404
09/20/2013  00:09:00     -102.387      -55.826      -10.554       22.693       15.826       10.902      514.975      250.460      118.848        0.730        0.044      116.618        5.583        0.002      340.395       14.387      858.395
09/20/2013  00:10:00     -101.046      -23.234       -8.501       12.738       13.211       12.834      162.268      174.528      164.712        0.566        0.025      103.683        6.962        0.005      340.348       14.306      858.381
09/20/2013  00:11:00     -100.970      -33.778       -8.150       12.019       17.563        8.192      144.458      308.461       67.109        0.596        0.026      106.470        5.988        0.003      340.328       14.273      858.359
09/20/2013  00:12:00     -100.976      -43.117       -4.909       13.351       12.362        9.704      178.259      152.808       94.176        0.625        0.021      109.797        7.486        0.005      340.386       14.371      858.348
09/20/2013  00:13:00     -100.077      -59.315       -4.281       20.301       15.246        9.780      412.112      232.441       95.654        0.715        0.037      116.335       10.715        0.008      340.420       14.429      858.351
09/20/2013  00:14:00      -84.367      -51.370        0.445       32.739       26.347       19.666     1071.817      694.171      386.763        0.595        0.108       98.775       21.032        0.045      340.328       14.272      858.351
09/20/2013  00:15:00      -72.748      -59.743       -0.922       42.583       23.801       17.726     1813.337      566.500      314.226        0.578        0.135       94.136        7.294        0.006      340.361       14.327      858.347
09/20/2013  00:16:00      -64.696      -57.203        2.733       42.663       32.227       20.549     1820.158     1038.597      422.270        0.537        0.164       86.359       19.316        0.050      340.295       14.216      858.358
09/20/2013  00:17:00     -112.423      -77.578       -9.041       31.208       36.457       22.242      973.933     1329.111      494.699        1.077        0.140      136.592       19.388        0.020      340.368       14.341      858.348
09/20/2013  00:18:00     -117.595      -59.610        0.968       42.124       25.804       24.520     1774.445      665.871      601.229        1.021        0.152      131.841       26.380        0.040      340.281       14.193      858.335
09/20/2013  00:19:00     -120.724      -83.732       -0.307       39.334       33.922       23.728     1547.165     1150.735      563.005        1.242        0.163      146.920       22.218        0.023      340.218       14.086      858.319
09/20/2013  00:20:00      -94.124      -58.929      -11.921       29.775       30.809       21.516      886.548      949.165      462.929        0.739        0.115      111.049       18.001        0.026      340.226       14.098      858.315
09/20/2013  00:21:00     -104.168      -66.560       -9.579       38.711       23.792       14.845     1498.511      566.044      220.366        0.883        0.114      123.617       17.397        0.020      340.136       13.948      858.296
09/20/2013  00:22:00     -105.346      -49.055       -3.531       29.218       27.394       16.411      853.714      750.458      269.326        0.769        0.094      116.207       16.108        0.019      340.187       14.033      858.290
09/20/2013  00:23:00      -70.813      -45.676       -0.054       43.795       30.729       19.548     1918.011      944.296      382.121        0.517        0.162       84.267       21.816        0.067      340.185       14.031      858.279
09/20/2013  00:24:00      -76.246      -56.944        2.933       39.417       35.903       27.626     1553.689     1289.003      763.197        0.633        0.180       95.164       22.771        0.057      340.242       14.127      858.287
09/20/2013  00:25:00     -112.869      -65.435       -3.110       29.576       23.698       19.604      874.718      561.574      384.311        0.943        0.091      130.465       16.324        0.016      340.287       14.203      858.296
09/20/2013  00:26:00      -65.172      -49.743       -0.890       39.695       21.584       18.265     1575.654      465.851      333.601        0.455        0.119       81.986       16.844        0.042      340.295       14.215      858.292
09/20/2013  00:27:00      -40.582      -63.823       10.612       57.353       48.008       26.334     3289.383     2304.729      693.482        0.606        0.314       75.633       34.815        0.212      340.321       14.261      858.291
09/20/2013  00:28:00      -96.096      -74.494        3.812       49.147       43.217       24.575     2415.431     1867.673      603.921        0.984        0.244      121.589       26.889        0.049      340.223       14.095      858.297
09/20/2013  00:29:00      -66.704      -61.725       14.600       61.320       32.130       28.544     3760.145     1032.309      814.741        0.704        0.280       90.881       29.202        0.103      340.190       14.040      858.294
09/20/2013  00:30:00      -69.004      -61.664        8.100       43.171       42.817       26.918     1863.703     1833.315      724.555        0.652        0.221       92.542       18.924        0.042      340.263       14.163      858.292
09/20/2013  00:31:00      -82.857      -77.058        3.937       31.949       29.089       22.608     1020.728      846.153      511.114        0.760        0.119      113.152       17.761        0.025      340.282       14.195      858.288
09/20/2013  00:32:00      -85.486      -48.950       -3.612       43.617       25.973       19.296     1902.433      674.621      372.338        0.633        0.147       98.509       23.423        0.057      340.252       14.143      858.284
09/20/2013  00:33:00      -95.972      -68.826       -8.343       24.334       26.167       16.372      592.164      684.712      268.038        0.778        0.077      118.100       11.795        0.010      340.281       14.191      858.284
09/20/2013  00:34:00      -96.922      -67.119       -5.750       25.029       22.846       15.037      626.460      521.962      226.104        0.765        0.069      117.893       14.879        0.016      340.355       14.318      858.276
09/20/2013  00:35:00      -65.580      -43.507       -0.923       25.836       21.492       19.098      667.503      461.889      364.724        0.384        0.075       78.699       16.545        0.044      340.334       14.283      858.265
09/20/2013  00:36:00      -69.896      -38.583        2.141       30.605       17.122       14.316      936.658      293.149      204.955        0.391        0.072       79.838       10.712        0.018      340.343       14.299      858.261
09/20/2013  00:37:00      -47.177      -32.254        2.020       33.833       22.460       14.972     1144.675      504.470      224.174        0.257        0.094       57.149       15.319        0.072      340.240       14.124      858.271
09/20/2013  00:38:00     -114.789      -39.874       -2.208       16.848       12.659        7.994      283.850      160.245       63.898        0.764        0.025      121.517        5.921        0.002      340.300       14.226      858.257
09/20/2013  00:39:00      -74.518      -48.719        2.559       42.753       21.969       18.623     1827.813      482.618      346.818        0.529        0.133       89.031       12.134        0.019      340.236       14.116      858.252
09/20/2013  00:40:00      -71.415      -50.653        0.312       36.898       27.644       15.100     1361.430      764.168      228.019        0.501        0.118       87.555       16.061        0.034      340.213       14.078      858.247
09/20/2013  00:41:00      -89.960      -63.081       -0.615       30.492       20.498       18.026      929.783      420.155      324.948        0.687        0.084      109.873       11.565        0.011      340.147       13.966      858.249
09/20/2013  00:42:00      -58.988      -45.701        3.030       26.708       17.501       15.344      713.307      306.289      235.423        0.342        0.063       74.620       13.956        0.035      340.133       13.943      858.247
09/20/2013  00:43:00      -31.840      -28.879        2.715       24.799       15.806       12.545      614.985      249.816      157.370        0.144        0.051       42.986       12.974        0.091      340.126       13.931      858.238
09/20/2013  00:44:00      -62.437      -33.182       -2.281       19.944       12.343        9.896      397.771      152.357       97.935        0.283        0.032       70.707        4.292        0.004      340.170       14.005      858.226
09/20/2013  00:45:00        5.356      -28.159        6.751       12.753       12.049       11.124      162.631      145.186      123.750        0.065        0.022       28.664        7.200        0.063      340.231       14.107      858.232
09/20/2013  00:46:00      -40.858      -40.465       -0.099       32.026       17.960       13.622     1025.633      322.568      185.546        0.242        0.077       57.505       13.875        0.058      340.179       14.021      858.243
09/20/2013  00:47:00      -33.374      -52.991       -0.635       17.890       27.554       13.507      320.067      759.199      182.434        0.259        0.063       62.625       13.648        0.047      340.175       14.012      858.241
09/20/2013  00:48:00      -55.603      -45.626       -3.211       26.311       18.323       17.441      692.291      335.731      304.178        0.326        0.067       71.926       17.203        0.057      340.165       13.997      858.233
09/20/2013  00:49:00      -64.628      -32.416       -3.216       16.576       18.840       10.561      274.754      354.948      111.542        0.299        0.037       72.302        8.271        0.013      340.174       14.012      858.229
09/20/2013  00:50:00      -40.786      -25.879       -3.088       18.798       16.727        7.783      353.353      279.803       60.579        0.152        0.035       48.304        5.654        0.014      340.167       14.001      858.232
09/20/2013  00:51:00      -22.028      -28.336       -1.629       15.354       12.443        8.142      235.755      154.819       66.297        0.087        0.023       35.891        5.686        0.025      340.257       14.152      858.216
09/20/2013  00:52:00      -40.480      -29.616       -0.244       25.396        9.273        9.603      644.944       85.992       92.213        0.167        0.041       50.157       11.489        0.052      340.236       14.117      858.198
09/20/2013  00:53:00      -76.924      -46.187       -6.619       21.682       13.820       10.215      470.091      190.998      104.346        0.443        0.038       89.725        9.647        0.012      340.166       13.998      858.198
09/20/2013  00:54:00      -72.932      -47.898       -9.171       33.523       18.742       14.419     1123.810      351.266      207.894        0.469        0.084       87.254        6.896        0.006      340.123       13.925      858.214
09/20/2013  00:55:00      -41.018      -31.347        3.154       26.323       21.090       19.111      692.899      444.799      365.238        0.209        0.075       51.625       14.615        0.080      340.043       13.791      858.218
09/20/2013  00:56:00      -50.172      -36.015       -0.472       30.934       24.515       19.338      956.926      600.999      373.959        0.287        0.097       61.760       18.200        0.087      340.035       13.777      858.216
09/20/2013  00:57:00      -78.091      -47.651       -9.885       16.909       18.073        9.640      285.927      326.624       92.933        0.459        0.035       91.481        3.966        0.002      340.124       13.928      858.212
09/20/2013  00:58:00     -100.163      -44.443      -12.003        8.507       17.369        7.792       72.375      301.694       60.718        0.629        0.022      109.580        4.987        0.002      340.315       14.251      858.215
09/20/2013  00:59:00     -100.074      -32.624      -10.856       11.966       11.261        7.333      143.197      126.804       53.773        0.576        0.016      105.257        3.656        0.001      340.140       13.955      858.214
09/20/2013  01:00:00      -50.743      -17.615       -4.581       36.630       10.377       12.074     1341.764      107.681      145.785        0.225        0.080       53.713       17.780        0.110      340.064       13.827      858.213
09/20/2013  01:01:00       -2.774      -22.200        5.849       12.258       17.052        8.765      150.254      290.782       76.826        0.053        0.026       22.373        5.005        0.050      340.152       13.976      858.212
09/20/2013  01:02:00      -47.142      -49.179       -5.636       17.735       22.926       13.082      314.514      525.615      171.133        0.284        0.051       68.125       11.833        0.030      340.217       14.086      858.220
09/20/2013  01:03:00      -50.264      -69.652        2.521       41.385       44.172       22.534     1712.731     1951.200      507.768        0.578        0.209       85.894       18.612        0.047      340.245       14.134      858.224
09/20/2013  01:04:00      -20.570      -26.965        8.998       38.359       30.419       21.168     1471.413      925.332      448.094        0.204        0.142       33.915       18.413        0.295      340.119       13.919      858.232
09/20/2013  01:05:00      -46.506      -31.981        0.247       51.961       34.669       23.251     2699.995     1201.923      540.602        0.381        0.222       56.441       22.961        0.165      340.047       13.797      858.231
09/20/2013  01:06:00      -75.275      -42.835       14.018       56.491       46.142       28.952     3191.289     2129.079      838.238        0.693        0.308       86.609       25.309        0.085      340.056       13.812      858.231
09/20/2013  01:07:00      -93.791      -74.802       -4.924       33.559       27.240       21.309     1126.192      742.020      454.086        0.837        0.116      119.967       18.424        0.024      340.058       13.816      858.229
09/20/2013  01:08:00      -29.025      -45.713       -1.281       40.649       38.700       17.421     1652.303     1497.656      303.501        0.319        0.173       54.149       20.281        0.140      340.062       13.823      858.229
09/20/2013  01:09:00      -15.791      -22.510       14.033       35.002       23.310       19.309     1225.152      543.344      372.832        0.155        0.107       27.497       16.554        0.362      339.951       13.637      858.239
09/20/2013  01:10:00     -101.666      -82.558       -7.599       33.804       38.994       23.364     1142.740     1520.541      545.885        1.021        0.160      130.965       20.409        0.024      339.960       13.651      858.239
09/20/2013  01:11:00      -83.180      -79.769        3.210       44.797       37.738       28.126     2006.809     1424.165      791.089        0.876        0.211      115.247       25.944        0.051      339.955       13.643      858.245
09/20/2013  01:12:00     -102.858      -80.670       -2.396       31.615       31.277       18.027      999.527      978.270      324.958        0.970        0.115      130.719       12.558        0.009      339.942       13.622      858.247
09/20/2013  01:13:00     -107.714      -43.543       -7.769       27.378       22.579       15.800      749.536      509.819      249.644        0.753        0.075      116.182       10.413        0.008      339.863       13.489      858.258
09/20/2013  01:14:00      -95.849      -22.140       -2.272       23.722       30.471       13.897      562.718      928.497      193.123        0.568        0.084       98.373        9.094        0.009      339.833       13.437      858.267
09/20/2013  01:15:00      -87.943        3.073       -0.142       31.614       16.716       13.599      999.443      279.438      184.933        0.460        0.073       87.997       15.509        0.031      339.741       13.282      858.264
09/20/2013  01:16:00      -72.728       -6.727       -3.200       23.763       21.879       15.387      564.657      478.672      236.762        0.331        0.064       73.038       14.404        0.039      339.830       13.431      858.260
09/20/2013  01:17:00     -121.311      -26.342      -11.327       15.388       23.026       11.549      236.794      530.208      133.386        0.822        0.045      124.138        7.716        0.004      339.733       13.269      858.252
09/20/2013  01:18:00     -113.212      -41.826       -7.488       21.442       21.382       12.236      459.758      457.170      149.716        0.784        0.053      120.691        6.848        0.003      339.580       13.011      858.245
09/20/2013  01:19:00     -105.742        6.709       -4.561       42.676       34.051       22.548     1821.204     1159.501      508.426        0.737        0.174      105.954       23.142        0.048      339.588       13.022      858.255
09/20/2013  01:20:00     -111.700       20.553       -8.686       39.301       28.196       17.974     1544.599      795.000      323.076        0.782        0.133      113.575       16.666        0.022      339.630       13.096      858.244
09/20/2013  01:21:00      -77.881        7.174       -8.169       32.908       29.589       16.537     1082.909      875.496      273.463        0.421        0.112       78.211       13.091        0.028      339.560       12.978      858.232
09/20/2013  01:22:00      -93.007       -3.772       -2.298       50.343       30.731       21.227     2534.465      944.404      450.591        0.630        0.196       93.084       21.726        0.054      339.604       13.052      858.229
09/20/2013  01:23:00     -107.132       -3.374       -9.214       42.251       30.605       25.259     1785.126      936.656      638.039        0.747        0.168      107.185       21.288        0.039      339.596       13.038      858.229
09/20/2013  01:24:00      -83.426      -37.498       -2.540       40.577       41.363       22.015     1646.471     1710.918      484.658        0.611        0.192       91.465       22.232        0.059      339.407       12.718      858.234
09/20/2013  01:25:00     -113.051      -42.022       -7.574       33.235       29.718       18.896     1104.565      883.149      357.046        0.847        0.117      120.609       17.787        0.022      339.360       12.641      858.239
09/20/2013  01:26:00     -112.292      -57.321       -5.482       28.138       27.258       19.155      791.760      742.982      366.912        0.891        0.095      126.076       15.397        0.015      339.395       12.698      858.237
09/20/2013  01:27:00      -71.527      -53.813       -0.311       40.218       22.238       18.097     1617.501      494.518      327.486        0.523        0.122       89.510       19.863        0.049      339.397       12.704      858.236
09/20/2013  01:28:00      -87.699      -32.009      -11.444       12.101       17.094       10.287      146.425      292.219      105.828        0.470        0.027       93.358        7.037        0.006      339.445       12.784      858.230
09/20/2013  01:29:00      -75.450      -15.201       -3.526       28.835       15.631        8.924      831.441      244.313       79.643        0.355        0.058       76.966        9.954        0.017      339.570       12.995      858.215
09/20/2013  01:30:00      -63.396      -38.871        0.777       32.771       22.823       12.817     1073.940      520.890      164.270        0.364        0.088       74.364       13.061        0.031      339.729       13.263      858.206
09/20/2013  01:31:00      -73.379      -56.423        1.516       34.992       23.501       17.518     1224.420      552.296      306.896        0.533        0.104       92.564       14.732        0.025      339.665       13.155      858.215
09/20/2013  01:32:00     -127.283      -40.745       -0.547       31.272       32.041       17.345      977.938     1026.633      300.866        1.008        0.115      133.646       16.792        0.016      339.658       13.142      858.220
09/20/2013  01:33:00     -118.095       -8.608       -7.267       24.409       26.528       15.398      595.777      703.709      237.084        0.780        0.077      118.408       12.125        0.010      339.605       13.053      858.229
09/20/2013  01:34:00      -72.432      -34.132        2.604       27.504       22.429       16.852      756.467      503.068      283.981        0.398        0.077       80.071       17.389        0.047      339.588       13.025      858.225
09/20/2013  01:35:00      -72.091      -46.604       -4.918       21.541       10.195       10.006      463.995      103.931      100.128        0.403        0.033       85.843       11.517        0.018      339.684       13.188      858.221
09/20/2013  01:36:00      -77.725      -41.389       -3.315       31.174       14.682       11.809      971.807      215.561      139.443        0.455        0.066       88.058       13.238        0.023      339.542       12.946      858.222
09/20/2013  01:37:00     -102.648      -51.283      -11.794       11.993       11.152        7.072      143.829      124.373       50.009        0.681        0.016      114.746        4.798        0.002      339.627       13.090      858.226
09/20/2013  01:38:00      -83.882      -32.922      -16.617       11.686        7.452        7.632      136.557       55.530       58.247        0.432        0.013       90.112        3.650        0.002      339.657       13.141      858.226
09/20/2013  01:39:00      -62.746      -25.966       -7.390       15.176        7.404        9.784      230.316       54.815       95.728        0.252        0.019       67.906        9.619        0.020      339.774       13.338      858.214
09/20/2013  01:40:00      -30.044      -25.384        3.689       36.755       15.069       17.688     1350.937      227.063      312.878        0.173        0.095       39.332       21.658        0.303      339.714       13.237      858.206
09/20/2013  01:41:00     -115.517      -11.610      -16.402       19.020        9.349        8.038      361.757       87.408       64.617        0.713        0.026      116.099        6.609        0.003      339.617       13.072      858.213
09/20/2013  01:42:00     -152.041      -24.074      -23.090       11.547       13.963        9.802      133.325      194.961       96.070        1.233        0.021      153.935        3.572        0.001      339.589       13.025      858.217
09/20/2013  01:43:00     -155.902      -26.762      -22.242       44.201       19.512       19.183     1953.772      380.727      367.989        1.411        0.135      158.182       21.094        0.018      339.440       12.772      858.211
09/20/2013  01:44:00     -110.956      -40.896       -0.078       39.587       31.313       22.944     1567.144      980.522      526.444        0.853        0.154      118.253       22.663        0.037      339.423       12.745      858.208
09/20/2013  01:45:00     -115.405      -60.313       -7.850       22.761       22.000       13.967      518.045      484.005      195.084        0.911        0.060      130.216       10.445        0.006      339.425       12.748      858.213
09/20/2013  01:46:00     -120.022      -47.035      -14.638       25.152       23.326       13.181      632.602      544.119      173.738        0.909        0.068      128.909       13.152        0.010      339.462       12.813      858.208
09/20/2013  01:47:00     -121.597      -47.210       -7.687       20.152       19.408       12.207      406.105      376.660      149.022        0.900        0.047      130.440        8.321        0.004      339.507       12.887      858.206
09/20/2013  01:48:00     -109.434      -52.145        1.974       42.687       23.508       21.031     1822.197      552.634      442.289        0.876        0.141      121.222       19.478        0.026      339.370       12.657      858.209
09/20/2013  01:49:00      -75.898      -55.572        0.572       39.608       30.148       15.301     1568.820      908.873      234.135        0.578        0.136       94.067       10.130        0.012      339.377       12.668      858.218
09/20/2013  01:50:00     -105.494      -42.791       -7.934       19.690       22.984       13.516      387.699      528.273      182.695        0.706        0.055      113.842       12.041        0.011      339.429       12.755      858.210
09/20/2013  01:51:00     -140.516      -31.746      -15.066       16.188       21.082       12.314      262.047      444.456      151.646        1.092        0.043      144.058        6.617        0.002      339.470       12.826      858.191
09/20/2013  01:52:00     -121.246      -14.038      -16.454       30.556       24.755       20.187      933.694      612.807      407.528        0.856        0.098      122.056       19.417        0.025      339.408       12.721      858.175
09/20/2013  01:53:00     -115.884       -1.963       -7.578       36.816       33.738       26.071     1355.400     1138.257      679.690        0.833        0.159      115.901       23.496        0.041      339.482       12.846      858.167
09/20/2013  01:54:00      -96.950       -5.924        0.371       46.351       37.989       25.408     2148.413     1443.150      645.546        0.683        0.212       97.131       21.983        0.051      339.593       13.033      858.161
09/20/2013  01:55:00     -100.243       22.155       -9.671       45.048       46.134       23.030     2029.311     2128.371      530.386        0.766        0.234      102.662       17.583        0.029      339.558       12.973      858.169
09/20/2013  01:56:00     -160.703       14.799      -22.063       43.576       34.712       24.769     1898.828     1204.909      613.513        1.512        0.186      161.383       20.290        0.016      339.656       13.138      858.186
09/20/2013  01:57:00      -99.767       -5.529      -17.882       34.993       32.485       18.321     1224.491     1055.300      335.673        0.646        0.131       99.920       12.906        0.017      339.569       12.992      858.179
09/20/2013  01:58:00      -98.488      -41.677      -13.346       44.627       32.697       22.628     1991.595     1069.123      512.008        0.759        0.179      106.943       14.528        0.018      339.477       12.836      858.177
09/20/2013  01:59:00     -176.294      -71.716      -12.963       20.417       34.695       14.841      416.851     1203.728      220.257        1.912        0.092      190.323        5.010        0.001      339.284       12.511      858.189
09/20/2013  02:00:00     -157.899      -16.310      -10.638       38.283       51.383       24.811     1465.615     2640.200      615.592        1.502        0.236      158.739       20.478        0.017      339.326       12.582      858.193
09/20/2013  02:01:00      -79.281      -19.447        3.443       43.867       42.827       26.511     1924.298     1834.188      702.830        0.557        0.223       81.631       22.853        0.078      339.290       12.522      858.184
09/20/2013  02:02:00     -137.541      -90.779       -6.111       39.957       41.985       26.140     1596.556     1762.729      683.299        1.562        0.202      164.798       18.722        0.013      339.353       12.627      858.182
09/20/2013  02:03:00     -115.082      -66.771       -6.701       59.738       36.855       24.791     3568.580     1358.320      614.585        1.164        0.277      133.050       28.508        0.046      339.498       12.873      858.188
09/20/2013  02:04:00     -143.810      -82.899       -3.939       47.611       38.061       28.163     2266.803     1448.667      793.164        1.604        0.225      165.993       29.550        0.032      339.570       12.994      858.173
09/20/2013  02:05:00     -137.311      -66.248        3.466       44.626       28.438       22.681     1991.438      808.739      514.414        1.328        0.166      152.457       20.880        0.019      339.722       13.251      858.151
09/20/2013  02:06:00     -145.726      -57.977       -1.081       44.725       27.268       23.141     2000.338      743.533      535.503        1.394        0.164      156.836       26.375        0.028      339.664       13.152      858.161
09/20/2013  02:07:00     -116.753      -68.452        1.058       45.644       33.372       22.010     2083.376     1113.723      484.436        1.100        0.184      135.340       19.989        0.022      339.663       13.150      858.162
09/20/2013  02:08:00     -104.595      -46.855       -6.383       26.752       27.513       17.536      715.685      756.986      307.523        0.748        0.089      114.610        9.123        0.006      339.647       13.124      858.151
09/20/2013  02:09:00      -91.052      -43.381       -0.863       41.304       25.605       18.791     1706.019      655.635      353.111        0.644        0.136      100.858       21.442        0.045      339.625       13.087      858.140
09/20/2013  02:10:00     -139.804      -42.717       -7.825       18.402       19.609       15.134      338.650      384.508      229.024        1.119        0.048      146.185        5.190        0.001      339.640       13.112      858.145
09/20/2013  02:11:00     -138.981      -23.749       -7.802       48.330       26.545       18.564     2335.795      704.639      344.621        1.166        0.169      140.996       20.961        0.022      339.560       12.976      858.146
09/20/2013  02:12:00      -95.544      -15.721       -0.349       40.696       29.751       20.941     1656.132      885.094      438.511        0.618        0.149       96.829       18.071        0.035      339.442       12.778      858.128
09/20/2013  02:13:00     -121.738      -19.219       -6.962       41.003       24.033       16.704     1681.247      577.581      279.018        0.889        0.127      123.246       16.134        0.017      339.612       13.065      858.117
09/20/2013  02:14:00     -115.057      -51.746       -9.999       28.876       26.685       16.348      833.802      712.072      267.265        0.891        0.091      126.157       16.503        0.017      339.578       13.008      858.124
09/20/2013  02:15:00      -67.416      -51.868        2.207       32.336       22.542       21.356     1045.629      508.154      456.091        0.462        0.100       85.060       18.301        0.046      339.479       12.841      858.111
09/20/2013  02:16:00     -102.446      -61.237       -4.840       19.597       20.649       16.854      384.032      426.383      284.057        0.768        0.055      119.353        8.911        0.006      339.607       13.056      858.103
09/20/2013  02:17:00      -65.250      -47.502        0.178       47.208       32.412       14.451     2228.590     1050.531      208.830        0.500        0.174       80.709       18.027        0.050      339.603       13.048      858.097
09/20/2013  02:18:00      -99.008      -58.963      -13.793       19.656       17.150       16.165      386.365      294.127      261.300        0.721        0.047      115.236        9.468        0.007      339.552       12.962      858.101
09/20/2013  02:19:00      -93.727      -46.469       -5.219       19.908       20.371       13.200      396.328      414.981      174.241        0.598        0.049      104.614        8.362        0.006      339.495       12.868      858.092
09/20/2013  02:20:00     -110.470      -41.318       -2.008       24.269       17.849       11.504      588.979      318.584      132.353        0.748        0.052      117.944        9.236        0.006      339.510       12.894      858.083
09/20/2013  02:21:00     -136.364      -43.129       -4.472       18.386       18.377       11.297      338.060      337.726      127.615        1.064        0.040      143.022        8.760        0.004      339.518       12.907      858.082
09/20/2013  02:22:00     -169.984      -41.791      -13.016       28.252       25.941       16.754      798.148      672.918      280.698        1.628        0.088      175.046       13.873        0.006      339.551       12.960      858.093
09/20/2013  02:23:00     -160.110      -42.497       -8.207       21.902       25.708       16.215      479.682      660.917      262.941        1.446        0.070      165.654       13.247        0.006      339.574       12.999      858.101
09/20/2013  02:24:00      -73.420      -30.889       -2.508       34.606       23.061       19.831     1197.572      531.831      393.270        0.424        0.106       79.653       16.277        0.042      339.482       12.845      858.099
09/20/2013  02:25:00      -29.929      -24.426        8.563       47.160       25.541       23.068     2224.054      652.346      532.145        0.249        0.170       38.631       22.317        0.334      339.528       12.922      858.114
09/20/2013  02:26:00       -6.671      -21.421        7.843       25.986       23.029       15.276      675.268      530.350      233.349        0.100        0.072       22.436       10.679        0.227      339.563       12.983      858.123
09/20/2013  02:27:00      -13.839      -48.787       11.082       29.795       39.883       21.494      887.724     1590.619      461.981        0.282        0.147       50.712       17.842        0.124      339.595       13.035      858.137
09/20/2013  02:28:00       -3.930      -61.474       10.465       44.326       45.975       28.173     1964.824     2113.655      793.695        0.439        0.244       61.600       19.798        0.103      339.538       12.938      858.137
09/20/2013  02:29:00      -12.890      -30.633       23.666       47.656       39.673       29.768     2271.087     1573.956      886.149        0.320        0.237       33.234       28.300        0.725      339.414       12.732      858.125
09/20/2013  02:30:00      -35.554      -28.459        8.905       40.511       43.764       22.012     1641.117     1915.304      484.513        0.310        0.202       45.541       19.054        0.175      339.418       12.738      858.108
09/20/2013  02:31:00     -108.967      -90.956       -7.963       59.865       53.658       36.669     3583.792     2879.146     1344.644        1.401        0.390      141.939       18.248        0.017      339.385       12.681      858.101
09/20/2013  02:32:00     -137.422      -87.728       -7.222       42.486       38.179       35.131     1805.045     1457.614     1234.167        1.556        0.225      163.037       25.694        0.025      339.319       12.570      858.108
09/20/2013  02:33:00     -151.376     -101.840       -6.797       36.073       34.907       30.524     1301.251     1218.501      931.730        1.839        0.173      182.445       28.190        0.024      339.291       12.524      858.105
09/20/2013  02:34:00     -104.892      -92.745       -3.478       42.690       35.111       26.324     1822.423     1232.766      692.946        1.168        0.187      140.014       20.471        0.021      339.262       12.476      858.099
09/20/2013  02:35:00     -127.699      -55.602      -18.135       24.102       24.690       16.771      580.919      609.576      281.279        1.060        0.074      139.279       11.012        0.006      339.306       12.547      858.099
09/20/2013  02:36:00     -108.416      -48.933       -3.299       27.793       25.334       15.658      772.459      641.821      245.188        0.791        0.083      118.947       17.235        0.021      339.207       12.384      858.105
09/20/2013  02:37:00     -116.893      -37.324       -8.948       17.047       20.757       13.488      290.606      430.857      181.938        0.802        0.045      122.707        5.776        0.002      339.144       12.276      858.103
09/20/2013  02:38:00      -90.482      -16.868       -3.609       39.995       26.273       19.839     1599.609      690.294      393.589        0.558        0.134       92.041       19.796        0.046      339.035       12.092      858.098
09/20/2013  02:39:00     -118.968      -50.238       -8.678       35.040       33.543       23.622     1227.779     1125.104      557.990        0.983        0.146      129.141       18.346        0.020      339.077       12.164      858.103
09/20/2013  02:40:00     -107.690      -44.601       -2.006       35.249       36.137       18.561     1242.486     1305.851      344.507        0.824        0.145      116.561       14.680        0.016      339.005       12.043      858.101
09/20/2013  02:41:00      -87.586      -36.545       -4.477       32.198       23.713       21.300     1036.704      562.323      453.706        0.554        0.103       94.904       18.152        0.037      338.877       11.827      858.108
09/20/2013  02:42:00      -30.250      -32.441        7.894       39.473       21.441       22.508     1558.087      459.719      506.603        0.228        0.126       44.357       24.480        0.305      339.000       12.034      858.113
09/20/2013  02:43:00      -80.552      -34.470        2.354       42.352       19.675       17.631     1793.722      387.101      310.847        0.509        0.125       87.618       19.309        0.049      339.035       12.093      858.099
09/20/2013  02:44:00      -92.542      -24.227       -1.000       16.968       14.978       14.870      287.919      224.331      221.120        0.494        0.037       95.661        8.925        0.009      339.021       12.068      858.097
09/20/2013  02:45:00      -37.533      -33.553        4.148       38.918       15.751       11.389     1514.620      248.088      129.711        0.222        0.095       50.344       13.783        0.075      339.087       12.179      858.092
09/20/2013  02:46:00       -9.338      -28.452        3.938       17.643       14.511       14.286      311.266      210.578      204.089        0.082        0.036       29.945        7.576        0.064      339.138       12.265      858.092
09/20/2013  02:47:00      -47.812      -30.938        3.411       19.851       15.548       13.675      394.048      241.728      187.012        0.204        0.041       56.948       11.856        0.043      339.211       12.389      858.083
09/20/2013  02:48:00      -77.065      -19.174       -5.196       18.463       14.869        9.095      340.900      221.073       82.716        0.349        0.032       79.414        6.242        0.006      339.164       12.311      858.077
09/20/2013  02:49:00      -75.769        5.414       -6.277       14.693       16.789        7.544      215.878      281.874       56.919        0.318        0.028       75.962        5.476        0.005      339.105       12.211      858.065
09/20/2013  02:50:00      -63.657       21.664       -4.835       13.485       11.276        8.162      181.853      127.143       66.626        0.246        0.019       67.242        3.455        0.003      339.095       12.193      858.058
09/20/2013  02:51:00      -57.613        7.151       -8.395       19.565       12.786        8.409      382.774      163.472       70.714        0.203        0.031       58.055        6.224        0.011      339.153       12.290      858.057
09/20/2013  02:52:00      -82.729        6.233       -4.952       23.291       19.663       11.008      542.494      386.653      121.175        0.398        0.053       82.963       11.328        0.019      339.080       12.167      858.043
09/20/2013  02:53:00      -77.457      -33.921       -9.943       18.704       13.405        9.663      349.832      179.694       93.370        0.394        0.031       84.559        4.738        0.003      338.960       11.968      858.042
09/20/2013  02:54:00      -50.902      -19.522       -3.025       17.412       22.455       17.723      303.189      504.223      314.092        0.205        0.056       54.517       11.041        0.041      338.845       11.772      858.031
09/20/2013  02:55:00      -76.042      -12.206       -0.814       33.371       31.278       19.842     1113.606      978.304      393.718        0.421        0.124       77.015       14.490        0.035      338.781       11.666      858.041
09/20/2013  02:56:00      -48.882      -24.354       -1.139       29.056       24.514       11.886      844.234      600.921      141.276        0.228        0.079       54.612       13.159        0.058      338.677       11.490      858.036
09/20/2013  02:57:00       -5.127      -15.828       12.282       39.307       25.185       19.148     1545.041      634.291      366.657        0.149        0.127       16.638       20.578        1.530      338.705       11.537      858.029
09/20/2013  02:58:00      -95.741      -36.699      -12.749       27.796       18.685       14.627      772.602      349.136      213.959        0.601        0.067      102.533        6.404        0.004      338.626       11.407      858.030
09/20/2013  02:59:00      -94.601      -47.813       -1.991       27.716       28.513       15.595      768.156      813.010      243.214        0.653        0.091      105.997       13.878        0.017      338.601       11.363      858.031
09/20/2013  03:00:00     -118.667      -55.384      -12.558       26.945       22.614       18.756      726.034      511.385      351.793        0.945        0.079      130.955       16.499        0.016      338.618       11.393      858.034
09/20/2013  03:01:00     -101.133      -42.929      -15.540       27.566       24.153       15.439      759.865      583.375      238.376        0.695        0.079      109.867        2.544        0.001      338.701       11.532      858.049
09/20/2013  03:02:00      -96.787      -61.023       -7.975       44.527       25.635       18.149     1982.685      657.132      329.380        0.806        0.148      114.418       21.897        0.037      338.724       11.569      858.056
09/20/2013  03:03:00     -128.406      -52.329       -4.971       22.626       17.345       15.182      511.928      300.839      230.488        1.015        0.052      138.659       13.590        0.010      338.780       11.664      858.058
09/20/2013  03:04:00     -115.106      -38.531       -8.201       14.365       17.100       10.145      206.358      292.400      102.926        0.770        0.030      121.384        6.210        0.003      338.810       11.714      858.066
09/20/2013  03:05:00     -111.869      -19.471      -12.544       19.910       11.540       11.508      396.420      133.183      132.443        0.686        0.033      113.551        9.685        0.007      338.769       11.645      858.066
09/20/2013  03:06:00      -86.516      -15.951       -1.647       31.832       20.360       15.639     1013.294      414.528      244.587        0.471        0.084       87.974       16.332        0.034      338.732       11.585      858.074
09/20/2013  03:07:00      -99.811      -17.482       -9.695       23.744       15.125       14.117      563.759      228.753      199.279        0.568        0.050      101.331       14.398        0.020      338.752       11.617      858.063
09/20/2013  03:08:00     -114.584       -6.135      -13.806       24.995       18.170       13.552      624.753      330.159      183.646        0.725        0.057      114.748        7.291        0.004      338.832       11.752      858.046
09/20/2013  03:09:00     -130.026       -5.744      -15.276       27.486       15.040       18.744      755.460      226.207      351.348        0.925        0.067      130.153       17.814        0.019      338.851       11.783      858.045
09/20/2013  03:10:00     -125.335      -13.371       -6.019       28.516       16.946       16.336      813.190      287.179      266.864        0.865        0.068      126.046       16.726        0.018      338.871       11.816      858.041
09/20/2013  03:11:00     -139.152      -14.558      -15.415       16.415       14.900        9.968      269.455      222.025       99.365        1.020        0.030      139.911        8.007        0.003      338.831       11.751      858.033
09/20/2013  03:12:00     -136.304      -10.850      -22.916       18.522       13.094       14.889      343.079      171.442      221.694        0.998        0.037      136.735       12.760        0.009      338.784       11.673      858.023
09/20/2013  03:13:00      -92.080      -30.729      -13.753       23.064       15.319       12.368      531.967      234.686      152.961        0.527        0.046       97.073        8.009        0.007      338.672       11.482      858.020
09/20/2013  03:14:00      -94.436      -30.875      -14.245       19.819       24.586       14.553      392.779      604.457      211.796        0.564        0.060       99.355       13.266        0.018      338.691       11.513      858.019
09/20/2013  03:15:00      -67.883      -22.079       -3.362       24.052       20.554       14.757      578.515      422.479      217.772        0.316        0.061       71.383       12.834        0.032      338.720       11.565      858.011
09/20/2013  03:16:00      -49.217      -29.064      -12.432       16.657       17.751       12.333      277.454      315.088      152.110        0.208        0.037       57.158        7.481        0.017      338.811       11.716      858.004
09/20/2013  03:17:00      -46.161      -18.507      -10.628       14.939       13.064        8.048      223.173      170.670       64.773        0.152        0.023       49.733        7.106        0.020      338.949       11.950      857.998
09/20/2013  03:18:00      -32.783       -8.127       -9.887       11.672       14.561        8.228      136.233      212.031       67.696        0.083        0.021       33.775        2.731        0.007      339.385       12.681      857.996
09/20/2013  03:19:00      -56.838      -37.848      -12.861       22.879       13.974       12.529      523.434      195.262      156.986        0.285        0.044       68.286       13.096        0.037      338.880       11.833      857.987
09/20/2013  03:20:00      -90.041      -27.690      -18.821       16.936       11.074        9.741      286.831      122.623       94.878        0.487        0.025       94.203        4.736        0.003      338.631       11.413      857.980
09/20/2013  03:21:00     -111.095      -35.322      -18.215       20.402       19.671       13.229      416.244      386.959      175.008        0.745        0.049      116.575        7.130        0.004      338.537       11.257      857.974
09/20/2013  03:22:00     -109.233      -42.710      -16.933       22.203       18.246       15.434      492.995      332.921      238.216        0.755        0.053      117.286       12.475        0.011      338.520       11.227      857.989
09/20/2013  03:23:00     -109.647      -59.308      -12.595       20.704       27.822       15.045      428.659      774.089      226.337        0.856        0.071      124.660       10.383        0.007      338.477       11.156      857.996
09/20/2013  03:24:00     -129.269      -21.897      -11.247       29.567       20.323       13.321      874.229      413.038      177.458        0.939        0.073      131.110       10.336        0.006      338.476       11.153      857.987
09/20/2013  03:25:00      -92.247      -32.575       -9.846       28.237       21.331       16.356      797.348      455.002      267.505        0.559        0.076       97.830       15.249        0.024      338.414       11.048      857.969
09/20/2013  03:26:00     -106.309      -28.672      -13.598       27.660       15.807       14.648      765.071      249.851      214.552        0.677        0.061      110.107       11.422        0.011      338.450       11.110      857.950
09/20/2013  03:27:00      -89.293      -18.984      -17.860       17.400       17.750       12.200      302.761      315.070      148.845        0.471        0.038       91.289        8.406        0.008      338.522       11.230      857.939
09/20/2013  03:28:00      -44.699      -19.095       -7.767       19.421       15.383       11.153      377.188      236.625      124.392        0.158        0.037       48.606       11.581        0.057      338.620       11.395      857.925
09/20/2013  03:29:00      -49.301      -22.581       -5.178       14.383       13.299       11.643      206.878      176.876      135.560        0.174        0.026       54.226        8.776        0.026      338.596       11.356      857.921
09/20/2013  03:30:00      -56.089      -26.885      -12.662       11.922        8.180        7.536      142.132       66.917       56.785        0.215        0.013       62.200        4.691        0.006      338.708       11.544      857.921
09/20/2013  03:31:00      -70.035      -15.339      -13.754       13.325       10.175        7.973      177.556      103.531       63.575        0.284        0.017       71.695        5.287        0.005      338.676       11.489      857.919
09/20/2013  03:32:00      -76.858       -8.921      -10.265       11.910       16.513       11.794      141.851      272.695      139.099        0.332        0.028       77.374        9.274        0.014      338.676       11.490      857.900
09/20/2013  03:33:00      -52.821      -15.429       -9.405       10.825       10.599       11.895      117.170      112.349      141.492        0.174        0.019       55.028        7.942        0.021      338.717       11.558      857.881
09/20/2013  03:34:00      -58.025      -26.536      -12.116       16.450       11.017       12.377      270.586      121.373      153.179        0.238        0.027       63.805        8.315        0.017      338.764       11.638      857.878
09/20/2013  03:35:00      -60.354      -27.873      -17.002        6.423        6.230        5.293       41.249       38.814       28.012        0.241        0.005       66.479        2.469        0.001      338.780       11.665      857.883
09/20/2013  03:36:00      -55.092      -22.141       -8.084        8.624        6.683        7.969       74.376       44.661       63.509        0.189        0.009       59.375        4.171        0.005      338.744       11.604      857.904
09/20/2013  03:37:00      -48.172      -12.461      -12.965        6.507        9.317        5.128       42.340       86.806       26.299        0.140        0.008       49.758        4.643        0.009      338.908       11.878      857.918
09/20/2013  03:38:00      -48.086       -4.310       -6.654       12.085        6.447        6.145      146.056       41.559       37.762        0.130        0.011       48.278        5.995        0.015      339.127       12.249      857.909
09/20/2013  03:39:00      -64.859      -12.305      -11.728       10.533        7.754        7.691      110.944       60.124       59.151        0.236        0.012       66.016        4.521        0.005      338.847       11.775      857.895
09/20/2013  03:40:00      -23.502      -16.894       -6.399       16.181        9.156        7.808      261.827       83.838       60.972        0.064        0.020       28.944        5.038        0.030      338.866       11.808      857.895
09/20/2013  03:41:00      -47.071       -8.335       -7.870        5.648        6.304        5.485       31.896       39.745       30.086        0.122        0.005       47.803        2.891        0.004      338.882       11.834      857.894
09/20/2013  03:42:00      -37.303       -8.449      -10.839        7.450        6.039        5.344       55.504       36.464       28.562        0.085        0.006       38.248        1.919        0.003      338.902       11.868      857.882
09/20/2013  03:43:00      -13.607      -10.216       -6.576        9.903        8.082        7.605       98.067       65.324       57.836        0.028        0.011       17.015        6.409        0.142      338.954       11.956      857.872
09/20/2013  03:44:00       -3.702       -5.476        1.254        4.693        3.620        4.127       22.029       13.107       17.030        0.005        0.003        6.610        2.020        0.093      338.861       11.799      857.864
09/20/2013  03:45:00      -22.940       -9.404       -1.146        9.119        5.429        4.699       83.151       29.470       22.078        0.038        0.007       24.792        4.377        0.031      338.906       11.874      857.849
09/20/2013  03:46:00      -26.151      -28.344       -7.762       16.595       13.879        6.620      275.404      192.619       43.831        0.103        0.026       38.565        6.033        0.024      338.753       11.618      857.848
09/20/2013  03:47:00      -21.670      -25.466       -8.929       17.500       23.352        9.184      306.249      545.334       84.352        0.107        0.047       33.438       11.465        0.118      339.026       12.078      857.858
09/20/2013  03:48:00       -0.101        1.975        6.892       10.436        6.772        6.028      108.913       45.859       36.337        0.012        0.010        1.978        6.863       12.044      339.121       12.239      857.856
09/20/2013  03:49:00        2.379        6.502        4.882       10.340        4.943        5.320      106.914       24.438       28.297        0.012        0.008        6.924        4.902        0.501      338.896       11.860      857.862
09/20/2013  03:50:00       -1.958       29.985       -2.557        9.589        8.464        5.391       91.940       71.642       29.058        0.055        0.010       30.049        6.564        0.048      339.162       12.306      857.863
09/20/2013  03:51:00       -7.076       43.400       -5.449        6.066        6.606        4.543       36.795       43.645       20.642        0.103        0.005       43.973        3.220        0.005      339.270       12.487      857.850
09/20/2013  03:52:00        8.470       64.057       -3.843        7.918       11.716        7.879       62.693      137.260       62.081        0.223        0.013       64.615        4.902        0.006      339.196       12.367      857.847
09/20/2013  03:53:00        9.315       30.935       -3.189        9.226       13.616        7.653       85.113      185.403       58.570        0.069        0.016       32.307        5.500        0.029      338.983       12.004      857.852
09/20/2013  03:54:00      -10.760       19.933       -0.374        7.282       11.414        5.355       53.025      130.272       28.681        0.036        0.011       22.652        4.660        0.042      339.062       12.137      857.844
09/20/2013  03:55:00      -37.118      -18.406       -8.719       19.514       18.569        8.960      380.813      344.812       80.280        0.130        0.040       41.431        6.343        0.023      338.805       11.706      857.840
09/20/2013  03:56:00      -78.631      -32.012       -9.502       15.852       12.450       11.822      251.282      155.010      139.767        0.392        0.027       84.898        7.930        0.009      338.568       11.307      857.838
09/20/2013  03:57:00     -112.402      -30.916      -14.448        9.564        8.658        7.910       91.477       74.963       62.571        0.701        0.011      116.576        5.177        0.002      338.611       11.382      857.831
09/20/2013  03:58:00     -115.360      -19.314      -20.288       14.365       13.666        9.822      206.365      186.762       96.470        0.729        0.024      116.965        7.178        0.004      338.652       11.450      857.832
09/20/2013  03:59:00     -123.329      -34.098      -18.943       14.295       11.988        7.709      204.341      143.700       59.431        0.857        0.020      127.956        5.006        0.002      338.646       11.439      857.840
09/20/2013  04:00:00     -115.337      -10.196      -16.654       19.602       22.406       11.870      384.221      502.050      140.895        0.736        0.051      115.787        9.792        0.007      338.569       11.310      857.835
09/20/2013  04:01:00      -86.202        7.263      -12.308       35.498       16.345       16.640     1260.118      267.159      276.884        0.472        0.090       86.508       20.017        0.054      338.587       11.341      857.840
09/20/2013  04:02:00      -60.746       -2.118      -15.169       13.847       11.873        9.578      191.749      140.968       91.736        0.217        0.021       60.783        7.726        0.016      338.683       11.501      857.849
09/20/2013  04:03:00      -92.002      -22.778      -15.742       19.155       15.008       10.278      366.907      225.237      105.632        0.496        0.035       94.780        7.513        0.006      338.736       11.590      857.852
09/20/2013  04:04:00      -87.648      -46.181       -9.693       26.037       18.319       13.277      677.907      335.571      176.277        0.555        0.059       99.070        8.430        0.007      338.574       11.317      857.863
09/20/2013  04:05:00      -73.621      -46.153       -8.259       20.027       16.389       11.850      401.085      268.604      140.422        0.421        0.041       86.892        8.648        0.010      338.527       11.237      857.868
09/20/2013  04:06:00      -64.584      -44.683       -8.847       19.935       21.153       22.021      397.407      447.454      484.922        0.379        0.066       78.535       13.753        0.031      338.494       11.183      857.871
09/20/2013  04:07:00      -38.124      -32.190       -2.785       26.051       19.937       16.889      678.665      397.483      285.239        0.193        0.068       49.896       13.611        0.074      338.395       11.018      857.883
09/20/2013  04:08:00      -50.965      -17.660      -11.196       18.909       15.419       13.040      357.542      237.740      170.037        0.190        0.038       53.938       12.079        0.050      338.556       11.287      857.897
09/20/2013  04:09:00      -61.063       -2.514      -15.478       14.449       13.350       13.298      208.774      178.214      176.844        0.227        0.028       61.115        7.669        0.016      338.971       11.985      857.899
09/20/2013  04:10:00      -73.333      -33.938       -8.883       19.691       15.073        9.959      387.741      227.209       99.174        0.366        0.036       80.805        3.216        0.002      338.485       11.169      857.896
09/20/2013  04:11:00     -101.059      -48.639      -18.206       12.644       11.468        9.639      159.878      131.524       92.904        0.665        0.019      112.155        6.628        0.003      338.385       10.997      857.900
09/20/2013  04:12:00     -104.801      -35.790      -18.119       16.049       13.214        8.316      257.586      174.619       69.161        0.655        0.025      110.743        5.483        0.002      338.379       10.991      857.894
09/20/2013  04:13:00      -97.843      -46.071      -10.227       13.788       14.879        9.756      190.120      221.397       95.180        0.615        0.025      108.147        6.652        0.004      338.446       11.103      857.898
09/20/2013  04:14:00      -92.342      -38.044       -2.654       15.222       11.983        7.189      231.721      143.601       51.687        0.520        0.021       99.872        5.040        0.003      338.531       11.246      857.904
09/20/2013  04:15:00      -60.476      -39.304       -3.024       14.941       17.418        9.041      223.219      303.386       81.734        0.291        0.030       72.126        6.477        0.008      338.606       11.372      857.900
09/20/2013  04:16:00      -39.816      -26.198       -4.051       15.889        9.242        8.847      252.460       85.417       78.270        0.135        0.021       47.662        6.686        0.020      338.663       11.466      857.893
09/20/2013  04:17:00      -45.942       -8.542       -9.851       10.978        8.431        7.337      120.513       71.076       53.834        0.126        0.012       46.729        5.759        0.015      338.757       11.624      857.882
09/20/2013  04:18:00      -56.166       -3.078       -6.167        8.800        7.320        7.151       77.447       53.584       51.133        0.169        0.009       56.251        5.041        0.008      338.629       11.411      857.873
09/20/2013  04:19:00      -55.674       -9.138       -6.264        7.142        9.658        8.562       51.011       93.279       73.300        0.172        0.011       56.419        5.911        0.011      338.667       11.473      857.843
09/20/2013  04:20:00      -66.172       -0.122       -8.312       15.489       19.017        8.832      239.912      361.650       78.002        0.256        0.034       66.173        7.812        0.014      338.643       11.434      857.818
09/20/2013  04:21:00      -69.442      -28.327      -11.627       15.277       16.879       11.063      233.402      284.911      122.387        0.320        0.032       74.997        8.546        0.013      338.589       11.341      857.809
09/20/2013  04:22:00      -56.956      -26.417       -3.061       21.203       19.768       15.675      449.555      390.791      245.691        0.252        0.054       62.784       10.618        0.029      338.504       11.200      857.827
09/20/2013  04:23:00      -79.300      -33.239      -11.512       29.023       16.006       18.065      842.315      256.191      326.356        0.448        0.071       85.985       18.301        0.045      338.365       10.968      857.836
09/20/2013  04:24:00      -80.072      -52.201      -13.048       17.574       21.037       12.541      308.859      442.548      157.275        0.511        0.045       95.585        7.801        0.007      338.313       10.881      857.837
09/20/2013  04:25:00      -73.076      -29.428      -11.602       11.655       15.272       12.305      135.832      233.245      151.406        0.343        0.026       78.779        9.779        0.015      338.213       10.711      857.833
09/20/2013  04:26:00      -44.960      -34.300      -10.984       15.687       14.214        9.206      246.089      202.025       84.758        0.193        0.027       56.550        7.631        0.018      338.253       10.780      857.822
09/20/2013  04:27:00      -30.482      -15.932       -5.536       16.695       18.380       10.230      278.717      337.828      104.653        0.097        0.036       34.394       10.764        0.098      338.311       10.876      857.808
09/20/2013  04:28:00      -30.936       -9.034      -12.978       13.318       13.855        9.078      177.367      191.969       82.415        0.083        0.023       32.228        8.147        0.064      338.436       11.086      857.805
09/20/2013  04:29:00      -29.447      -23.599       -6.201       13.113       12.474        8.480      171.959      155.590       71.916        0.093        0.020       37.736        5.945        0.025      338.470       11.144      857.805
09/20/2013  04:30:00      -53.248      -28.502       -8.179       10.968       11.116       10.172      120.288      123.557      103.468        0.203        0.017       60.396        2.039        0.001      338.374       10.982      857.796
09/20/2013  04:31:00      -60.664       -7.278      -15.585       14.800       14.201        8.105      219.045      201.679       65.689        0.223        0.024       61.099        4.088        0.004      338.408       11.039      857.786
09/20/2013  04:32:00      -31.003       -0.502       -3.449       10.337       16.766        8.852      106.853      281.089       78.355        0.072        0.023       31.007        5.479        0.031      338.518       11.225      857.793
09/20/2013  04:33:00      -30.611      -33.864       -4.629       13.653        8.119        8.352      186.398       65.911       69.748        0.121        0.016       45.649        5.114        0.013      338.499       11.191      857.815
09/20/2013  04:34:00      -52.211      -36.676       -5.376       17.232       13.548        8.861      296.934      183.558       78.525        0.233        0.028       63.805        7.772        0.015      338.338       10.921      857.836
09/20/2013  04:35:00      -83.558      -14.759       -9.047        7.130       14.380        5.910       50.830      206.793       34.929        0.379        0.015       84.852        3.856        0.002      338.222       10.726      857.843
09/20/2013  04:36:00      -67.844      -14.631      -10.147       12.721       12.482       10.980      161.827      155.794      120.560        0.268        0.022       69.403        7.785        0.013      338.323       10.898      857.842
09/20/2013  04:37:00      -78.757      -23.063      -12.612        9.279        9.317        6.888       86.109       86.799       47.443        0.356        0.011       82.064        2.263        0.001      338.374       10.982      857.842
09/20/2013  04:38:00     -101.267      -16.795      -11.523       13.242       10.580       10.082      175.355      111.939      101.654        0.553        0.019      102.650        6.955        0.005      338.337       10.920      857.840
09/20/2013  04:39:00     -103.506      -39.002      -11.813       10.229       15.291       11.265      104.625      233.809      126.900        0.642        0.023      110.611        9.148        0.007      338.283       10.829      857.842
09/20/2013  04:40:00      -91.795      -41.981      -13.692        9.593       13.392        7.387       92.016      179.340       54.568        0.535        0.016      100.939        5.779        0.003      338.296       10.851      857.854
09/20/2013  04:41:00      -88.237      -19.619      -14.519        9.403       12.694        9.269       88.419      161.141       85.915        0.436        0.017       90.392        7.262        0.006      338.258       10.786      857.860
09/20/2013  04:42:00      -89.358      -12.264      -14.566       15.472       11.943       10.541      239.391      142.646      111.121        0.442        0.025       90.196        9.648        0.011      338.304       10.865      857.857
09/20/2013  04:43:00     -111.121      -30.620      -12.866       12.343       16.369       10.658      152.356      267.936      113.602        0.699        0.027      115.263        4.628        0.002      338.267       10.802      857.850
09/20/2013  04:44:00     -112.947      -55.400      -14.004       13.085       10.838       11.196      171.219      117.468      125.342        0.822        0.021      125.802        3.268        0.001      338.102       10.526      857.854
09/20/2013  04:45:00     -117.293      -49.412      -10.176       16.139       18.304       13.062      260.462      335.018      170.604        0.853        0.038      127.277        6.649        0.003      338.109       10.538      857.858
09/20/2013  04:46:00     -100.592      -34.751       -9.949       16.652       17.053        9.342      277.285      290.804       87.278        0.604        0.033      106.426        5.613        0.003      338.107       10.535      857.848
09/20/2013  04:47:00      -67.013      -14.058      -11.401       13.370       11.549       10.558      178.744      133.381      111.469        0.262        0.021       68.472        5.177        0.006      338.088       10.503      857.829
09/20/2013  04:48:00      -86.451      -18.170       -9.043       20.051       15.809        9.625      402.048      249.928       92.642        0.432        0.037       88.340        6.938        0.006      338.090       10.506      857.799
09/20/2013  04:49:00      -83.554      -37.947      -11.852        9.032       10.827        7.272       81.579      117.219       52.877        0.441        0.013       91.768        4.725        0.003      338.118       10.552      857.774
09/20/2013  04:50:00      -75.210      -28.037       -9.764        8.698       10.618        5.093       75.651      112.749       25.941        0.338        0.011       80.266        2.638        0.001      338.165       10.632      857.759
09/20/2013  04:51:00      -60.256      -34.558      -12.252       11.669       12.172        7.731      136.168      148.163       59.762        0.266        0.017       69.463        4.097        0.003      338.144       10.595      857.756
09/20/2013  04:52:00      -70.809      -35.432      -17.140       12.797       10.818        9.540      163.758      117.022       91.011        0.347        0.019       79.179        4.967        0.004      338.085       10.498      857.758
09/20/2013  04:53:00      -90.018      -38.575      -13.534       10.447        9.648        6.133      109.135       93.093       37.609        0.501        0.012       97.935        4.989        0.003      338.125       10.563      857.766
09/20/2013  04:54:00     -114.439      -34.463       -8.867       18.382       20.207       10.804      337.887      408.325      116.716        0.761        0.043      119.516        7.204        0.004      338.069       10.469      857.777
09/20/2013  04:55:00     -145.069      -42.463       -9.777       16.865       17.905       12.663      284.424      320.575      160.348        1.185        0.038      151.156       10.345        0.005      338.069       10.469      857.780
09/20/2013  04:56:00     -159.272      -53.712      -11.345       17.768       18.584       13.625      315.714      345.362      185.627        1.461        0.042      168.085       11.840        0.005      337.955       10.279      857.790
09/20/2013  04:57:00      -97.512      -25.609        2.156       40.743       25.957       15.152     1659.994      673.753      229.576        0.637        0.128      100.819       14.248        0.020      337.927       10.232      857.790
09/20/2013  04:58:00     -115.137      -11.719       -9.619       34.045       18.455       18.006     1159.068      340.572      324.226        0.765        0.091      115.732       17.280        0.022      337.990       10.337      857.792
09/20/2013  04:59:00     -106.786      -31.767       -5.813       25.792       21.437       16.519      665.213      459.546      272.888        0.692        0.070      111.411       12.872        0.013      337.996       10.348      857.804
09/20/2013  05:00:00     -124.954      -27.019      -13.710       24.913       19.559       12.946      620.662      382.569      167.607        0.885        0.059      127.842       11.435        0.008      338.015       10.379      857.800
09/20/2013  05:01:00     -122.848      -12.824      -13.834       13.728       20.067       12.425      188.466      402.676      154.378        0.810        0.037      123.516        6.361        0.003      338.005       10.363      857.797
09/20/2013  05:02:00      -60.231      -15.986       -6.425       31.685       16.730       14.708     1003.933      279.880      216.330        0.271        0.075       62.317       15.493        0.062      337.899       10.185      857.793
09/20/2013  05:03:00      -52.696      -21.089       -0.843       30.015       20.294       12.940      900.888      411.863      167.443        0.235        0.074       56.760       12.665        0.050      338.086       10.498      857.780
09/20/2013  05:04:00       -6.706      -23.857        5.074       34.468       18.308       17.625     1188.021      335.195      310.626        0.124        0.092       24.782       18.226        0.541      338.087       10.501      857.778
09/20/2013  05:05:00        0.431      -26.411        1.686       38.496       19.215       19.344     1481.917      369.222      374.192        0.146        0.111       26.415       17.795        0.454      338.061       10.457      857.786
09/20/2013  05:06:00      -61.929      -34.728       -2.421       22.877       19.804       16.142      523.377      392.191      260.563        0.311        0.059       71.002       11.354        0.026      338.051       10.440      857.778
09/20/2013  05:07:00     -102.409      -33.287      -19.909       16.339       20.626       13.931      266.973      425.436      194.061        0.644        0.044      107.683        9.183        0.007      338.054       10.445      857.747
09/20/2013  05:08:00      -91.843      -49.738       -5.400       24.977       24.443       15.205      623.869      597.460      231.191        0.620        0.073      104.446        6.608        0.004      338.006       10.365      857.733
09/20/2013  05:09:00      -98.400      -55.169       -0.770       20.015       21.418       15.208      400.615      458.732      231.292        0.691        0.055      112.811       10.295        0.008      337.985       10.328      857.720
09/20/2013  05:10:00      -97.350      -21.327       -5.262       31.979       27.720       17.505     1022.678      768.377      306.433        0.603        0.105       99.659       17.059        0.029      337.964       10.292      857.708
09/20/2013  05:11:00      -85.107      -11.171       -0.878       33.236       28.103       18.739     1104.626      789.806      351.152        0.481        0.112       85.837       15.437        0.032      337.937       10.248      857.707
09/20/2013  05:12:00      -99.367      -40.056       -7.857       26.322       32.715       12.868      692.841     1070.266      165.594        0.673        0.096      107.137        9.816        0.008      338.073       10.476      857.688
09/20/2013  05:13:00      -98.746      -25.856       -7.577       13.192       18.850       10.210      174.021      355.305      104.243        0.556        0.032      102.075        5.624        0.003      338.085       10.496      857.665
09/20/2013  05:14:00      -75.388       -6.529       -7.064       18.816       20.191       12.244      354.054      407.676      149.910        0.334        0.046       75.670       11.297        0.022      338.086       10.498      857.643
09/20/2013  05:15:00      -82.166       -4.863      -13.679       13.863       10.201        8.738      192.193      104.061       76.355        0.367        0.019       82.310        6.206        0.006      338.101       10.522      857.597
09/20/2013  05:16:00      -74.973      -19.158       -8.331        9.077       11.995        9.056       82.383      143.890       82.009        0.318        0.015       77.382        4.867        0.004      338.146       10.598      857.577
09/20/2013  05:17:00     -111.810      -43.945      -13.071       15.079       17.592        8.886      227.386      309.476       78.954        0.761        0.031      120.136        4.485        0.001      338.199       10.687      857.569
09/20/2013  05:18:00     -126.041      -42.349       -8.584       11.013       14.894        7.385      121.286      221.823       54.538        0.908        0.020      132.965        1.810        0.000      338.143       10.593      857.568
09/20/2013  05:19:00      -89.752      -21.568       -7.095       11.729       15.132        7.184      137.569      228.963       51.616        0.449        0.021       92.307        4.032        0.002      338.086       10.499      857.559
09/20/2013  05:20:00      -62.271      -49.544       -7.975       12.170       17.200       13.331      148.100      295.827      177.709        0.351        0.031       79.576       10.764        0.018      338.076       10.482      857.531
09/20/2013  05:21:00       -9.284      -25.521        6.269       20.764       20.156       13.158      431.128      406.255      173.130        0.089        0.051       27.157       12.567        0.214      338.057       10.450      857.520
09/20/2013  05:22:00      -22.842      -15.907        5.666       19.009       15.684       17.786      361.345      245.998      316.358        0.087        0.046       27.835       15.116        0.295      338.063       10.461      857.521
09/20/2013  05:23:00      -44.966      -27.620       -7.403       15.255       13.063       10.350      232.720      170.652      107.113        0.167        0.026       52.771        3.726        0.005      338.161       10.625      857.516
09/20/2013  05:24:00      -80.389      -47.386       -7.461       20.944       14.544       13.087      438.640      211.526      171.272        0.479        0.041       93.315        4.725        0.003      338.142       10.592      857.529
09/20/2013  05:25:00      -60.379      -38.382       -1.249       33.976       12.422       15.512     1154.354      154.302      240.625        0.333        0.077       71.546       13.864        0.038      338.066       10.463      857.551
09/20/2013  05:26:00      -63.965      -33.488        2.005       36.207       18.334       14.421     1310.947      336.123      207.957        0.354        0.093       72.201       19.667        0.074      338.077       10.484      857.556
09/20/2013  05:27:00      -50.405      -25.328       -3.446       21.506       20.041       15.240      462.512      401.660      232.272        0.215        0.055       56.411       11.901        0.045      338.152       10.609      857.535
09/20/2013  05:28:00      -85.639      -48.562       -2.191       16.934       18.144       13.688      286.752      329.213      187.355        0.525        0.040       98.449       10.332        0.011      338.140       10.591      857.524
09/20/2013  05:29:00      -83.316      -54.700       -4.775       17.965       20.982       11.622      322.728      440.236      135.068        0.543        0.045       99.668        5.429        0.003      338.083       10.493      857.526
09/20/2013  05:30:00      -81.319      -48.370       -5.566       19.375       14.926       10.510      375.376      222.772      110.451        0.485        0.035       94.617        9.423        0.010      338.146       10.600      857.545
09/20/2013  05:31:00      -95.544      -45.447       -4.373       11.477       14.377        9.627      131.716      206.711       92.675        0.582        0.022      105.802        5.391        0.003      338.095       10.512      857.536
09/20/2013  05:32:00      -62.400      -38.781        3.594       33.453       19.964       18.631     1119.107      398.547      347.121        0.364        0.093       73.470       18.518        0.064      337.998       10.350      857.526
09/20/2013  05:33:00      -63.422      -47.228       -2.564       31.677       17.951       18.146     1003.438      322.248      329.274        0.396        0.083       79.075       15.052        0.036      337.971       10.305      857.514
09/20/2013  05:34:00      -57.134      -39.127        3.713       32.523       18.096       15.868     1057.735      327.471      251.803        0.322        0.082       69.247       16.232        0.055      337.880       10.153      857.519
09/20/2013  05:35:00      -82.583      -55.405       -4.375       32.183       17.331       16.425     1035.749      300.360      269.781        0.576        0.080       99.447       16.232        0.027      337.900       10.185      857.537
09/20/2013  05:36:00     -105.901      -54.487      -17.611       33.437       19.806       15.147     1118.007      392.269      229.422        0.812        0.087      119.097        9.926        0.007      337.864       10.127      857.560
09/20/2013  05:37:00      -92.128      -49.208      -10.033       31.068       20.718       15.752      965.214      429.253      248.125        0.633        0.082      104.447       13.127        0.016      337.768        9.965      857.573
09/20/2013  05:38:00     -137.946      -30.700      -11.799       24.090       20.657       18.463      580.350      426.727      340.877        1.073        0.067      141.320       14.269        0.010      337.888       10.165      857.570
09/20/2013  05:39:00     -147.883      -28.094       -6.196       35.488       23.723       19.609     1259.417      562.760      384.516        1.245        0.110      150.528       14.133        0.009      337.811       10.037      857.568
09/20/2013  05:40:00     -138.917      -52.187        3.540       49.013       33.680       21.571     2402.238     1134.336      465.315        1.302        0.200      148.396       21.622        0.021      337.821       10.055      857.596
09/20/2013  05:41:00     -109.187      -65.476        3.793       35.956       25.453       21.773     1292.845      647.848      474.058        0.932        0.121      127.314       19.260        0.023      337.828       10.064      857.607
09/20/2013  05:42:00     -139.079      -33.553       -8.825       17.652       26.108       12.650      311.598      681.636      160.017        1.085        0.058      143.069        6.465        0.002      337.868       10.133      857.605
09/20/2013  05:43:00     -106.826       -9.613       -0.735       45.783       26.168       26.272     2096.121      684.790      690.223        0.749        0.174      107.257       28.032        0.068      337.864       10.125      857.588
09/20/2013  05:44:00      -41.751       -8.757        7.959       29.575       37.936       24.701      874.691     1439.160      610.149        0.240        0.146       42.660       16.754        0.154      337.783        9.990      857.592
09/20/2013  05:45:00      -20.025      -10.139        9.408       33.326       19.455       18.490     1110.649      378.487      341.893        0.121        0.092       22.446       17.828        0.631      337.848       10.099      857.590
09/20/2013  05:46:00      -48.917      -42.500       -3.957       58.163       42.863       19.249     3382.932     1837.207      370.537        0.490        0.280       64.801       16.819        0.067      337.786        9.996      857.602
09/20/2013  05:47:00      -84.583      -57.525       -1.145       59.601       33.581       27.075     3552.325     1127.669      733.039        0.794        0.271      102.291       28.340        0.077      337.651        9.769      857.611
09/20/2013  05:48:00      -69.915      -51.115       -2.167       29.619       29.422       21.397      877.288      865.626      457.822        0.485        0.110       86.607       15.464        0.032      337.627        9.729      857.617
09/20/2013  05:49:00      -66.382      -43.860       -6.007       25.455       23.438       17.889      647.955      549.340      320.012        0.394        0.076       79.563       12.610        0.025      337.770        9.969      857.620
09/20/2013  05:50:00      -62.875      -49.561      -12.022       23.663       21.671       13.353      559.955      469.625      178.294        0.388        0.060       80.060       10.178        0.016      337.721        9.885      857.624
09/20/2013  05:51:00      -57.004       -6.482       -8.606       14.469       21.839       11.966      209.361      476.951      143.181        0.210        0.041       57.371        8.905        0.024      337.741        9.919      857.593
09/20/2013  05:52:00      -43.465       42.778      -13.240       10.922       13.826        9.700      119.281      191.168       94.098        0.215        0.020       60.985        7.522        0.015      338.288       10.838      857.561
09/20/2013  05:53:00       -9.315        2.511        3.632       19.400       26.875       11.248      376.350      722.241      126.523        0.067        0.061        9.647       17.054        3.125      338.230       10.740      857.569
09/20/2013  05:54:00       10.583      -52.691      -10.489       22.213       15.274       12.293      493.438      233.291      151.117        0.194        0.044       53.744        6.433        0.014      338.049       10.436      857.581
09/20/2013  05:55:00      -65.316      -36.284       -9.114       39.354       18.177       16.100     1548.759      330.402      259.194        0.390        0.107       74.717       11.238        0.023      337.881       10.155      857.583
09/20/2013  05:56:00     -100.100      -54.827      -17.502       22.876       15.195       11.711      523.334      230.890      137.149        0.711        0.045      114.132        5.445        0.002      337.813       10.042      857.604
09/20/2013  05:57:00     -102.972      -46.462      -15.260       10.249       17.284        9.703      105.048      298.726       94.155        0.675        0.025      112.969        7.137        0.004      337.754        9.942      857.624
09/20/2013  05:58:00      -92.314       -3.671      -15.125       17.356       12.000       13.762      301.219      144.002      189.396        0.470        0.032       92.387       12.421        0.018      337.829       10.068      857.604
09/20/2013  05:59:00      -68.373       -9.479      -13.079       11.395        9.028        7.367      129.852       81.511       54.265        0.260        0.013       69.027        6.224        0.008      337.837       10.080      857.572
09/20/2013  06:00:00      -50.270      -25.494       -9.563       10.371       11.329       10.073      107.554      128.353      101.463        0.180        0.017       56.365        8.230        0.021      337.932       10.241      857.575
09/20/2013  06:01:00      -67.789      -36.170      -13.236       14.373       11.753        9.320      206.572      138.139       86.865        0.326        0.022       76.835        5.078        0.004      337.986       10.329      857.595
09/20/2013  06:02:00      -90.825      -44.872      -15.547       15.807       15.112        8.234      249.851      228.385       67.804        0.553        0.027      101.305        3.893        0.001      337.867       10.132      857.618
09/20/2013  06:03:00     -118.667      -60.888      -21.372       24.658       17.768       14.799      608.022      315.700      219.020        0.969        0.057      133.376       10.677        0.006      337.801       10.020      857.642
09/20/2013  06:04:00     -145.594      -66.146      -10.939       31.351       23.396       20.218      982.897      547.351      408.760        1.382        0.097      159.915       12.431        0.006      337.669        9.799      857.663
09/20/2013  06:05:00     -130.281      -88.861       -2.828       41.826       38.598       29.357     1749.433     1489.825      861.831        1.449        0.205      157.700       23.476        0.022      337.640        9.751      857.677
09/20/2013  06:06:00     -158.878      -64.313       -3.948       48.516       57.474       27.529     2353.823     3303.229      757.829        1.790        0.321      171.401       26.050        0.023      337.576        9.643      857.692
09/20/2013  06:07:00     -107.057      -13.446       -3.005       47.629       34.793       24.930     2268.481     1210.574      621.481        0.787        0.205      107.898       26.149        0.059      337.507        9.525      857.707
09/20/2013  06:08:00     -115.124      -44.646       -2.783       26.142       26.428       16.385      683.429      698.420      268.458        0.845        0.083      123.478        9.362        0.006      337.480        9.482      857.716
09/20/2013  06:09:00     -105.770      -43.933       -3.021       25.720       21.978       18.059      661.523      483.054      326.129        0.730        0.074      114.531       18.717        0.027      337.545        9.592      857.709
09/20/2013  06:10:00     -115.967      -43.246       -4.080       15.454       15.526       11.341      238.819      241.048      128.609        0.797        0.030      123.768        4.437        0.001      337.637        9.745      857.695
09/20/2013  06:11:00     -100.466      -67.166        2.044       50.261       35.569       23.832     2526.175     1265.129      567.970        0.948        0.218      120.850       27.656        0.052      337.624        9.725      857.690
09/20/2013  06:12:00     -100.237      -80.703        2.759       55.582       34.132       29.081     3089.332     1164.997      845.701        1.083        0.255      128.687       27.553        0.046      337.572        9.636      857.705
09/20/2013  06:13:00     -133.547      -79.971        2.819       46.569       33.914       23.724     2168.705     1150.159      562.839        1.406        0.194      155.661       22.746        0.021      337.618        9.714      857.721
09/20/2013  06:14:00     -124.912      -61.342       -3.648       37.154       32.531       20.252     1380.442     1058.291      410.159        1.111        0.142      139.161       17.837        0.016      337.684        9.824      857.727
09/20/2013  06:15:00      -84.422      -29.554       -5.747       29.479       26.542       18.034      868.986      704.484      325.215        0.497        0.095       89.445       13.319        0.022      337.631        9.736      857.727
09/20/2013  06:16:00     -112.081      -48.641      -10.586       22.407       23.013       17.075      502.075      529.594      291.556        0.818        0.066      122.181       12.939        0.011      337.703        9.855      857.708
09/20/2013  06:17:00     -103.305      -36.312       -8.385       24.555       20.459       15.318      602.948      418.570      234.651        0.666        0.063      109.501        8.840        0.007      337.691        9.835      857.698
09/20/2013  06:18:00      -94.173      -56.488        0.985       43.143       26.362       16.212     1861.345      694.937      262.825        0.744        0.141      109.815       19.806        0.033      337.707        9.863      857.686
09/20/2013  06:19:00      -91.290      -47.917       -1.394       22.558       13.149       16.860      508.865      172.890      284.260        0.580        0.048      103.101       14.743        0.020      337.693        9.840      857.673
09/20/2013  06:20:00      -72.832      -45.910       -0.526       27.537       23.487       16.289      758.308      551.620      265.327        0.449        0.079       86.094       13.511        0.025      337.717        9.880      857.672
09/20/2013  06:21:00      -97.139      -50.213       -7.232       20.965       12.553       11.400      439.518      157.571      129.959        0.637        0.036      109.349        2.836        0.001      337.706        9.861      857.690
09/20/2013  06:22:00      -72.032      -40.294       -8.970       25.230       18.188       16.661      636.568      330.816      277.572        0.407        0.062       82.536        8.565        0.011      337.646        9.760      857.707
09/20/2013  06:23:00      -37.334      -36.124        2.851       30.835       28.291       19.178      950.794      800.403      367.798        0.241        0.106       51.950       17.435        0.113      337.606        9.695      857.708
09/20/2013  06:24:00      -80.722      -61.726        4.012       40.793       36.380       23.954     1664.103     1323.505      573.795        0.695        0.178      101.618       24.055        0.056      337.539        9.581      857.706
09/20/2013  06:25:00      -94.993      -72.275        6.350       52.594       41.545       24.457     2766.134     1726.000      598.162        0.969        0.255      119.362       20.579        0.030      337.478        9.479      857.718
09/20/2013  06:26:00      -96.469      -77.186        3.214       34.285       39.542       21.542     1175.437     1563.547      464.070        0.924        0.160      123.548       12.250        0.010      337.521        9.552      857.717
09/20/2013  06:27:00      -87.552      -63.183       -3.254       43.477       28.803       18.063     1890.231      829.604      326.257        0.736        0.152      107.970       16.097        0.022      337.610        9.700      857.706
09/20/2013  06:28:00      -90.569      -56.214       -2.621       38.270       21.243       19.681     1464.610      451.260      387.354        0.684        0.115      106.596       21.877        0.042      337.703        9.856      857.691
09/20/2013  06:29:00      -71.245      -46.391       -3.552       20.194       21.191       15.295      407.786      449.050      233.952        0.417        0.055       85.017       10.599        0.016      337.765        9.959      857.679
09/20/2013  06:30:00      -93.574      -59.046       -3.382       27.874       18.149       18.506      776.968      329.396      342.477        0.685        0.072      110.646       11.301        0.010      337.706        9.860      857.680
09/20/2013  06:31:00     -121.178      -59.127       -0.960       27.262       22.566       19.467      743.212      509.246      378.969        0.991        0.082      134.833       16.528        0.015      337.587        9.660      857.699
09/20/2013  06:32:00     -106.194      -64.587      -10.070       44.271       24.713       26.568     1959.945      610.710      705.861        0.941        0.164      124.293       13.780        0.012      337.605        9.691      857.713
09/20/2013  06:33:00      -98.463      -65.595        2.107       67.584       38.007       28.968     4567.610     1444.533      839.163        1.043        0.343      118.311       25.178        0.045      337.618        9.713      857.716
09/20/2013  06:34:00     -145.171      -56.553      -11.524       39.168       35.672       20.350     1534.115     1272.524      414.108        1.381        0.161      155.797       23.389        0.023      337.663        9.789      857.708
09/20/2013  06:35:00     -116.127      -30.381       -4.692       31.392       29.944       15.032      985.486      896.618      225.969        0.827        0.105      120.035       10.842        0.008      337.613        9.706      857.688
09/20/2013  06:36:00     -111.432      -36.896       -1.909       27.111       25.417       16.770      735.028      646.007      281.236        0.772        0.083      117.382       12.920        0.012      337.605        9.692      857.671
09/20/2013  06:37:00      -86.431      -23.236        1.322       20.133       17.581       14.064      405.324      309.076      197.784        0.446        0.046       89.500       12.756        0.020      337.644        9.758      857.650
09/20/2013  06:38:00      -99.190      -23.803       -5.369       13.465       13.683        8.218      181.294      187.221       67.544        0.544        0.022      102.007        5.125        0.003      337.690        9.832      857.644
09/20/2013  06:39:00     -111.065      -28.670      -12.616       14.967       12.757        9.793      224.014      162.750       95.906        0.690        0.024      114.706        5.805        0.003      337.701        9.853      857.660
09/20/2013  06:40:00      -89.051      -30.729       -8.839       24.988       20.949       14.337      624.406      438.864      205.544        0.511        0.063       94.203       11.843        0.016      337.507        9.528      857.684
09/20/2013  06:41:00      -37.286      -55.733        8.908       59.803       22.941       22.703     3576.455      526.279      515.444        0.460        0.231       67.055       27.843        0.172      337.611        9.703      857.717
09/20/2013  06:42:00      -59.462      -28.806        0.266       43.886       28.249       21.382     1925.978      798.003      457.206        0.377        0.159       66.072       19.975        0.091      337.451        9.433      857.740
09/20/2013  06:43:00     -120.046      -54.203       -1.038       29.615       39.129       20.072      877.064     1531.080      402.888        1.008        0.141      131.715       14.153        0.012      337.466        9.459      857.746
09/20/2013  06:44:00     -111.277      -33.694       -2.399       28.838       29.933       17.286      831.618      895.971      298.823        0.777        0.101      116.267       14.335        0.015      337.404        9.356      857.748
09/20/2013  06:45:00     -111.707      -20.583       -0.225       38.244       29.721       21.579     1462.579      883.339      465.644        0.786        0.141      113.587       20.811        0.034      337.425        9.390      857.755
09/20/2013  06:46:00      -89.616      -17.205       -1.869       32.655       30.896       18.606     1066.377      954.550      346.196        0.535        0.118       91.253       14.793        0.026      337.412        9.369      857.737
09/20/2013  06:47:00      -48.870       -9.132        2.036       46.446       27.171       15.470     2157.193      738.289      239.331        0.280        0.157       49.716       17.274        0.121      337.446        9.426      857.717
09/20/2013  06:48:00      -12.210      -45.554       -9.113       19.064       16.622       11.055      363.426      276.287      122.219        0.153        0.038       47.162       10.036        0.045      337.696        9.844      857.737
09/20/2013  06:49:00      -41.310      -42.138       -1.225       62.921       25.533       20.561     3959.091      651.948      422.738        0.426        0.252       59.009       29.070        0.243      337.644        9.758      857.776
09/20/2013  06:50:00      -46.404      -23.582       -6.810       64.745       28.682       28.496     4191.920      822.652      812.004        0.429        0.291       52.052       34.848        0.448      337.526        9.559      857.806
09/20/2013  06:51:00      -10.737      -39.390        1.902       38.616       26.593       12.837     1491.182      707.195      164.779        0.202        0.118       40.827       12.036        0.087      337.517        9.544      857.837
09/20/2013  06:52:00        0.145      -59.200        4.647       22.124       15.072       13.678      489.450      227.150      187.082        0.221        0.045       59.200        9.499        0.026      337.679        9.816      857.852
09/20/2013  06:53:00      -12.845      -29.572       -3.971       16.764       18.547        9.419      281.048      343.990       88.712        0.088        0.036       32.241        7.747        0.058      337.838       10.084      857.836
09/20/2013  06:54:00      -65.264       -7.333       -3.957       21.511       15.707       10.875      462.731      246.707      118.272        0.258        0.041       65.675       10.044        0.023      337.826       10.062      857.809
09/20/2013  06:55:00      -81.420        5.885       -4.780       31.641       16.819       10.951     1001.129      282.873      119.917        0.405        0.070       81.632       12.674        0.024      337.779        9.985      857.798
09/20/2013  06:56:00      -86.168      -35.461       -3.868       23.042       18.165       11.620      530.912      329.976      135.024        0.485        0.050       93.179        9.442        0.010      337.654        9.775      857.802
09/20/2013  06:57:00        0.924      -61.197       -3.643       27.318       26.088       14.887      746.272      680.570      221.615        0.270        0.082       61.204       11.507        0.035      337.732        9.904      857.838
09/20/2013  06:58:00      -59.951      -52.947      -11.828       18.902       29.148        9.934      357.274      849.619       98.677        0.392        0.065       79.984       10.549        0.017      337.868       10.133      857.848
09/20/2013  06:59:00     -114.512       -3.755      -13.460       16.212       15.809       10.045      262.835      249.930      100.892        0.696        0.031      114.573        7.207        0.004      337.844       10.094      857.819
09/20/2013  07:00:00     -119.662      -33.151        1.481       49.622       31.122       23.175     2462.304      968.582      537.076        0.969        0.198      124.170       14.500        0.014      337.677        9.813      857.805
09/20/2013  07:01:00        1.688      -48.071       13.546       41.893       30.250       28.044     1755.043      915.081      786.464        0.298        0.173       48.101       26.962        0.314      337.655        9.776      857.836
09/20/2013  07:02:00      -33.259      -62.867       -2.981       15.064       12.442       10.714      226.916      154.806      114.786        0.278        0.025       71.123        8.141        0.013      337.651        9.770      857.837
09/20/2013  07:03:00      -83.982      -20.281      -16.506       26.874       12.714        8.009      722.236      161.638       64.150        0.434        0.047       86.396        9.280        0.012      337.681        9.820      857.793
09/20/2013  07:04:00     -109.680      -15.933      -15.354       29.491       20.535       14.423      869.735      421.687      208.030        0.701        0.075      110.831       15.476        0.019      337.675        9.809      857.753
09/20/2013  07:05:00      -84.617      -44.498       -2.072       39.664       24.186       17.667     1573.200      584.978      312.130        0.581        0.124       95.604       15.027        0.025      337.536        9.575      857.766
09/20/2013  07:06:00     -103.407      -56.118       -3.413       29.616       25.799       17.522      877.099      665.588      307.033        0.785        0.092      117.653       13.180        0.013      337.550        9.601      857.778
09/20/2013  07:07:00     -108.148      -13.402      -10.297       27.581       33.871       15.032      760.738     1147.219      225.956        0.706        0.107      108.975       16.587        0.023      337.517        9.543      857.755
09/20/2013  07:08:00      -90.813        3.758      -12.756       28.777       21.056       16.014      828.104      443.374      256.451        0.498        0.076       90.891        9.849        0.012      337.476        9.475      857.707
09/20/2013  07:09:00      -56.219      -19.234      -14.326       26.592       16.448       11.005      707.113      270.547      121.110        0.242        0.055       59.418        8.850        0.022      337.607        9.696      857.681
09/20/2013  07:10:00       11.742      -37.056        2.406       16.482       20.026       11.855      271.661      401.027      140.551        0.116        0.041       38.872        6.152        0.025      337.758        9.949      857.689
09/20/2013  07:11:00      -77.501      -37.096        0.362       65.237       41.163       21.367     4255.843     1694.361      456.537        0.689        0.320       85.922       26.996        0.099      337.636        9.743      857.715
09/20/2013  07:12:00     -121.168      -63.288       -6.837       33.912       39.056       21.542     1149.998     1525.338      464.049        1.094        0.157      136.700       17.782        0.017      337.545        9.592      857.720
09/20/2013  07:13:00      -52.380      -32.797       -2.688       73.942       26.692       14.934     5467.361      712.474      223.022        0.511        0.320       61.800       14.487        0.055      337.581        9.650      857.739
09/20/2013  07:14:00      -27.600      -54.453       -5.558       37.735       26.403       17.427     1423.919      697.109      303.706        0.309        0.121       61.048       14.063        0.053      337.664        9.792      857.748
09/20/2013  07:15:00     -114.463      -29.991       -4.211       24.184       28.394       16.803      584.855      806.202      282.332        0.785        0.084      118.327        9.385        0.006      337.711        9.870      857.734
09/20/2013  07:16:00     -129.474        8.759      -16.425       30.775       22.722       15.151      947.091      516.306      229.556        0.940        0.085      129.770       16.227        0.016      337.620        9.718      857.694
09/20/2013  07:17:00     -111.563      -11.953       -9.400       43.387       23.190       21.606     1882.391      537.783      466.833        0.778        0.144      112.202       22.593        0.041      337.536        9.576      857.688
09/20/2013  07:18:00      -67.177      -24.418        3.965       28.946       27.701       20.648      837.862      767.349      426.347        0.358        0.102       71.477       18.116        0.064      337.568        9.630      857.718
09/20/2013  07:19:00      -29.024      -28.095        5.969       22.816       24.181       15.592      520.591      584.743      243.099        0.151        0.067       40.394       14.185        0.123      337.707        9.862      857.735
09/20/2013  07:20:00      -85.278       18.281       -8.729       47.656       26.576       15.215     2271.141      706.299      231.486        0.545        0.160       87.215       10.007        0.013      337.770        9.968      857.719
09/20/2013  07:21:00      -89.111       14.745      -11.748       42.771       30.724       21.239     1829.350      943.974      451.086        0.576        0.161       90.322       18.442        0.042      337.783        9.991      857.713
09/20/2013  07:22:00      -71.951       -9.920      -11.304       26.359       24.639       16.518      694.776      607.084      272.841        0.349        0.079       72.632       11.666        0.026      337.843       10.089      857.726
09/20/2013  07:23:00      -41.249      -35.621       -6.817       33.558       16.161       19.541     1126.151      261.170      381.843        0.239        0.088       54.501        4.514        0.007      337.920       10.221      857.767
09/20/2013  07:24:00      -65.440      -18.626      -10.542       40.943       25.257       14.882     1676.367      637.897      221.469        0.364        0.127       68.039       10.055        0.022      337.858       10.116      857.803
09/20/2013  07:25:00      -52.595      -21.116       -3.722       19.604       22.208       13.836      384.308      493.216      191.430        0.215        0.053       56.676        9.659        0.029      337.846       10.096      857.810
09/20/2013  07:26:00      -21.595      -17.193       -4.946       16.441       17.004        8.461      270.299      289.137       71.595        0.071        0.032       27.603        6.249        0.051      337.986       10.332      857.792
09/20/2013  07:27:00      -27.127      -11.726       -1.530       12.822        9.696       12.027      164.397       94.014      144.651        0.064        0.020       29.553       10.298        0.121      338.117       10.552      857.767
09/20/2013  07:28:00        7.048        1.063       11.469        6.262        6.052        9.589       39.215       36.628       91.956        0.018        0.008        7.128        5.298        0.552      338.342       10.927      857.732
09/20/2013  07:29:00        3.564       -9.478       -1.047        6.341       17.448        4.672       40.204      304.421       21.827        0.023        0.018       10.126        4.510        0.198      338.324       10.897      857.718
09/20/2013  07:30:00       -2.428      -28.797       10.875       19.574       17.658       18.470      383.144      311.790      341.134        0.099        0.052       28.899       11.202        0.150      338.342       10.928      857.770
09/20/2013  07:31:00      -95.095     -101.278        0.832       51.183       49.650       27.992     2619.652     2465.159      783.545        1.258        0.293      138.925       31.023        0.050      338.134       10.579      857.832
09/20/2013  07:32:00      -93.362      -73.107       -2.044       38.300       60.625       27.771     1466.906     3675.414      771.214        0.999        0.296      118.579       21.976        0.034      338.177       10.651      857.857
09/20/2013  07:33:00      -61.042      -32.088        0.245       24.386       28.088       19.319      594.679      788.942      373.219        0.326        0.088       68.962       17.208        0.062      338.161       10.624      857.818
09/20/2013  07:34:00      -80.513      -31.944       -3.051       23.554       16.103       13.039      554.778      259.305      170.004        0.425        0.049       86.619       12.037        0.019      338.178       10.653      857.772
09/20/2013  07:35:00     -101.400      -37.201      -12.384       25.965       18.594       17.802      674.176      345.752      316.926        0.658        0.067      108.009        8.980        0.007      338.174       10.646      857.760
09/20/2013  07:36:00      -73.708      -39.805        0.800       33.367       19.725       12.885     1113.390      389.090      166.017        0.434        0.083       83.769       14.794        0.031      338.237       10.753      857.770
09/20/2013  07:37:00      -35.545       -8.956       -9.383       19.103       10.532        7.850      364.927      110.931       61.619        0.098        0.027       36.656        5.495        0.022      338.408       11.039      857.795
09/20/2013  07:38:00        7.710        5.881       13.040       23.180       12.802       16.134      537.316      163.888      260.294        0.061        0.048        9.697        8.933        0.849      338.603       11.366      857.815
09/20/2013  07:39:00       18.615       39.876       34.612       23.082       15.294       16.202      532.778      233.908      262.497        0.208        0.051       44.007        8.735        0.039      338.354       10.947      857.826
09/20/2013  07:40:00       83.704       60.756       35.441       29.906       15.613       25.445      894.395      243.754      647.428        0.687        0.089      103.429       19.476        0.035      338.403       11.032      857.837
09/20/2013  07:41:00       60.002       54.897       32.012       27.398       20.816       23.506      750.655      433.317      552.528        0.469        0.087       81.326       10.627        0.017      338.522       11.229      857.850
09/20/2013  07:42:00       65.825       36.383       19.906       30.564       17.802       22.398      934.131      316.915      501.685        0.390        0.088       75.211       14.966        0.040      338.576       11.322      857.859
09/20/2013  07:43:00       51.830       21.343       12.819       28.853       28.804       23.033      832.478      829.684      530.532        0.275        0.110       56.053       16.749        0.089      338.542       11.264      857.861
09/20/2013  07:44:00       16.906       10.671       24.373       18.956       17.435       14.385      359.328      303.978      206.925        0.093        0.044       19.992       10.898        0.297      338.695       11.522      857.843
09/20/2013  07:45:00       13.442       -4.164       18.873       18.565       11.901       18.418      344.648      141.646      339.205        0.069        0.041       14.072       12.632        0.806      338.819       11.729      857.817
09/20/2013  07:46:00       47.762       39.072       52.318       32.383       24.743       19.946     1048.680      612.238      397.842        0.430        0.103       61.708       12.819        0.043      338.602       11.366      857.783
09/20/2013  07:47:00       28.967       13.891       16.443       39.960       16.121       20.125     1596.787      259.890      405.020        0.178        0.113       32.125       18.124        0.318      338.632       11.416      857.767
09/20/2013  07:48:00        6.358        0.879       15.684       19.700       28.173       22.429      388.082      793.704      503.065        0.099        0.084        6.418       21.544       11.267      338.726       11.574      857.775
09/20/2013  07:49:00        7.930        7.726       21.872       11.393       15.524       12.378      129.810      241.004      153.217        0.056        0.026       11.071       10.803        0.952      338.822       11.735      857.761
09/20/2013  07:50:00       -0.522       32.200       41.511       12.874       24.167       11.414      165.738      584.025      130.282        0.182        0.044       32.204       11.282        0.123      338.989       12.015      857.736
09/20/2013  07:51:00       10.117       33.926       31.422       15.542       17.091       17.278      241.550      292.100      298.520        0.154        0.042       35.402       15.640        0.195      338.741       11.599      857.700
09/20/2013  07:52:00       20.516       20.562        4.807       18.766       18.765       13.063      352.172      352.118      170.648        0.087        0.044       29.046        8.936        0.095      338.848       11.777      857.679
09/20/2013  07:53:00       21.767        3.863        7.016       25.113       10.356       11.077      630.648      107.248      122.698        0.070        0.043       22.107        9.084        0.169      339.110       12.220      857.706
09/20/2013  07:54:00      -23.214      -14.620        1.774       32.928       23.628       13.902     1084.286      558.269      193.267        0.130        0.092       27.435       12.735        0.215      338.945       11.941      857.753
09/20/2013  07:55:00      -39.658       -4.133        5.747       19.725       17.679       15.699      389.058      312.542      246.452        0.129        0.047       39.873       16.005        0.161      338.907       11.878      857.772
09/20/2013  07:56:00      -15.743      -11.436       -1.560       23.513        8.709        7.810      552.850       75.849       60.996        0.054        0.034       19.459        9.257        0.226      338.911       11.885      857.742
09/20/2013  07:57:00       11.538        9.809        8.617        8.563       11.710       16.861       73.317      137.135      284.280        0.040        0.025       15.145        7.199        0.226      339.049       12.117      857.688
09/20/2013  07:58:00       12.494       39.984       -0.791       12.446       17.335       11.069      154.913      300.493      122.528        0.117        0.029       41.891        8.160        0.038      339.014       12.056      857.643
09/20/2013  07:59:00       12.353       23.479       -3.053       15.535       21.418       13.235      241.327      458.746      175.169        0.079        0.044       26.530       13.160        0.246      339.104       12.209      857.622
09/20/2013  08:00:00       -0.553        7.149        2.130       10.157       11.794       15.308      103.163      139.108      234.342        0.027        0.024        7.170        5.948        0.688      339.327       12.584      857.626
09/20/2013  08:01:00       -2.376       13.907       17.701       17.018       15.394       11.756      289.615      236.979      138.195        0.059        0.033       14.108        4.347        0.095      339.434       12.765      857.637
09/20/2013  08:02:00       -3.217        8.751       22.092        8.576       16.070       11.896       73.546      258.236      141.504        0.052        0.024        9.323        9.299        0.995      339.648       13.126      857.642
09/20/2013  08:03:00       -8.256       -6.731       21.845        9.006       15.564        9.137       81.116      242.237       83.489        0.050        0.020       10.652        7.382        0.480      339.681       13.181      857.644
09/20/2013  08:04:00       -6.210       16.948       38.565        8.174       20.618       13.281       66.806      425.094      176.386        0.124        0.033       18.050       13.072        0.524      339.656       13.140      857.638
09/20/2013  08:05:00       -4.067       17.212       23.922        8.444       14.174       15.107       71.298      200.914      228.209        0.069        0.025       17.686        6.442        0.133      339.634       13.104      857.614
09/20/2013  08:06:00       19.901        0.515        5.160       20.697       12.636       18.630      428.360      159.674      347.059        0.068        0.047       19.908       12.524        0.396      339.378       12.671      857.586
09/20/2013  08:07:00        0.267        0.045        9.167       18.142       10.869       11.874      329.145      118.136      141.003        0.034        0.029        0.271        7.790      825.611      339.442       12.778      857.585
09/20/2013  08:08:00      -53.211       10.279       -3.996       13.801        6.759        6.724      190.454       45.684       45.208        0.162        0.014       54.195        6.827        0.016      339.077       12.165      857.588
09/20/2013  08:09:00      -64.973        1.227       -3.397        9.718       11.643        6.852       94.434      135.563       46.953        0.226        0.014       64.985        4.880        0.006      339.109       12.219      857.574
09/20/2013  08:10:00       -8.250       17.801       21.081       20.566       11.813       15.812      422.949      139.548      250.029        0.082        0.041       19.620        6.475        0.109      339.673       13.167      857.565
09/20/2013  08:11:00       30.828       26.684        6.466       22.885       13.955       15.721      523.724      194.749      247.150        0.133        0.048       40.773        9.675        0.056      339.376       12.666      857.549
09/20/2013  08:12:00       19.042       19.857        4.708       25.358       27.737       18.167      643.032      769.317      330.057        0.126        0.087       27.512       19.843        0.520      339.606       13.055      857.526
09/20/2013  08:13:00      -12.348       23.228        3.218       15.269       23.724       15.496      233.154      562.847      240.130        0.087        0.052       26.306       15.435        0.344      339.636       13.104      857.527
09/20/2013  08:14:00      -23.565        8.012       17.579       11.753       11.313       13.280      138.131      127.992      176.361        0.069        0.022       24.890        9.038        0.132      339.791       13.366      857.540
09/20/2013  08:15:00      -30.163        1.688       10.365       16.313       17.503       16.468      266.113      306.360      271.202        0.093        0.042       30.210       14.440        0.228      339.708       13.227      857.545
09/20/2013  08:16:00      -23.896       -3.237       -8.029       20.994       11.217        9.356      440.738      125.816       87.541        0.065        0.033       24.114        8.769        0.132      339.533       12.930      857.521
09/20/2013  08:17:00      -29.483        4.950       -6.579       15.982        6.719       10.849      255.439       45.151      117.695        0.068        0.021       29.896        4.482        0.022      339.489       12.856      857.503
09/20/2013  08:18:00      -39.008        2.780       -5.393        9.737        6.446        8.169       94.817       41.553       66.737        0.088        0.010       39.107        4.164        0.011      339.379       12.673      857.480
09/20/2013  08:19:00      -38.793        3.667       -4.874       10.073        6.251        5.473      101.470       39.071       29.950        0.086        0.009       38.966        2.382        0.004      339.346       12.616      857.486
09/20/2013  08:20:00      -30.171       13.799       -8.398        6.831       10.593        5.829       46.663      112.201       33.980        0.068        0.010       33.177        4.767        0.021      339.502       12.879      857.493
09/20/2013  08:21:00      -18.111        6.241       -9.488        9.632       12.085        8.197       92.777      146.048       67.193        0.038        0.015       19.156        7.079        0.137      339.687       13.190      857.490
09/20/2013  08:22:00       -6.743       -2.504       14.126       11.337        7.715       14.434      128.529       59.515      208.354        0.032        0.020        7.193        7.854        1.192      340.315       14.251      857.481
09/20/2013  08:23:00      -11.390       10.743       12.363       11.086       18.495       15.461      122.907      342.069      239.055        0.055        0.035       15.657       12.270        0.614      340.108       13.902      857.471
09/20/2013  08:24:00      -12.067        2.993       27.042       14.492       14.550       16.416      210.009      211.708      269.474        0.079        0.035       12.433       11.466        0.851      340.283       14.198      857.460
09/20/2013  08:25:00       -2.764       -4.914       23.975       10.874       13.809       10.932      118.250      190.698      119.502        0.052        0.021        5.638       10.393        3.397      340.282       14.195      857.435
09/20/2013  08:26:00       19.262       13.847       32.995       19.919       21.411       12.827      396.747      458.442      164.519        0.134        0.051       23.723        6.866        0.084      339.863       13.488      857.413
09/20/2013  08:27:00       19.247        9.258        9.191       18.591       24.396       19.182      345.623      595.148      367.938        0.092        0.065       21.358       12.811        0.360      339.825       13.424      857.407
09/20/2013  08:28:00        6.226       -5.745       14.606       11.553       15.408        9.866      133.470      237.398       97.333        0.038        0.023        8.471        8.763        1.070      340.109       13.904      857.415
09/20/2013  08:29:00       38.989       25.353        7.790       30.067       18.867       17.675      904.033      355.966      312.419        0.190        0.079       46.507       10.670        0.053      339.873       13.504      857.418
09/20/2013  08:30:00       15.207      -12.061       12.564       32.502       21.884       14.772     1056.404      478.920      218.218        0.114        0.088       19.409       17.436        0.807      340.105       13.897      857.410
09/20/2013  08:31:00       15.724       -7.598       20.230       25.142       17.778       14.712      632.139      316.072      216.431        0.094        0.058       17.463        9.093        0.271      340.576       14.694      857.399
09/20/2013  08:32:00       10.278       -1.193       17.006       15.167       17.780       11.064      230.037      316.129      122.406        0.053        0.033       10.347        9.756        0.889      340.457       14.492      857.397
09/20/2013  08:33:00       -4.254        0.537       18.427        7.381        7.414        6.486       54.477       54.968       42.074        0.025        0.008        4.288        2.727        0.405      340.964       15.348      857.401
09/20/2013  08:34:00       -3.147        0.656       29.455        6.899        9.463        8.732       47.603       89.543       76.253        0.055        0.011        3.214        5.922        3.394      341.049       15.491      857.413
09/20/2013  08:35:00        7.747       14.516       21.432       19.693       19.299       15.331      387.816      372.459      235.028        0.086        0.050       16.454       14.105        0.735      340.300       14.225      857.438
09/20/2013  08:36:00        7.832        5.695       29.890       24.774       16.000       14.648      613.771      255.987      214.575        0.104        0.054        9.684       12.916        1.779      340.484       14.537      857.440
09/20/2013  08:37:00       30.645       11.555       15.530       21.691       27.382       19.534      470.490      749.755      381.577        0.146        0.080       32.751       17.443        0.284      340.003       13.724      857.416
09/20/2013  08:38:00       89.512       45.610       29.617       42.941       37.625       31.383     1843.969     1415.632      984.884        0.761        0.212      100.462       17.522        0.030      340.105       13.896      857.386
09/20/2013  08:39:00       19.526       61.322       75.621       32.941       33.925       20.842     1085.119     1150.935      434.384        0.626        0.134       64.356       15.242        0.056      340.376       14.353      857.377
09/20/2013  08:40:00        6.450      -12.812       38.400       22.679       44.187       29.303      514.347     1952.450      858.663        0.250        0.166       14.344       31.724        4.892      340.184       14.031      857.410
09/20/2013  08:41:00       48.915       36.633       39.902       31.016       43.400       32.345      962.011     1883.576     1046.202        0.461        0.195       61.112       17.932        0.086      340.000       13.719      857.422
09/20/2013  08:42:00        6.225       11.694       35.944       28.032       29.308       24.121      785.801      858.976      581.841        0.185        0.111       13.248       14.534        1.204      340.373       14.350      857.431
09/20/2013  08:43:00       23.107      -24.885       12.329       26.780       40.030       26.143      717.163     1602.416      683.469        0.215        0.150       33.959       23.347        0.473      339.916       13.577      857.448
09/20/2013  08:44:00        8.371      -21.060       -3.948       27.118       28.919       22.876      735.365      836.280      523.303        0.131        0.105       22.662       13.682        0.365      339.825       13.425      857.451
09/20/2013  08:45:00       31.476       50.288       45.469       30.958       33.585       28.008      958.395     1127.957      784.464        0.423        0.144       59.327       22.585        0.145      340.123       13.927      857.437
09/20/2013  08:46:00       68.322       55.757       20.143       21.539       16.354       23.744      463.918      267.439      563.762        0.474        0.065       88.186       15.095        0.029      339.969       13.667      857.412
09/20/2013  08:47:00       11.913       25.930       16.692       14.321       23.017       11.885      205.096      529.800      141.244        0.098        0.044       28.536        9.343        0.107      340.432       14.448      857.404
09/20/2013  08:48:00       -4.345      -17.846       19.384        6.810       17.034       10.767       46.378      290.152      115.934        0.058        0.023       18.368        5.256        0.082      340.597       14.729      857.400
09/20/2013  08:49:00       14.165       17.409       20.081       14.446       21.520       21.980      208.685      463.091      483.113        0.103        0.058       22.444       16.617        0.548      340.535       14.621      857.384
09/20/2013  08:50:00       34.694       12.416       20.859       31.121       25.496       30.666      968.490      650.045      940.381        0.218        0.128       36.849       24.490        0.442      340.483       14.534      857.366
09/20/2013  08:51:00       46.760      -14.676        5.282       25.534       32.023       21.860      651.988     1025.498      477.868        0.229        0.108       49.009       22.870        0.218      340.248       14.138      857.365
09/20/2013  08:52:00       21.612        7.055       32.278       26.989       18.179       23.669      728.380      330.476      560.220        0.159        0.081       22.735       10.768        0.224      340.630       14.784      857.359
09/20/2013  08:53:00       14.357       24.604       36.274       28.314       37.977       27.187      801.655     1442.268      739.126        0.255        0.149       28.486       27.720        0.947      340.359       14.325      857.339
09/20/2013  08:54:00       24.509      -16.750       15.239       28.107       30.582       26.189      790.005      935.267      685.866        0.176        0.121       29.686       18.519        0.389      340.323       14.265      857.304
09/20/2013  08:55:00       45.000       -5.272        6.460       30.895       28.375       25.687      954.501      805.126      659.817        0.226        0.121       45.308       17.598        0.151      340.255       14.150      857.259
09/20/2013  08:56:00       27.400        5.366       22.191       26.536       17.965       20.545      704.133      322.752      422.082        0.136        0.072       27.920       10.417        0.139      340.694       14.893      857.226
09/20/2013  08:57:00       21.653      -20.095        5.156       23.656       25.014       20.110      559.585      625.691      404.405        0.124        0.079       29.541       17.839        0.365      340.411       14.414      857.212
09/20/2013  08:58:00        5.017       -8.174       11.110       18.924       31.605       24.346      358.129      998.907      592.726        0.108        0.097        9.591        6.918        0.520      340.835       15.130      857.214
09/20/2013  08:59:00       18.289      -35.860        2.158       16.676       23.102       21.287      278.080      533.713      453.141        0.144        0.063       40.254       12.823        0.101      340.225       14.099      857.217
09/20/2013  09:00:00       35.232      -35.789      -14.456       33.103       29.932       18.372     1095.789      895.897      337.514        0.253        0.116       50.221       11.263        0.050      340.259       14.155      857.232
09/20/2013  09:01:00       54.795        0.373        2.548       21.839       27.131       23.374      476.940      736.111      546.364        0.238        0.088       54.797       17.854        0.106      340.573       14.687      857.235
09/20/2013  09:02:00       46.782      -21.000       10.769       41.451       37.586       23.345     1718.200     1412.741      544.982        0.321        0.184       51.280       24.847        0.235      340.556       14.658      857.243
09/20/2013  09:03:00       12.131       -7.756       28.612       28.862       16.470       26.494      832.992      271.248      701.955        0.142        0.090       14.399       15.285        1.127      341.129       15.629      857.245
09/20/2013  09:04:00        7.016       11.967       37.217       24.339       27.838       22.468      592.377      774.979      504.820        0.172        0.094       13.872       16.237        1.370      341.132       15.633      857.235
09/20/2013  09:05:00       19.388      -21.356       14.691       38.156       37.914       24.583     1455.904     1437.491      604.302        0.227        0.175       28.844       21.012        0.531      340.690       14.885      857.234
09/20/2013  09:06:00       -2.830      -29.877       14.718       25.514       25.902       29.324      650.986      670.891      859.889        0.165        0.109       30.011       17.017        0.322      340.886       15.216      857.246
09/20/2013  09:07:00       11.913      -18.901        8.000       33.667       27.409       26.025     1133.448      751.257      677.315        0.156        0.128       22.342       22.485        1.013      341.240       15.816      857.262
09/20/2013  09:08:00      -18.983      -18.593       15.947       21.456       28.371       22.263      460.357      804.930      495.636        0.136        0.088       26.571       18.835        0.502      341.165       15.688      857.264
09/20/2013  09:09:00      -11.509      -19.850       27.169       20.186       37.877       25.564      407.492     1434.632      653.524        0.188        0.125       22.945       20.233        0.778      341.292       15.905      857.245
09/20/2013  09:10:00        2.961       26.826       41.265       26.587       28.242       26.033      706.871      797.587      677.707        0.231        0.109       26.989       10.225        0.144      341.619       16.459      857.228
09/20/2013  09:11:00       -2.248       39.989       50.867       31.014       30.436       24.046      961.843      926.348      578.186        0.333        0.123       40.053       20.976        0.274      341.176       15.709      857.200
09/20/2013  09:12:00       18.856       10.584       42.725       37.634       32.036       28.535     1416.302     1026.323      814.233        0.277        0.163       21.623       30.268        1.959      341.584       16.397      857.173
09/20/2013  09:13:00        2.847       24.382       41.452       24.265       29.484       22.956      588.779      869.279      526.956        0.215        0.099       24.547       12.727        0.269      341.453       16.176      857.161
09/20/2013  09:14:00       23.910       13.027       -5.607       16.364       23.510       30.406      267.773      552.705      924.535        0.126        0.087       27.229       19.580        0.517      341.069       15.526      857.146
09/20/2013  09:15:00       17.193       12.234        2.961       22.376       21.384       23.039      500.689      457.271      530.809        0.097        0.074       21.101       18.130        0.738      341.187       15.725      857.153
09/20/2013  09:16:00       25.336        4.218        3.995       18.758       21.314       21.576      351.880      454.271      465.518        0.097        0.064       25.685        8.199        0.102      340.984       15.382      857.159
09/20/2013  09:17:00       57.334        1.363       12.817       32.009       15.888       27.607     1024.562      252.434      762.164        0.275        0.102       57.350       14.004        0.060      341.090       15.562      857.161
09/20/2013  09:18:00       30.338       16.409       -7.979       22.237       24.307       20.525      494.493      590.842      421.283        0.138        0.075       34.492       14.287        0.172      341.038       15.473      857.142
09/20/2013  09:19:00       15.368       13.095       35.186       31.036       37.449       33.969      963.246     1402.402     1153.879        0.258        0.176       20.190       32.660        2.617      341.533       16.312      857.133
09/20/2013  09:20:00       18.589        4.356        5.883       23.955       26.072       23.031      573.831      679.748      530.448        0.109        0.089       19.093        6.855        0.129      341.005       15.418      857.133
09/20/2013  09:21:00        2.101        7.848        8.218       25.595       16.325       22.424      655.081      266.511      502.833        0.078        0.071        8.124        7.963        0.961      341.711       16.615      857.126
09/20/2013  09:22:00      -32.014       -4.213        3.906       24.200       29.942       20.465      585.639      896.531      418.822        0.148        0.095       32.290       13.455        0.174      341.308       15.932      857.133
09/20/2013  09:23:00      -27.909       12.170       15.071       29.121       21.373       17.113      848.047      456.819      292.871        0.138        0.080       30.447       18.895        0.385      341.761       16.699      857.150
09/20/2013  09:24:00      -41.769        7.754       -0.732       19.086        8.406        9.677      364.282       70.657       93.638        0.117        0.026       42.483        8.638        0.041      341.311       15.936      857.140
09/20/2013  09:25:00      -18.638       12.947       12.240       23.540       17.645       19.835      554.145      311.339      393.418        0.096        0.063       22.693       10.610        0.219      342.107       17.285      857.115
09/20/2013  09:26:00      -44.135      -18.274        0.226       32.150       28.669       15.109     1033.614      821.912      228.285        0.218        0.104       47.768       13.043        0.075      341.630       16.476      857.070
09/20/2013  09:27:00      -20.130       -7.806        7.593       16.912       10.261       11.262      286.013      105.278      126.839        0.052        0.026       21.591       10.554        0.239      341.673       16.548      857.035
09/20/2013  09:28:00       22.348       17.981       16.120       20.545       20.735       17.740      422.112      429.949      314.698        0.112        0.058       28.684       12.900        0.202      342.036       17.165      857.007
09/20/2013  09:29:00       45.739       -6.680       18.154       35.505       29.037       21.361     1260.571      843.134      456.275        0.251        0.128       46.224       17.032        0.136      341.410       16.103      856.990
09/20/2013  09:30:00       28.285      -13.670       11.725       28.762       24.915       21.913      827.232      620.782      480.171        0.153        0.096       31.415       17.366        0.306      341.742       16.667      856.984
09/20/2013  09:31:00       15.472       -5.433        7.497       16.788       19.681       21.176      281.834      387.342      448.435        0.072        0.056       16.398       10.634        0.421      341.869       16.881      857.007
09/20/2013  09:32:00       30.375        0.089        5.982       15.710       15.524       20.944      246.808      241.007      438.630        0.094        0.046       30.375       10.037        0.109      341.588       16.405      857.027
09/20/2013  09:33:00       14.053       12.981       22.850       16.013       15.423       18.140      256.404      237.882      329.068        0.086        0.041       19.131       10.742        0.315      342.163       17.382      857.010
09/20/2013  09:34:00       54.165       -7.464        2.939       21.495       34.324       24.241      462.043     1178.119      587.648        0.261        0.111       54.677       19.325        0.125      341.367       16.030      856.970
09/20/2013  09:35:00       24.542       -3.189        9.555       16.220       10.234       12.738      263.104      104.735      162.251        0.062        0.027       24.749        6.249        0.064      341.838       16.831      856.945
09/20/2013  09:36:00      -13.629       -9.906       27.588       14.623       23.123       17.739      213.843      534.668      314.659        0.105        0.053       16.849       11.572        0.472      342.367       17.727      856.915
09/20/2013  09:37:00      -28.615      -10.864        0.101       18.231       15.038       14.456      332.375      226.128      208.979        0.085        0.038       30.608       13.789        0.203      341.907       16.946      856.879
09/20/2013  09:38:00       27.486       -1.200        4.379       46.590       19.580       31.629     2170.612      383.369     1000.380        0.216        0.178       27.512        9.760        0.126      341.902       16.939      856.840
09/20/2013  09:39:00       35.257      -24.118       16.186       42.033       39.121       32.439     1766.747     1530.442     1052.279        0.322        0.217       42.717       29.770        0.486      342.020       17.139      856.822
09/20/2013  09:40:00       18.907      -14.665        9.716       30.816       19.130       20.385      949.639      365.945      415.553        0.120        0.087       23.927       10.892        0.207      342.118       17.305      856.834
09/20/2013  09:41:00       20.054      -41.416        4.000       42.605       35.513       36.317     1815.213     1261.203     1318.919        0.326        0.220       46.016       34.520        0.563      341.646       16.503      856.844
09/20/2013  09:42:00       61.845      -24.112       -9.320       20.801       32.577       21.588      432.664     1061.275      466.027        0.323        0.098       66.379        7.142        0.012      341.701       16.597      856.864
09/20/2013  09:43:00       15.162       -5.354       -6.670       23.042        9.709       12.891      530.939       94.268      166.171        0.055        0.040       16.080       10.712        0.444      342.284       17.586      856.874
09/20/2013  09:44:00      -17.729        2.161        0.541       10.906       11.324       13.923      118.942      128.223      193.840        0.038        0.022       17.860        8.713        0.238      342.284       17.587      856.877
09/20/2013  09:45:00        8.117       17.426        1.726       23.068       26.382       19.019      532.132      696.003      361.718        0.098        0.079       19.224       13.452        0.490      342.589       18.105      856.873
09/20/2013  09:46:00       -2.198       11.073       10.566       13.707       24.165       17.253      187.891      583.939      297.664        0.065        0.053       11.289       17.065        2.285      342.808       18.477      856.860
09/20/2013  09:47:00        4.155      -28.810       35.037       15.766       29.745       15.620      248.557      884.737      243.982        0.173        0.069       29.108        4.991        0.029      342.730       18.345      856.831
09/20/2013  09:48:00       -1.993        8.780       39.588       24.557       27.279       24.155      603.060      744.138      583.441        0.179        0.097        9.003       17.352        3.715      343.069       18.921      856.848
09/20/2013  09:49:00      -23.674      -17.467       10.989       23.732       15.185       19.868      563.222      230.586      394.754        0.109        0.059       29.420       16.220        0.304      342.452       17.870      856.856
09/20/2013  09:50:00      -15.159        3.609        2.549       27.186       13.128       18.857      739.073      172.345      355.581        0.076        0.063       15.583       19.463        1.560      342.500       17.953      856.825
09/20/2013  09:51:00       60.686       -1.452        8.491       33.523       32.344       29.322     1123.780     1046.166      859.762        0.339        0.151       60.703       23.049        0.144      342.470       17.904      856.783
09/20/2013  09:52:00       29.750      -41.626        7.425       26.687       33.084       27.981      712.206     1094.526      782.944        0.263        0.129       51.164       16.292        0.101      342.341       17.683      856.777
09/20/2013  09:53:00       38.117       -2.397       29.542       35.649       26.491       27.926     1270.833      701.750      779.835        0.254        0.138       38.192       20.815        0.297      342.605       18.132      856.770
09/20/2013  09:54:00       63.152      -42.102       -9.367       32.674       35.060       33.663     1067.605     1229.172     1133.229        0.464        0.172       75.900       20.100        0.070      341.933       16.989      856.774
09/20/2013  09:55:00       39.425       12.209       20.930       37.686       50.079       38.531     1420.200     2507.951     1484.616        0.378        0.271       41.272       35.342        0.733      342.355       17.708      856.779
09/20/2013  09:56:00       20.307      -19.143        1.067       29.126       22.145       20.092      848.347      490.397      403.675        0.126        0.087       27.908        9.034        0.105      342.351       17.700      856.782
09/20/2013  09:57:00       24.623      -29.054       23.485       36.908       34.761       28.945     1362.197     1208.304      837.802        0.270        0.170       38.084       28.553        0.562      342.817       18.492      856.783
09/20/2013  09:58:00       19.116      -10.830       25.916       35.686       36.652       30.794     1273.505     1343.385      948.293        0.236        0.178       21.971       24.733        1.267      342.684       18.266      856.763
09/20/2013  09:59:00       51.755        2.966       18.528       37.951       35.320       31.166     1440.309     1247.530      971.323        0.334        0.183       51.840       21.529        0.172      342.568       18.068      856.738
09/20/2013  10:00:00      104.013       79.192       29.945       36.508       34.571       29.450     1332.806     1195.178      867.313        1.069        0.170      130.728       11.446        0.008      342.555       18.046      856.723
09/20/2013  10:01:00       70.741       54.607       20.778       29.731       24.855       24.985      883.918      617.747      624.239        0.527        0.106       89.365       20.516        0.053      342.595       18.114      856.731
09/20/2013  10:02:00        8.055      -18.730       11.561       20.922       29.625       16.976      437.745      877.626      288.181        0.108        0.080       20.389        8.184        0.161      342.951       18.722      856.769
09/20/2013  10:03:00       22.639      -16.337       16.169       38.301       31.461       34.225     1466.943      989.800     1171.357        0.233        0.181       27.918       31.740        1.293      343.169       19.092      856.778
09/20/2013  10:04:00       -2.945       19.827       52.707       24.373       51.082       30.160      594.059     2609.407      909.653        0.365        0.206       20.044       33.883        2.857      343.304       19.323      856.766
09/20/2013  10:05:00       28.896       18.482       33.154       31.494       30.257       23.650      991.901      915.513      559.326        0.237        0.123       34.301       21.949        0.409      342.885       18.608      856.759
09/20/2013  10:06:00       30.151       36.282       14.629       29.196       20.674       28.725      852.411      427.430      825.119        0.227        0.105       47.175       13.681        0.084      342.861       18.566      856.749
09/20/2013  10:07:00       19.971       19.663       35.692       42.192       39.416       29.859     1780.158     1553.648      891.587        0.314        0.211       28.026       26.533        0.896      343.096       18.967      856.729
09/20/2013  10:08:00       19.573       -1.301       14.008       27.978       56.009       31.350      782.741     3137.018      982.853        0.274        0.245       19.616       26.953        1.888      343.161       19.079      856.739
09/20/2013  10:09:00       41.405       32.190        7.891       42.616       30.062       28.893     1816.136      903.707      834.778        0.318        0.178       52.446       12.735        0.059      343.192       19.131      856.716
09/20/2013  10:10:00       25.324       14.808       37.195       39.265       38.022       26.832     1541.702     1445.643      719.959        0.297        0.185       29.336       17.559        0.358      343.440       19.553      856.716
09/20/2013  10:11:00       21.773      -29.793       19.531       30.940       31.593       26.429      957.289      998.121      698.502        0.220        0.133       36.901       22.266        0.364      342.692       18.280      856.739
09/20/2013  10:12:00       38.045        2.606       18.502       25.478       25.821       24.462      649.134      666.712      598.406        0.186        0.096       38.134       20.847        0.299      342.771       18.414      856.741
09/20/2013  10:13:00        6.236        7.485       25.560       42.204       23.689       19.613     1781.177      561.158      384.677        0.174        0.136        9.742       14.424        2.192      342.904       18.641      856.729
09/20/2013  10:14:00      -52.783      -27.291       -1.224       41.530       35.161       13.107     1724.703     1236.283      171.799        0.333        0.157       59.421       10.941        0.034      342.921       18.670      856.715
09/20/2013  10:15:00      -12.804      -14.538        5.590       14.890       16.468       15.978      221.724      271.204      255.307        0.058        0.037       19.373        8.177        0.178      343.334       19.372      856.691
09/20/2013  10:16:00        5.305      -24.424       -2.195       13.990       20.862       19.251      195.719      435.203      370.605        0.082        0.050       24.993       13.236        0.280      342.937       18.696      856.678
09/20/2013  10:17:00       21.776        0.403       -7.256       32.238       38.287       33.744     1039.286     1465.904     1138.652        0.208        0.182       21.780       27.403        1.583      343.015       18.828      856.644
09/20/2013  10:18:00      -48.464        1.952        1.956       30.903       36.366       32.126      955.022     1322.455     1032.057        0.283        0.165       48.503       22.940        0.224      343.064       18.913      856.614
09/20/2013  10:19:00       49.409       30.452       47.074       51.274       59.531       37.677     2628.984     3543.896     1419.562        0.659        0.380       58.039       13.085        0.051      343.463       19.591      856.582
09/20/2013  10:20:00       47.524       64.229       11.188       40.870       33.665       30.346     1670.391     1133.320      920.862        0.512        0.186       79.900       20.207        0.064      343.116       19.002      856.542
09/20/2013  10:21:00       42.109       34.788       -4.265       25.706       20.573       30.428      660.786      423.244      925.889        0.251        0.100       54.620       23.032        0.178      343.180       19.110      856.525
09/20/2013  10:22:00       -5.598       -5.943        0.962       18.687       17.339       15.248      349.206      300.625      232.503        0.047        0.044        8.164        7.568        0.859      343.513       19.676      856.535
09/20/2013  10:23:00      -28.314      -19.059       -0.826       28.779       15.229       13.357      828.221      231.915      178.407        0.120        0.062       34.132        8.948        0.069      343.319       19.347      856.565
09/20/2013  10:24:00     -106.626      -12.352      -11.702       23.152       27.428       17.558      536.031      752.286      308.279        0.663        0.080      107.339       15.047        0.020      343.040       18.870      856.592
09/20/2013  10:25:00     -113.914       -2.512      -12.195       23.614       21.734       15.872      557.628      472.348      251.928        0.721        0.064      113.942        8.180        0.005      343.074       18.928      856.586
09/20/2013  10:26:00      -64.700      -24.689      -11.264       18.150       19.929       15.114      329.429      397.177      228.435        0.294        0.048       69.250        9.429        0.019      343.164       19.084      856.584
09/20/2013  10:27:00      -12.765      -12.819        6.419       21.847       19.694       19.437      477.277      387.855      377.794        0.081        0.062       18.090       12.874        0.506      343.626       19.871      856.568
09/20/2013  10:28:00       -2.759       -1.797       38.750        8.705       21.238       16.845       75.769      451.072      283.737        0.116        0.041        3.292       13.381       16.520      344.050       20.593      856.546
09/20/2013  10:29:00       20.128       19.231       39.575       30.191       27.151       24.087      911.524      737.181      580.196        0.228        0.111       27.838       23.678        0.723      343.869       20.285      856.530
09/20/2013  10:30:00       15.061      -51.468       14.100       27.790       26.487       18.308      772.284      701.545      335.195        0.244        0.090       53.627       14.286        0.071      343.490       19.639      856.542
09/20/2013  10:31:00      -10.437       -1.483       31.490       31.750       38.065       23.908     1008.076     1448.932      571.595        0.207        0.151       10.542       24.269        5.300      344.180       20.817      856.530
09/20/2013  10:32:00      -39.226      -24.846        6.891       26.186       22.168       18.238      685.714      491.439      332.610        0.186        0.075       46.433       16.712        0.130      343.630       19.879      856.521
09/20/2013  10:33:00       16.664      -46.690        4.177       21.424       23.210       19.042      458.986      538.697      362.615        0.192        0.068       49.575        6.955        0.020      343.540       19.723      856.533
09/20/2013  10:34:00       -3.765       -3.532       13.727       18.853       23.980       21.849      355.437      575.057      477.358        0.081        0.070        5.162       18.393       12.695      344.180       20.818      856.522
09/20/2013  10:35:00      -24.907       19.553      -13.806       32.281       31.771       21.025     1042.042     1009.421      442.063        0.184        0.125       31.665       15.913        0.253      343.844       20.243      856.498
09/20/2013  10:36:00        9.494       53.428       24.533       26.221       35.891       32.113      687.544     1288.149     1031.273        0.328        0.150       54.265       26.954        0.247      344.116       20.706      856.449
09/20/2013  10:37:00       32.561       24.299       16.246       42.197       25.358       21.652     1780.569      643.021      468.830        0.240        0.145       40.628       24.783        0.372      343.906       20.350      856.383
09/20/2013  10:38:00       -2.419       42.584        9.091       28.286       50.335       25.945      800.109     2533.594      673.137        0.295        0.200       42.652       22.937        0.289      344.000       20.509      856.355
09/20/2013  10:39:00        2.156       38.073       14.938       18.533       32.976       25.253      343.473     1087.438      637.725        0.187        0.103       38.134       24.710        0.420      344.460       21.295      856.337
09/20/2013  10:40:00      -36.085       -6.665        4.300       27.776       24.409       24.793      771.499      595.779      614.712        0.167        0.099       36.695       20.147        0.301      343.968       20.453      856.333
09/20/2013  10:41:00      -17.931      -33.240       -1.357       25.374       35.505       19.740      643.818     1260.576      389.657        0.186        0.115       37.768       20.356        0.291      343.902       20.342      856.320
09/20/2013  10:42:00      -30.203       33.603        3.674       31.480       31.372       26.000      991.012      984.222      676.008        0.235        0.133       45.182       30.383        0.452      344.359       21.124      856.300
09/20/2013  10:43:00        1.975       44.947       17.587       30.613       29.874       29.082      937.174      892.440      845.765        0.250        0.134       44.990       15.960        0.126      344.500       21.364      856.300
09/20/2013  10:44:00       11.596      -15.867       -8.975       15.150       14.676       14.795      229.510      215.396      218.877        0.057        0.033       19.652       10.352        0.277      343.872       20.290      856.301
09/20/2013  10:45:00        3.278       17.749       32.584       21.271       19.536       18.627      452.457      381.670      346.958        0.128        0.059       18.049       13.474        0.557      344.269       20.968      856.296
09/20/2013  10:46:00       21.310        4.332        5.107       20.803       20.351       17.028      432.750      414.171      289.949        0.082        0.057       21.746        9.950        0.209      343.920       20.374      856.296
09/20/2013  10:47:00       26.899       10.461       25.369       33.563       24.825       19.296     1126.453      616.277      372.327        0.180        0.106       28.861       17.258        0.358      344.440       21.261      856.268
09/20/2013  10:48:00       48.313       42.005       12.356       29.600       28.770       22.212      876.182      827.724      493.375        0.322        0.110       64.020       19.007        0.088      344.209       20.865      856.273
09/20/2013  10:49:00       -5.438      -19.507       -0.687       22.216       20.999       15.570      493.529      440.944      242.419        0.079        0.059       20.251       12.860        0.403      344.333       21.079      856.285
09/20/2013  10:50:00       -2.578        9.801       36.828       18.571       16.191       12.267      344.871      262.153      150.486        0.111        0.038       10.135        8.113        0.641      344.862       21.981      856.272
09/20/2013  10:51:00       48.085       35.958        1.569       20.186       21.101       20.966      407.491      445.269      439.553        0.245        0.065       60.043       15.466        0.066      343.697       19.992      856.256
09/20/2013  10:52:00       -2.281       39.189        5.103       32.795       28.791       27.966     1075.512      828.902      782.112        0.213        0.134       39.255        5.541        0.020      344.337       21.083      856.260
09/20/2013  10:53:00       59.085       11.757        0.697       31.627       26.762       32.552     1000.262      716.226     1059.624        0.320        0.139       60.244       17.968        0.089      343.637       19.889      856.263
09/20/2013  10:54:00       53.751       33.894       20.338       30.026       45.536       45.763      901.566     2073.518     2094.295        0.476        0.253       63.546       22.306        0.123      344.069       20.627      856.253
09/20/2013  10:55:00       36.786       17.648       22.947       53.073       28.124       30.516     2816.752      790.952      931.241        0.336        0.227       40.801        8.587        0.044      344.513       21.386      856.214
09/20/2013  10:56:00        0.245       24.718       24.817       26.220       31.903       23.593      687.481     1017.820      556.629        0.174        0.113       24.719       18.327        0.550      345.312       22.753      856.190
09/20/2013  10:57:00       -7.523       36.428       22.243       21.592       34.665       19.176      466.204     1201.667      367.729        0.196        0.102       37.196       19.055        0.262      345.063       22.327      856.185
09/20/2013  10:58:00      -11.041        3.195       35.022       17.457       16.901       15.904      304.740      285.635      252.925        0.110        0.042       11.494       11.213        0.952      345.575       23.203      856.174
09/20/2013  10:59:00      -53.725      -44.141      -10.666       26.890       25.831       19.932      723.051      667.254      397.276        0.337        0.089       69.533        7.388        0.011      344.380       21.157      856.167
09/20/2013  11:00:00      -14.786      -20.833        7.089       15.561       22.860       15.496      242.158      522.582      240.141        0.085        0.050       25.547       10.530        0.170      344.689       21.687      856.140
09/20/2013  11:01:00      -28.317      -51.208       17.176       28.239       38.699       17.901      797.417     1497.586      320.448        0.317        0.131       58.516       13.377        0.052      344.618       21.565      856.107
09/20/2013  11:02:00        9.793      -50.117       -9.906       32.294       31.881       23.344     1042.919     1016.428      544.934        0.265        0.130       51.065       21.362        0.175      344.146       20.757      856.078
09/20/2013  11:03:00       49.640       -7.405       -6.078       38.926       25.739       22.028     1515.228      662.499      485.232        0.261        0.133       50.189       15.642        0.097      344.186       20.827      856.035
09/20/2013  11:04:00       10.562       95.586      -13.298       45.494       52.310       29.393     2069.723     2736.308      863.940        0.755        0.283       96.168       26.504        0.076      344.591       21.518      856.003
09/20/2013  11:05:00       71.682       62.449       14.822       61.972       31.673       30.267     3840.527     1003.188      916.095        0.751        0.288       95.069       22.123        0.054      344.752       21.796      855.983
09/20/2013  11:06:00       11.838      -10.866       16.834       29.520       44.944       28.274      871.404     2019.986      799.401        0.212        0.185       16.069       17.048        1.126      344.771       21.828      856.013
09/20/2013  11:07:00       -8.969       60.494       16.320       26.881       48.311       30.329      722.613     2333.965      919.824        0.399        0.199       61.155       32.257        0.278      345.010       22.235      856.005
09/20/2013  11:08:00      -39.414      144.158        7.620       49.748       76.762       39.295     2474.910     5892.364     1544.124        1.615        0.496      149.449       39.139        0.069      345.031       22.270      855.952
09/20/2013  11:09:00        6.803      155.921      -12.586       28.530       61.153       27.787      813.974     3739.654      772.097        1.492        0.266      156.069       29.659        0.036      344.699       21.702      855.924
09/20/2013  11:10:00       48.006       98.837        2.995       55.171       58.559       36.485     3043.862     3429.189     1331.149        0.994        0.390      109.879       37.406        0.116      344.978       22.182      855.891
09/20/2013  11:11:00       62.537       41.725       17.692       25.060       26.289       19.190      628.024      691.132      368.253        0.383        0.084       75.179       17.242        0.053      344.807       21.889      855.874
09/20/2013  11:12:00       76.574       64.727      -14.537       33.876       47.144       34.819     1147.550     2222.536     1212.334        0.742        0.229      100.266       27.776        0.077      344.727       21.752      855.846
09/20/2013  11:13:00       21.745       -6.813        9.723       31.571       29.676       29.002      996.698      880.648      841.113        0.167        0.136       22.788       23.337        1.049      345.028       22.266      855.863
09/20/2013  11:14:00        5.721      -36.330       -7.360       25.811       31.610       24.695      666.216      999.164      609.847        0.184        0.114       36.778       11.164        0.092      344.729       21.757      855.898
09/20/2013  11:15:00       78.079       33.792       34.395       26.799       30.527       32.325      718.190      931.908     1044.927        0.556        0.135       85.078       19.699        0.054      344.641       21.604      855.886
09/20/2013  11:16:00       40.912      -19.467        7.672       39.150       26.536       29.034     1532.744      704.184      842.947        0.260        0.154       45.308       10.814        0.057      344.316       21.049      855.863
09/20/2013  11:17:00        9.599       16.651       -8.999       24.652       31.712       14.936      607.716     1005.668      223.093        0.114        0.092       19.220       12.819        0.445      344.997       22.212      855.855
09/20/2013  11:18:00       48.622       81.523       -2.450       30.157       55.128       30.526      909.423     3039.117      931.865        0.695        0.244       94.922       30.838        0.106      345.115       22.415      855.832
09/20/2013  11:19:00       33.324       67.762       17.344       41.500       56.578       39.326     1722.234     3201.026     1546.566        0.624        0.323       75.512       38.931        0.266      345.549       23.158      855.800
09/20/2013  11:20:00       33.253      101.805       -7.134       32.841       44.662       30.271     1078.543     1994.656      916.331        0.775        0.199      107.098       25.255        0.056      345.306       22.742      855.791
09/20/2013  11:21:00       60.802       60.469        3.191       37.062       36.555       36.197     1373.595     1336.269     1310.240        0.569        0.201       85.752       25.706        0.090      345.350       22.817      855.794
09/20/2013  11:22:00        9.782      113.008       -9.808       36.639       50.212       28.114     1342.449     2521.198      790.370        0.881        0.233      113.431       24.023        0.045      345.180       22.528      855.794
09/20/2013  11:23:00       35.082       76.079       13.095       60.499       43.349       41.380     3660.138     1879.142     1712.288        0.722        0.363       83.778       34.555        0.170      345.377       22.865      855.769
09/20/2013  11:24:00       23.039       62.538       18.070       37.796       53.452       37.909     1428.560     2857.082     1437.097        0.524        0.286       66.647       34.029        0.261      345.781       23.558      855.749
09/20/2013  11:25:00       21.917       95.549       -4.689       40.194       53.394       35.474     1615.565     2850.973     1258.386        0.768        0.286       98.031       36.856        0.141      345.444       22.979      855.738
09/20/2013  11:26:00      -10.598       59.348       15.866       26.510       48.030       26.890      702.786     2306.863      723.051        0.381        0.187       60.287       28.289        0.220      345.899       23.761      855.743
09/20/2013  11:27:00       13.504       50.438        3.252       26.663       33.974       35.222      710.919     1154.221     1240.593        0.292        0.155       52.214       29.666        0.323      345.796       23.584      855.724
09/20/2013  11:28:00      -27.269       30.011       15.754       27.824       27.470       20.563      774.152      754.595      422.831        0.192        0.098       40.549       13.743        0.115      346.014       23.957      855.694
09/20/2013  11:29:00      -64.671       31.239      -12.140       36.879       48.033       24.981     1360.068     2307.137      624.071        0.480        0.215       71.821       31.885        0.197      345.613       23.269      855.676
09/20/2013  11:30:00      -16.189        5.404      -14.652       22.654       25.348       23.584      513.202      642.531      556.221        0.111        0.086       17.067       11.681        0.468      345.737       23.483      855.681
09/20/2013  11:31:00       16.976      -20.525      -14.650       22.066       32.280       17.398      486.928     1042.003      302.673        0.138        0.092       26.636       13.337        0.251      345.384       22.875      855.684
09/20/2013  11:32:00      -68.070      -82.037      -17.925       28.417       24.406       22.210      807.546      595.671      493.297        0.679        0.095      106.601       17.382        0.027      345.321       22.767      855.679
09/20/2013  11:33:00      -22.755      -86.885        2.548       29.594       30.700       20.721      875.828      942.485      429.355        0.516        0.112       89.816       11.406        0.016      345.434       22.962      855.688
09/20/2013  11:34:00      -17.329       -6.519       11.930       18.355       23.333       18.912      336.921      544.444      357.652        0.086        0.062       18.515       17.843        0.929      346.024       23.974      855.673
09/20/2013  11:35:00      -14.743      -18.452       13.185       53.832       45.877       30.576     2897.933     2104.696      934.921        0.333        0.297       23.618       17.151        0.527      345.918       23.792      855.666
09/20/2013  11:36:00       21.211      -42.648       -1.897       45.064       59.864       25.665     2030.806     3583.702      658.675        0.427        0.314       47.632       33.167        0.485      345.750       23.504      855.628
09/20/2013  11:37:00      -36.917        9.658        6.215       31.097       14.848       20.603      966.999      220.467      424.467        0.155        0.081       38.160        9.866        0.067      345.671       23.367      855.593
09/20/2013  11:38:00      -19.208       25.222        4.523       37.168       17.764       24.964     1381.466      315.554      623.199        0.167        0.116       31.703       14.330        0.204      345.675       23.376      855.562
09/20/2013  11:39:00       21.849       27.242       42.264       29.276       35.016       29.579      857.107     1226.117      874.947        0.298        0.148       34.921       17.778        0.259      345.883       23.733      855.534
09/20/2013  11:40:00       42.541      -92.304       -0.923       70.240       73.976       37.383     4933.713     5472.481     1397.479        1.106        0.590      101.636       45.100        0.197      346.043       24.006      855.516
09/20/2013  11:41:00       91.428     -142.413       -5.269       85.521       92.100       58.384     7313.849     8482.357     3408.748        2.393        0.960      169.235       61.089        0.130      345.932       23.814      855.534
09/20/2013  11:42:00       22.156        0.088       69.288       49.678       67.599       56.913     2467.949     4569.677     3239.127        0.778        0.514       22.156       49.841        5.060      346.261       24.383      855.515
09/20/2013  11:43:00       13.551       36.656       25.663       39.448       31.758       33.816     1556.111     1008.553     1143.530        0.295        0.185       39.080       22.455        0.330      345.896       23.755      855.474
09/20/2013  11:44:00       57.472      -13.524        8.048       33.412       38.980       32.655     1116.329     1519.450     1066.333        0.363        0.185       59.042       26.036        0.194      345.423       22.944      855.446
09/20/2013  11:45:00        4.142      -41.018        5.064       34.886       36.133       30.013     1217.059     1305.567      900.765        0.257        0.171       41.226       16.659        0.163      345.297       22.728      855.451
09/20/2013  11:46:00       78.558     -149.799       -2.014       81.699      124.451       70.357     6674.747    15488.167     4950.139        2.786        1.356      169.149       62.608        0.137      346.066       24.045      855.444
09/20/2013  11:47:00       87.050     -137.972        0.951       63.896       82.650       50.103     4082.710     6830.983     2510.355        2.002        0.671      163.138       47.227        0.084      346.016       23.957      855.455
09/20/2013  11:48:00       81.705     -118.317        3.012       72.056       79.316       49.039     5192.076     6291.026     2404.854        1.728        0.694      143.787       49.393        0.118      345.996       23.925      855.428
09/20/2013  11:49:00       16.572       21.599       53.992       41.874       59.159       37.187     1753.407     3499.768     1382.898        0.514        0.332       27.224       32.786        1.450      346.255       24.372      855.405
09/20/2013  11:50:00       87.235      -95.351       14.115       63.929      100.090       52.978     4086.901    10018.008     2806.648        1.690        0.846      129.235       59.535        0.212      346.232       24.331      855.362
09/20/2013  11:51:00       26.796      -35.921       26.554       98.743       75.107       65.500     9750.200     5641.133     4290.282        1.119        0.984       44.815       58.442        1.701      346.606       24.974      855.319
09/20/2013  11:52:00      -13.879       14.812       -9.883       30.901       31.800       25.448      954.873     1011.214      647.584        0.156        0.131       20.298       14.640        0.520      346.807       25.322      855.280
09/20/2013  11:53:00      -67.547     -102.058      -10.231       59.003       81.563       33.661     3481.314     6652.466     1133.029        1.317        0.563      122.386       26.165        0.046      346.431       24.673      855.279
09/20/2013  11:54:00     -154.513      -57.459       -9.928       90.621       80.419       39.064     8212.101     6467.175     1525.967        2.174        0.810      164.851       47.621        0.083      346.335       24.506      855.242
09/20/2013  11:55:00      -44.404      -78.694        9.640       89.719       73.067       53.156     8049.484     5338.767     2825.540        1.223        0.811       90.358       54.672        0.366      346.620       24.998      855.227
09/20/2013  11:56:00      -73.910      -49.401       16.833       61.687       64.616       29.089     3805.302     4175.248      846.172        0.850        0.441       88.900       37.369        0.177      346.728       25.185      855.216
09/20/2013  11:57:00      -38.270      -99.915      -16.739       65.274       53.070       37.356     4260.681     2816.477     1395.493        1.010        0.424      106.993       14.210        0.018      346.605       24.972      855.219
09/20/2013  11:58:00      -68.552      -35.442        2.080       45.597       45.215       29.611     2079.054     2044.367      876.801        0.548        0.250       77.171       25.069        0.106      346.768       25.253      855.233
09/20/2013  11:59:00      -68.454      -99.024       -3.178       82.365       63.777       39.676     6784.075     4067.443     1574.191        1.346        0.621      120.381       34.623        0.083      346.894       25.469      855.221
09/20/2013  12:00:00       15.427     -121.418      -15.158       73.873       64.323       44.844     5457.282     4137.461     2010.981        1.341        0.580      122.394       15.688        0.016      346.796       25.301      855.210
09/20/2013  12:01:00      -24.602     -102.108       -0.823       85.075       55.208       37.161     7237.805     3047.938     1380.937        1.135        0.583      105.030       32.539        0.096      346.671       25.085      855.206
09/20/2013  12:02:00      -47.678      -25.767       21.559       52.248       45.603       26.910     2729.819     2079.614      724.123        0.447        0.277       54.195       28.246        0.272      347.119       25.858      855.181
09/20/2013  12:03:00      -97.541      -32.094       -4.781       49.432       30.040       31.975     2443.490      902.390     1022.374        0.747        0.218      102.685       24.922        0.059      346.646       25.044      855.170
09/20/2013  12:04:00      -69.088      -38.197       -6.175       33.484       41.036       18.326     1121.174     1683.946      335.827        0.471        0.157       78.944        4.331        0.003      346.786       25.285      855.159
09/20/2013  12:05:00     -118.726      -80.150        1.064       48.741       61.421       34.924     2375.718     3772.589     1219.681        1.394        0.368      143.247       32.110        0.050      346.736       25.200      855.146
09/20/2013  12:06:00      -69.025       20.313        5.553       46.763       49.205       33.055     2186.750     2421.102     1092.623        0.545        0.285       71.952       26.051        0.131      346.890       25.463      855.134
09/20/2013  12:07:00      -55.031      -67.576       -2.903       57.163       57.018       33.657     3267.576     3251.013     1132.823        0.763        0.383       87.149       29.347        0.113      346.955       25.574      855.133
09/20/2013  12:08:00       35.391     -146.540       -0.646       77.623       51.810       40.554     6025.330     2684.290     1644.643        1.654        0.518      150.753       30.388        0.041      346.728       25.185      855.148
09/20/2013  12:09:00       46.242      -60.269       34.081       78.875      116.291       60.871     6221.209    13523.690     3705.321        1.519        1.173       75.965       71.444        0.885      347.089       25.805      855.132
09/20/2013  12:10:00       21.502      -59.899       37.522       80.068      104.627       75.867     6410.910    10946.872     5755.859        1.428        1.156       63.641       72.182        1.286      347.242       26.069      855.055
09/20/2013  12:11:00      118.806     -168.442       29.865      122.653      140.406       84.070    15043.817    19713.852     7067.740        4.259        2.091      206.125       89.071        0.187      347.055       25.746      855.013
09/20/2013  12:12:00      -42.926     -161.929        3.503      124.341       98.592       57.858    15460.602     9720.425     3347.491        2.830        1.426      167.522       29.901        0.032      347.025       25.692      855.042
09/20/2013  12:13:00      -18.840     -174.906       -6.333      108.962      113.655       62.951    11872.761    12917.566     3962.862        2.986        1.438      175.918       53.631        0.093      347.086       25.798      855.045
09/20/2013  12:14:00      -73.409     -117.267      -13.930      128.012      110.193       57.556    16387.166    12142.549     3312.700        2.558        1.592      138.349       57.098        0.170      347.386       26.316      855.042
09/20/2013  12:15:00     -200.474     -125.750        8.375      176.368      139.375       58.583    31105.535    19425.479     3431.982        5.501        2.698      236.650       70.212        0.088      347.118       25.853      855.010
09/20/2013  12:16:00       19.268     -136.834       20.523      110.508      121.767       61.332    12212.023    14827.317     3761.610        2.515        1.540      138.184       57.321        0.172      347.217       26.026      855.000
09/20/2013  12:17:00      -20.343     -158.950        5.303      107.689      156.864       67.959    11596.910    24606.255     4618.486        3.326        2.041      160.247       65.436        0.167      347.362       26.275      854.976
09/20/2013  12:18:00      -48.859     -299.445      -30.370      141.133      210.746       84.139    19918.487    44413.802     7079.358        8.218        3.571      303.405       90.705        0.089      347.217       26.024      854.990
09/20/2013  12:19:00      -42.593     -159.721       27.751      151.502      117.589       82.494    22952.968    13827.170     6805.338        3.583        2.179      165.303       76.010        0.211      347.268       26.111      854.983
09/20/2013  12:20:00       58.075     -315.727      -12.040      112.512      149.890       81.400    12659.000    22467.068     6625.885        7.247        2.088      321.024       75.971        0.056      346.998       25.647      855.000
09/20/2013  12:21:00        5.374     -164.863      -16.045      160.012      125.614       52.077    25603.873    15778.805     2712.039        3.577        2.205      164.951       50.491        0.094      347.335       26.227      854.992
09/20/2013  12:22:00      -48.383     -165.913       -9.482      173.938      123.305       78.954    30254.534    15204.086     6233.734        4.082        2.585      172.823       49.720        0.083      347.171       25.944      854.998
09/20/2013  12:23:00        6.836     -280.216       10.017      173.428      247.168      122.482    30077.262    61091.844    15001.724        9.240        5.309      280.299      133.748        0.228      347.108       25.836      854.994
09/20/2013  12:24:00       35.528     -192.919       14.711      126.694      124.909       93.502    16051.364    15602.150     8742.536        3.954        2.020      196.163       79.577        0.165      347.106       25.833      854.993
09/20/2013  12:25:00       38.238     -133.231       -1.609      138.345      126.542       78.966    19139.388    16012.998     6235.617        3.029        2.069      138.610       77.908        0.316      347.159       25.924      854.927
09/20/2013  12:26:00       64.519     -217.508       -8.191      170.057      157.312       75.232    28919.452    24747.164     5659.836        5.542        2.966      226.875       69.834        0.095      347.190       25.979      854.959
09/20/2013  12:27:00      -82.532     -255.951      -13.789      272.994      207.442       89.690    74525.942    43032.318     8044.234        9.903        6.280      268.929       64.462        0.057      346.964       25.587      854.971
09/20/2013  12:28:00      -18.915     -218.802        3.083      139.735      147.896       76.910    19525.883    21873.229     5915.110        4.777        2.366      219.618       70.017        0.102      347.093       25.811      854.999
09/20/2013  12:29:00      -19.191     -143.385       -2.339      109.528      129.238       59.849    11996.281    16702.349     3581.905        2.660        1.614      144.664       46.417        0.103      347.154       25.917      854.991
09/20/2013  12:30:00      -47.097      -39.733       21.853      114.935       51.495       49.111    13210.132     2651.743     2411.904        1.127        0.914       61.618       54.044        0.769      347.410       26.359      854.948
09/20/2013  12:31:00        2.893      -88.625        1.968       61.985       57.131       43.073     3842.150     3263.935     1855.281        0.841        0.448       88.672       38.169        0.185      347.430       26.394      854.940
09/20/2013  12:32:00       54.059      -50.127       29.354      108.388       85.960       61.530    11747.865     7389.188     3785.976        1.461        1.146       73.723       59.581        0.653      347.609       26.702      854.912
09/20/2013  12:33:00      104.009     -228.069       -4.710      193.136      156.109      105.226    37301.646    24370.153    11072.407        6.779        3.637      250.666       84.672        0.114      347.254       26.087      854.862
09/20/2013  12:34:00       86.036     -181.374       18.430      108.559      175.401       77.096    11785.052    30765.429     5943.800        4.456        2.425      200.745       92.639        0.213      347.247       26.075      854.867
09/20/2013  12:35:00      -16.131     -176.760        6.341      126.700      150.167       70.308    16053.011    22550.060     4943.227        3.754        2.177      177.495       73.414        0.171      347.242       26.068      854.890
09/20/2013  12:36:00     -125.566     -141.383       -6.347      138.926      124.698       60.835    19300.420    15549.504     3700.895        3.717        1.928      189.092       72.809        0.148      347.322       26.204      854.904
09/20/2013  12:37:00     -208.314     -235.365      -15.687      144.339      149.906       81.434    20833.749    22471.899     6631.478        7.448        2.497      314.311       70.232        0.050      347.167       25.937      854.895
09/20/2013  12:38:00      -63.288     -165.362       -5.955      130.128      101.072       64.561    16933.412    10215.606     4168.131        3.135        1.566      177.060       52.781        0.089      347.245       26.073      854.885
09/20/2013  12:39:00     -113.976     -160.027        8.893      126.998       99.741       56.079    16128.407     9948.315     3144.841        3.394        1.461      196.467       64.070        0.106      347.378       26.303      854.868
09/20/2013  12:40:00      -13.873     -128.857       -6.735       97.898       74.911       54.442     9583.954     5611.656     2963.953        1.750        0.908      129.601       37.258        0.083      347.482       26.482      854.848
09/20/2013  12:41:00       -9.143     -141.273       -5.181       73.438       67.690       51.014     5393.178     4581.922     2602.478        1.632        0.629      141.568       33.654        0.057      347.523       26.553      854.850
09/20/2013  12:42:00     -156.682      -89.336       12.948      146.525      105.163       59.758    21469.583    11059.198     3571.004        3.439        1.805      180.362       59.988        0.111      347.780       26.994      854.897
09/20/2013  12:43:00     -281.708     -274.828        6.988      228.277      186.246      106.746    52110.546    34687.592    11394.697       12.655        4.910      393.560      114.171        0.084      347.308       26.180      854.906
09/20/2013  12:44:00     -278.902     -244.566       14.240      172.621      182.959       87.914    29797.889    33473.999     7728.817       10.439        3.550      370.943       91.239        0.060      347.224       26.036      854.869
09/20/2013  12:45:00     -444.045     -170.962       -0.206      239.167      229.236       99.183    57200.807    52549.340     9837.346       17.297        5.979      475.819      108.078        0.052      347.013       25.672      854.842
09/20/2013  12:46:00     -303.756     -208.503       -3.228      212.804      166.862       84.438    45285.382    27843.032     7129.797       10.799        4.013      368.431      103.383        0.079      347.113       25.844      854.818
09/20/2013  12:47:00     -200.296     -411.192        9.987      148.931      196.203       78.081    22180.427    38495.623     6096.566       13.802        3.339      457.381       82.937        0.033      347.089       25.803      854.818
09/20/2013  12:48:00     -208.315     -228.151       -1.424      170.329      139.068       77.229    29011.960    19339.892     5964.336        7.487        2.716      308.947       77.709        0.063      347.204       26.002      854.816
09/20/2013  12:49:00     -286.569     -250.833        5.412      249.279      203.614       87.744    62140.175    41458.660     7698.992       12.816        5.565      380.840      117.075        0.095      347.219       26.026      854.783
09/20/2013  12:50:00     -310.468     -297.585       -3.911      204.653      171.690       93.634    41882.813    29477.543     8767.256       13.253        4.006      430.055      109.712        0.065      347.225       26.037      854.771
09/20/2013  12:51:00     -268.077     -221.556       -6.746      180.430      193.376       76.124    32554.866    37394.120     5794.893        9.836        3.787      347.782       89.229        0.066      347.293       26.154      854.738
09/20/2013  12:52:00     -200.595     -286.147        7.177      222.596      211.844       83.557    49549.141    44877.818     6981.710       11.177        5.070      349.455       89.199        0.065      347.193       25.981      854.777
09/20/2013  12:53:00     -248.343     -285.686      -28.576      164.715      134.842       86.416    27130.965    18182.300     7467.791        9.843        2.639      378.538       62.655        0.027      347.188       25.972      854.767
09/20/2013  12:54:00     -195.067     -242.471       11.476      216.716      144.785       83.008    46965.769    20962.748     6890.378        8.588        3.741      311.196       86.152        0.077      347.335       26.229      854.789
09/20/2013  12:55:00     -363.485     -276.286       -6.955      216.874      156.696       96.748    47034.517    24553.528     9360.229       14.471        4.047      456.569      106.826        0.055      347.145       25.898      854.771
09/20/2013  12:56:00     -182.079     -345.994      -11.817      177.040      176.683       70.611    31343.201    31216.886     4985.895       11.026        3.377      390.979       60.803        0.024      347.104       25.828      854.766
09/20/2013  12:57:00     -199.081     -188.677       -1.919      127.742      118.396       75.809    16318.040    14017.514     5747.065        5.565        1.804      274.285       59.166        0.047      347.042       25.723      854.753
09/20/2013  12:58:00     -144.240     -231.229        0.035      120.544      129.533       61.496    14530.814    16778.703     3781.775        5.467        1.755      272.529       58.169        0.046      346.956       25.572      854.737
09/20/2013  12:59:00     -153.911     -263.348      -14.107      103.277       93.807       53.815    10666.107     8799.770     2896.081        5.780        1.118      305.026       53.172        0.030      347.049       25.733      854.713
09/20/2013  13:00:00     -214.294     -147.675      -12.983      169.247      125.075       57.685    28644.448    15643.644     3327.558        5.775        2.381      260.250       65.698        0.064      347.371       26.291      854.706
09/20/2013  13:01:00     -322.846     -152.918        6.240      255.428      159.548       84.210    65243.459    25455.719     7091.367       11.270        4.890      357.230      104.006        0.085      347.349       26.249      854.673
09/20/2013  13:02:00     -349.652     -190.594      -14.953      146.268      120.574       80.304    21394.308    14538.193     6448.715       10.059        2.119      398.224       74.169        0.035      347.112       25.844      854.646
09/20/2013  13:03:00     -290.817     -189.078        6.909      171.060      152.574       86.639    29261.605    23278.964     7506.306        9.020        3.002      346.879       82.659        0.057      347.246       26.073      854.666
09/20/2013  13:04:00     -239.590     -205.641       15.781      230.441      145.193       90.905    53103.113    21080.913     8263.646        9.118        4.122      315.740      106.872        0.115      347.274       26.123      854.673
09/20/2013  13:05:00     -214.055     -181.640        1.513      148.620      123.290       83.725    22087.967    15200.511     7009.853        6.155        2.215      280.736       71.063        0.064      347.180       25.960      854.668
09/20/2013  13:06:00      -97.224     -209.995        1.730      139.947      118.202       63.144    19585.279    13971.689     3987.192        4.554        1.877      231.409       36.140        0.024      347.363       26.275      854.676
09/20/2013  13:07:00      -64.012      -86.313       11.650       83.394      133.318       50.921     6954.523    17773.695     2592.980        1.950        1.366      107.459       43.144        0.161      347.501       26.516      854.616
09/20/2013  13:08:00      -47.618     -153.235       -7.386       65.092       99.995       54.483     4236.949     9999.048     2968.346        2.150        0.860      160.464       33.294        0.043      347.469       26.458      854.608
09/20/2013  13:09:00       47.854     -232.012      -20.719      180.807      111.598       85.704    32691.265    12454.063     7345.146        5.451        2.625      236.896       47.867        0.041      347.474       26.467      854.611
09/20/2013  13:10:00       -6.608     -198.495        1.540      124.667      177.448       72.805    15541.933    31487.642     5300.540        4.588        2.617      198.605       66.050        0.111      347.526       26.559      854.549
09/20/2013  13:11:00      -22.789     -207.035        9.901      151.728      170.538       75.676    23021.520    29083.115     5726.900        5.064        2.892      208.285       70.819        0.116      347.730       26.910      854.615
09/20/2013  13:12:00       22.825     -290.042      -25.115      172.420      164.735       91.690    29728.626    27137.758     8407.004        7.526        3.264      290.939       77.480        0.071      347.395       26.329      854.531
09/20/2013  13:13:00     -172.149     -206.154       -6.930      172.499      152.791       70.970    29756.063    23345.218     5036.751        6.515        2.907      268.579       85.046        0.100      347.433       26.396      854.567
09/20/2013  13:14:00     -447.199     -218.267       12.436      329.435      233.145      106.426   108527.420    54356.562    11326.542       21.096        8.711      497.622      144.448        0.084      347.239       26.060      854.549
09/20/2013  13:15:00     -223.419     -336.374        5.412      193.305      213.851       92.148    37366.874    45732.421     8491.269       12.732        4.580      403.811       91.322        0.051      347.058       25.749      854.583
09/20/2013  13:16:00     -247.926     -402.364      -23.165      200.592      181.400      108.071    40237.275    32906.064    11679.307       15.435        4.241      472.614      104.050        0.048      347.066       25.762      854.544
09/20/2013  13:17:00     -302.654     -426.760        0.285      184.877      243.689       89.230    34179.600    59384.140     7962.055       18.761        5.076      523.186       96.958        0.034      347.102       25.824      854.520
09/20/2013  13:18:00     -243.173     -334.665        7.588      196.835      220.246       90.655    38743.961    48508.343     8218.250       13.331        4.774      413.683       98.851        0.057      347.214       26.017      854.502
09/20/2013  13:19:00     -222.114     -119.760        9.703      129.060      126.522       61.792    16656.598    16007.718     3818.289        5.012        1.824      252.343       52.494        0.043      347.431       26.391      854.495
09/20/2013  13:20:00     -399.916     -243.933        0.341      207.787      188.260       94.408    43175.231    35441.732     8912.813       15.347        4.376      468.440       93.015        0.039      347.337       26.229      854.479
09/20/2013  13:21:00     -462.874     -312.857      -18.678      241.922      212.910      105.936    58526.091    45330.706    11222.427       21.376        5.754      558.687      125.813        0.051      347.059       25.751      854.462
09/20/2013  13:22:00     -437.075     -348.838      -14.663      238.711      224.864      120.732    56982.871    50563.831    14576.278       21.751        6.106      559.216      125.729        0.051      346.950       25.563      854.424
09/20/2013  13:23:00     -607.957     -353.526      -28.072      284.256      252.146      131.861    80801.230    63577.647    17387.388       32.854        8.088      703.272      144.065        0.042      346.884       25.449      854.392
09/20/2013  13:24:00     -610.993     -281.533      -18.763      288.080      231.910      104.616    82990.118    53782.320    10944.427       30.029        7.386      672.735      131.269        0.038      347.151       25.910      854.313
09/20/2013  13:25:00     -384.221     -308.106       -2.713      229.124      179.919      100.069    52497.702    32370.853    10013.730       16.870        4.744      492.499      108.859        0.049      347.283       26.138      854.422
09/20/2013  13:26:00     -276.450     -431.124       -4.269      184.282      261.217       93.648    33959.931    68234.403     8769.864       18.662        5.548      512.145       95.995        0.035      347.247       26.074      854.469
09/20/2013  13:27:00     -379.593     -320.769       16.397      219.172      213.688      108.610    48036.174    45662.630    11796.104       17.635        5.275      496.975      117.065        0.055      347.111       25.841      854.415
09/20/2013  13:28:00     -152.009     -165.688       25.395      177.309      162.858       87.733    31438.581    26522.756     7697.092        5.842        3.283      224.854       92.640        0.170      347.382       26.307      854.461
09/20/2013  13:29:00     -254.037     -329.888       10.314      233.012      189.144      106.051    54294.487    35775.461    11246.847       13.737        5.066      416.366      115.152        0.076      347.320       26.201      854.450
09/20/2013  13:30:00     -228.984     -378.924      -14.000      192.749      172.219       92.330    37152.182    29659.462     8524.906       13.576        3.767      442.738       73.978        0.028      347.127       25.868      854.470
09/20/2013  13:31:00     -284.884     -201.424       -4.914      210.022      134.164       94.519    44109.305    18000.021     8933.928        9.639        3.552      348.899       81.592        0.055      347.316       26.192      854.457
09/20/2013  13:32:00     -366.736     -219.533       -4.859      210.299      186.047      107.221    44225.858    34613.385    11496.273       13.651        4.517      427.422      107.376        0.063      347.331       26.220      854.451
09/20/2013  13:33:00     -231.194     -304.329       26.727      196.423      230.566      108.138    38581.814    53160.890    11693.845       12.509        5.172      382.187      103.444        0.073      347.080       25.786      854.469
09/20/2013  13:34:00     -648.680     -348.045      -28.193      347.998      267.761      125.413   121102.377    71695.744    15728.418       37.558       10.426      736.153      150.927        0.042      346.990       25.633      854.400
09/20/2013  13:35:00     -305.418     -128.443       10.812      150.155      166.482       99.195    22546.537    27716.113     9839.549        8.499        3.005      331.327       90.738        0.075      347.224       26.035      854.411
09/20/2013  13:36:00     -338.299     -259.526      -15.935      177.931      157.196       82.141    31659.412    24710.582     6747.161       12.257        3.156      426.380       94.242        0.049      347.197       25.989      854.427
09/20/2013  13:37:00     -163.300     -229.327        0.028      151.730       88.494       66.279    23022.015     7831.100     4392.896        5.725        1.762      281.527       58.906        0.044      347.290       26.148      854.456
09/20/2013  13:38:00     -206.603     -156.812       22.917      240.889      131.244       87.195    58027.467    17224.959     7603.010        7.531        4.143      259.374      111.486        0.185      347.576       26.643      854.439
09/20/2013  13:39:00     -280.460     -173.545       -2.224      193.939      131.873       74.384    37612.342    17390.422     5532.912        8.465        3.027      329.812       81.927        0.062      347.480       26.476      854.445
09/20/2013  13:40:00     -230.263     -218.586       -1.182      143.095      152.210       74.987    20476.131    23167.735     5623.086        7.503        2.463      317.492       60.089        0.036      347.399       26.335      854.429
09/20/2013  13:41:00     -166.111     -199.605        8.634      201.646      134.983       84.946    40661.182    18220.483     7215.814        6.679        3.305      259.682       83.964        0.105      347.392       26.325      854.399
09/20/2013  13:42:00     -262.363     -140.620        2.749      198.225      110.902       85.679    39293.324    12299.199     7340.964        7.376        2.947      297.672      103.881        0.122      347.344       26.242      854.403
09/20/2013  13:43:00     -333.416     -287.737      -13.613      179.886      183.345       80.857    32358.923    33615.247     6537.905       13.331        3.626      440.407       75.540        0.029      347.250       26.078      854.378
09/20/2013  13:44:00     -340.574     -269.258       -8.668      217.168      185.976       99.541    47162.082    34586.916     9908.414       14.009        4.583      434.155       97.543        0.050      347.088       25.800      854.353
09/20/2013  13:45:00     -392.681     -292.764      -12.939      207.000      205.008      101.598    42848.953    42028.080    10322.251       16.762        4.760      489.805      111.370        0.052      347.234       26.052      854.352
09/20/2013  13:46:00     -460.787     -366.015      -23.300      270.080      280.185      103.838    72943.145    78503.446    10782.375       25.450        8.111      588.466      113.697        0.037      347.137       25.884      854.373
09/20/2013  13:47:00     -226.899     -225.452        2.352      167.782      136.973       84.946    28150.829    18761.705     7215.744        7.821        2.706      319.862       83.932        0.069      347.137       25.885      854.393
09/20/2013  13:48:00     -356.895     -150.038       32.342      312.143      182.017      118.197    97433.234    33130.122    13970.631       14.770        7.227      387.150      147.114        0.144      347.185       25.967      854.399
09/20/2013  13:49:00     -399.811     -368.976        5.785      349.763      261.784      128.561   122334.231    68531.075    16528.012       25.167       10.370      544.052      176.990        0.106      346.891       25.462      854.361
09/20/2013  13:50:00     -512.261     -374.460       -1.743      301.625      226.327      131.768    90977.363    51223.810    17362.924       28.107        7.978      634.533      160.243        0.064      346.921       25.512      854.310
09/20/2013  13:51:00     -328.524     -230.142       23.935      237.348      224.885      116.494    56333.842    50573.042    13570.809       14.095        6.024      401.115      123.276        0.094      346.832       25.360      854.304
09/20/2013  13:52:00     -626.306     -318.659      -14.168      273.403      195.013      113.636    74749.197    38030.034    12913.187       30.982        6.285      702.711      141.079        0.040      346.837       25.367      854.266
09/20/2013  13:53:00     -293.876     -380.485       -4.895      196.847      274.204      102.223    38748.758    75187.808    10449.487       17.775        6.219      480.762       95.094        0.039      346.972       25.600      854.293
09/20/2013  13:54:00     -353.568     -260.214      -22.044      174.355      163.382       89.403    30399.616    26693.841     7992.889       12.913        3.254      439.000       82.912        0.036      346.994       25.638      854.286
09/20/2013  13:55:00     -131.441     -213.925        2.965      107.843      116.119       68.171    11630.058    13483.545     4647.264        4.640        1.488      251.080       55.441        0.049      347.188       25.973      854.277
09/20/2013  13:56:00     -222.722     -205.355        0.090      151.360       94.368       65.757    22909.974     8905.360     4323.970        6.395        1.807      302.945       75.346        0.062      347.295       26.157      854.303
09/20/2013  13:57:00     -298.480     -182.936        6.187      195.029      149.154       76.984    38036.137    22247.036     5926.495        9.439        3.310      350.080       84.461        0.058      347.317       26.195      854.263
09/20/2013  13:58:00      -83.555     -161.100        8.252      145.487      111.530       59.033    21166.341    12438.965     3484.854        3.504        1.855      181.479       44.011        0.059      347.284       26.140      854.278
09/20/2013  13:59:00       35.485     -127.795       37.410      187.975      156.563      118.267    35334.695    24511.882    13986.990        4.640        3.692      132.630      100.684        0.576      347.227       26.039      854.206
09/20/2013  14:00:00     -200.158     -132.988        4.401      169.316       99.488       63.041    28667.927     9897.802     3974.218        5.015        2.127      240.311       73.926        0.095      347.478       26.472      854.244
09/20/2013  14:01:00     -123.421     -113.104       20.351      120.586      119.909       67.199    14540.998    14378.217     4515.733        3.093        1.672      167.408       59.509        0.126      347.525       26.555      854.275
09/20/2013  14:02:00     -127.854     -197.227       26.857      149.113      147.050       73.804    22234.801    21623.795     5446.977        5.263        2.465      235.043       84.954        0.131      347.390       26.323      854.287
09/20/2013  14:03:00      -16.058     -202.975       -6.873      170.861      144.097       71.291    29193.583    20764.073     5082.422        4.826        2.752      203.609       72.816        0.128      347.402       26.342      854.307
09/20/2013  14:04:00     -230.096     -114.546       -5.128      147.740      118.713       68.308    21827.070    14092.765     4665.922        5.333        2.029      257.031       45.138        0.031      347.252       26.083      854.269
09/20/2013  14:05:00     -224.387     -166.381        7.373      131.428       91.149       68.387    17273.436     8308.082     4676.760        5.417        1.513      279.343       49.170        0.031      347.194       25.985      854.298
09/20/2013  14:06:00     -149.757     -413.692      -19.533      202.103      163.968       83.695    40845.604    26885.521     7004.825       13.433        3.737      439.964       75.059        0.029      347.023       25.689      854.337
09/20/2013  14:07:00     -218.637     -308.296      -14.014      169.267      186.905      101.253    28651.239    34933.481    10252.269       10.843        3.692      377.953      107.087        0.080      347.201       25.995      854.375
09/20/2013  14:08:00     -171.646     -207.037        1.799      165.053      152.171       71.015    27242.341    23156.074     5043.085        6.387        2.772      268.936       49.868        0.034      347.355       26.261      854.357
09/20/2013  14:09:00     -226.835     -216.075        0.883      144.451      150.226       73.218    20865.962    22567.856     5360.888        7.346        2.440      313.277       77.516        0.061      347.229       26.044      854.353
09/20/2013  14:10:00     -280.666     -164.397       17.672      197.523      169.820       84.172    39015.332    28838.732     7084.902        9.051        3.747      325.268       91.943        0.080      347.319       26.200      854.394
09/20/2013  14:11:00       26.575     -306.595      -26.811      213.970      188.621      130.450    45783.078    35577.943    17017.271        9.688        4.919      307.745      114.117        0.138      347.335       26.226      854.419
09/20/2013  14:12:00     -135.294     -191.745       -4.701      198.785      176.058       87.589    39515.597    30996.547     7671.884        6.662        3.909      234.671       50.802        0.047      347.354       26.259      854.454
09/20/2013  14:13:00     -221.154     -297.401        8.836      233.426      229.874      101.152    54487.807    52842.184    10231.756       12.748        5.878      370.616      118.364        0.102      346.969       25.595      854.462
09/20/2013  14:14:00     -232.042     -264.412        2.530      183.309      147.931       96.973    33602.339    21883.611     9403.705        9.431        3.244      351.791       71.735        0.042      346.903       25.483      854.451
09/20/2013  14:15:00      -32.123     -181.186       11.175      140.983      137.493       64.778    19876.076    18904.281     4196.146        3.847        2.149      184.012       63.405        0.119      347.069       25.769      854.429
09/20/2013  14:16:00     -112.873     -107.662       11.596      138.830      108.466       62.111    19273.811    11764.784     3857.753        2.967        1.745      155.985       68.241        0.191      347.218       26.025      854.381
09/20/2013  14:17:00     -108.237     -253.481       -0.649      161.386      177.589       79.516    26045.494    31538.008     6322.729        6.992        3.195      275.623       77.218        0.078      347.195       25.985      854.413
09/20/2013  14:18:00     -226.458     -231.679       -3.120      147.779      142.135       60.264    21838.712    20202.321     3631.763        7.531        2.284      323.973       60.030        0.034      347.395       26.329      854.430
09/20/2013  14:19:00     -166.214     -194.601       -1.754      145.603      127.482       78.555    21200.106    16251.739     6170.822        5.455        2.181      255.923       59.627        0.054      347.454       26.432      854.480
09/20/2013  14:20:00     -118.544     -143.021       -7.495      165.263      139.547       76.898    27311.888    19473.455     5913.272        4.362        2.635      185.762       66.252        0.127      347.476       26.471      854.457
09/20/2013  14:21:00     -247.872     -271.000       -9.163      154.660      127.418       80.230    23919.843    16235.261     6436.849        9.077        2.330      367.262       80.992        0.049      347.130       25.873      854.490
09/20/2013  14:22:00     -135.072     -211.580        7.979      147.146      183.312       72.962    21651.813    33603.388     5323.482        6.181        3.029      251.019       55.324        0.049      347.143       25.895      854.484
09/20/2013  14:23:00     -234.207     -234.665       18.968      165.405      233.570       82.850    27358.948    54555.162     6864.120        9.951        4.439      331.542       60.687        0.034      347.167       25.937      854.475
09/20/2013  14:24:00     -271.105     -312.417       -2.377      192.636      204.308       95.391    37108.438    41741.660     9099.439       12.951        4.397      413.645       98.290        0.056      346.967       25.591      854.465
09/20/2013  14:25:00     -177.360     -266.246       16.423      175.845      152.174      102.489    30921.321    23157.014    10503.921        8.359        3.229      319.911       86.655        0.073      347.067       25.765      854.473
09/20/2013  14:26:00     -398.416     -309.869        3.673      213.210      163.827       94.327    45458.301    26839.293     8897.624       16.797        4.060      504.732      101.358        0.040      346.996       25.641      854.470
09/20/2013  14:27:00     -274.270     -161.047       19.385      198.031      173.795       88.768    39216.311    30204.801     7879.672        8.940        3.865      318.057       93.280        0.086      347.052       25.739      854.500
09/20/2013  14:28:00     -284.226     -135.785       -0.171      140.347      126.236       65.711    19697.142    15935.559     4317.935        6.958        1.998      314.996       64.255        0.042      346.918       25.508      854.452
09/20/2013  14:29:00      -17.847     -121.007       32.761       81.794       77.020       48.904     6690.306     5932.014     2391.567        1.552        0.751      122.316       48.106        0.155      346.982       25.619      854.383
09/20/2013  14:30:00     -307.705     -176.016       -8.673      209.959      169.010       84.865    44082.703    28564.423     7202.058       10.278        3.992      354.491       78.840        0.049      347.065       25.761      854.411
09/20/2013  14:31:00     -216.215     -321.824       -2.759      216.207      194.717       77.126    46745.332    37914.751     5948.389       12.045        4.530      387.710       57.990        0.022      347.089       25.803      854.424
09/20/2013  14:32:00     -138.162     -298.802      -20.298      152.127      136.321       78.526    23142.481    18583.357     6166.405        7.833        2.395      329.198       65.126        0.039      347.120       25.855      854.438
09/20/2013  14:33:00     -172.954     -282.499        0.248      118.025      166.891       71.662    13930.003    27852.735     5135.414        7.831        2.346      331.238       66.064        0.040      347.182       25.962      854.433
09/20/2013  14:34:00     -361.798     -216.501        8.017      170.633      156.909       90.157    29115.598    24620.555     8128.296       11.984        3.093      421.628       94.921        0.051      346.998       25.645      854.390
09/20/2013  14:35:00     -158.408     -178.539       -0.992      175.586      112.011       71.352    30830.414    12546.423     5091.174        5.271        2.423      238.683       58.388        0.060      347.275       26.124      854.392
09/20/2013  14:36:00       30.081     -179.640       -6.549       93.074      126.548       65.781     8662.832    16014.311     4327.197        3.111        1.450      182.141       72.767        0.160      347.241       26.065      854.386
09/20/2013  14:37:00      -73.774     -283.233      -35.371      205.220      128.458       80.853    42115.355    16501.368     6537.191        7.602        3.258      292.683       61.647        0.044      347.164       25.930      854.431
09/20/2013  14:38:00     -269.707     -245.682       -1.369      160.801      134.944       76.130    25857.079    18209.898     5795.711        9.147        2.493      364.831       69.383        0.036      347.025       25.693      854.404
09/20/2013  14:39:00      -68.250     -125.164       -6.713      113.873       94.719       61.976    12967.164     8971.717     3840.977        2.307        1.289      142.563       34.978        0.060      347.160       25.926      854.403
09/20/2013  14:40:00     -142.472      -80.595       18.807      123.142      117.204       63.448    15163.873    13736.675     4025.686        3.003        1.646      163.688       62.571        0.146      347.396       26.334      854.391
09/20/2013  14:41:00      -24.244     -168.740       13.034      178.496      136.679       70.484    31860.943    18681.188     4968.042        4.236        2.776      170.473       71.536        0.176      347.118       25.853      854.385
09/20/2013  14:42:00      -98.649     -101.329      -17.412      112.020       80.466       58.744    12548.584     6474.725     3450.898        2.138        1.124      141.419       36.260        0.066      347.348       26.252      854.382
09/20/2013  14:43:00     -223.331     -130.376        0.294      159.632      149.080       69.659    25482.453    22224.786     4852.327        5.971        2.628      258.601       40.410        0.024      347.237       26.058      854.416
09/20/2013  14:44:00     -153.830     -138.800        6.277      177.966      104.642       77.853    31671.885    10949.857     6061.019        4.582        2.434      207.193       68.913        0.111      347.279       26.131      854.415
09/20/2013  14:45:00     -227.209     -243.241       -2.945      201.682      193.537       99.685    40675.599    37456.404     9937.084        9.942        4.403      332.851      104.204        0.098      347.108       25.835      854.411
09/20/2013  14:46:00     -326.545     -359.525      -23.130      215.814      280.950       83.732    46575.522    78932.843     7011.094       18.445        6.626      485.684       82.479        0.029      346.970       25.597      854.384
09/20/2013  14:47:00     -376.066     -242.893       -1.933      256.775      196.227       94.393    65933.632    38505.042     8910.032       15.687        5.667      447.686       84.979        0.036      346.979       25.614      854.412
09/20/2013  14:48:00     -282.945     -323.041      -11.550      226.296      198.622      105.994    51210.019    39450.782    11234.638       14.320        5.095      429.434      121.649        0.080      346.957       25.574      854.457
09/20/2013  14:49:00     -195.067     -277.981      -21.461      146.979      170.417      101.817    21602.756    29041.937    10366.644        8.839        3.051      339.595       87.821        0.067      346.810       25.322      854.488
09/20/2013  14:50:00     -101.827     -154.726      -37.402      145.582       99.348       63.182    21194.061     9869.987     3992.021        3.538        1.753      185.227       61.029        0.109      346.900       25.476      854.425
09/20/2013  14:51:00     -377.255     -299.393       -1.707      210.378      171.599       85.905    44258.967    29446.167     7379.666       15.651        4.054      481.620       93.965        0.038      347.008       25.662      854.450
09/20/2013  14:52:00     -306.331     -172.165        5.656      191.350      132.413       79.418    36614.948    17533.147     6307.143        9.197        3.023      351.396       87.151        0.062      346.985       25.624      854.400
09/20/2013  14:53:00     -327.978     -264.941      -20.145      154.405      163.854       78.281    23840.832    26848.291     6127.856       11.748        2.841      421.620       84.820        0.040      346.902       25.479      854.402
09/20/2013  14:54:00     -397.826     -293.099      -10.134      219.240      165.783       88.469    48066.212    27484.107     7826.804       16.381        4.169      494.138       81.443        0.027      346.816       25.332      854.386
09/20/2013  14:55:00     -342.091     -277.418      -22.960      190.417      144.764       94.490    36258.456    20956.643     8928.366       13.032        3.307      440.439       87.474        0.039      346.843       25.379      854.383
09/20/2013  14:56:00     -377.111     -260.519      -12.487      201.316      148.147       90.352    40528.141    21947.534     8163.396       14.042        3.532      458.348       94.772        0.043      346.917       25.506      854.379
09/20/2013  14:57:00     -390.220     -104.095        5.699      264.073      149.835       99.730    69734.742    22450.547     9946.068       13.262        5.107      403.865      113.212        0.079      347.029       25.699      854.336
09/20/2013  14:58:00     -383.350     -276.526       -4.987      291.975      191.742      127.899    85249.358    36765.041    16358.214       18.088        6.919      472.677      132.921        0.079      346.972       25.601      854.328
09/20/2013  14:59:00     -163.859     -270.466       18.364      132.722      165.955       75.635    17615.066    27541.151     5720.597        7.560        2.544      316.230       61.545        0.038      347.050       25.735      854.378
09/20/2013  15:00:00     -139.223     -140.938       -0.902      141.659       92.191       62.877    20067.220     8499.264     3953.477        3.588        1.626      198.107       48.146        0.059      347.288       26.147      854.391
09/20/2013  15:01:00     -283.132     -227.064       -3.118      202.165      144.081       92.720    40870.569    20759.310     8596.935       10.097        3.511      362.935      100.972        0.077      347.180       25.959      854.381
09/20/2013  15:02:00     -348.660     -359.966       -0.848      244.206      228.189      116.485    59636.453    52070.137    13568.817       18.818        6.264      501.138      113.129        0.051      347.038       25.714      854.379
09/20/2013  15:03:00     -314.786     -121.304        7.267      237.813      159.541       91.761    56555.093    25453.482     8419.991       10.213        4.521      337.350      111.739        0.110      346.889       25.459      854.385
09/20/2013  15:04:00     -292.559     -233.143        6.629      266.916      230.042      106.017    71244.217    52919.203    11239.695       13.767        6.770      374.094      132.844        0.126      346.936       25.540      854.373
09/20/2013  15:05:00     -493.070     -269.749        0.839      296.818      201.304      105.833    88100.654    40523.194    11200.533       22.783        6.991      562.035      122.149        0.047      346.713       25.154      854.355
09/20/2013  15:06:00     -340.343     -225.689        2.873      188.646      152.960       94.562    35587.366    23396.813     8941.928       11.734        3.396      408.374       95.342        0.055      346.695       25.125      854.345
09/20/2013  15:07:00     -225.737     -180.542       -6.499      177.668      175.507       90.289    31565.795    30802.702     8152.180        7.704        3.526      289.055       78.833        0.074      346.863       25.413      854.324
09/20/2013  15:08:00     -413.406     -191.981       15.108      230.833      187.694       98.964    53283.886    35228.953     9793.919       15.313        4.915      455.809      105.914        0.054      346.913       25.499      854.305
09/20/2013  15:09:00     -376.880     -103.793        4.166      264.503      185.104      104.946    69961.923    34263.413    11013.758       13.401        5.762      390.911      122.918        0.099      346.957       25.576      854.304
09/20/2013  15:10:00     -283.629     -190.118       -1.649      207.935      158.352       88.970    43237.171    25075.229     7915.622        9.640        3.811      341.453       92.602        0.074      346.882       25.447      854.316
09/20/2013  15:11:00     -327.123     -221.801        1.858      209.450      151.673      100.371    43869.246    23004.812    10074.267       11.656        3.847      395.228       95.532        0.058      346.886       25.452      854.321
09/20/2013  15:12:00     -284.345     -227.373       23.139      235.058      185.559      110.236    55252.326    34432.153    12151.904       11.744        5.092      364.075      118.901        0.107      346.921       25.514      854.350
09/20/2013  15:13:00     -274.343     -379.225       -5.507      181.782      194.077       94.292    33044.694    37665.769     8891.051       14.934        3.980      468.055       74.072        0.025      346.698       25.128      854.368
09/20/2013  15:14:00     -244.172     -267.504      -16.486      139.311      130.321       65.929    19407.418    16983.542     4346.666        8.609        2.037      362.185       64.502        0.032      346.739       25.199      854.300
09/20/2013  15:15:00     -126.251     -191.397       -3.215      119.070      113.745       65.695    14177.674    12937.891     4315.877        4.200        1.572      229.286       59.090        0.066      346.960       25.581      854.323
09/20/2013  15:16:00     -190.929     -211.106      -10.666      110.128      156.072       56.853    12128.114    24358.619     3232.228        6.042        1.986      284.639       52.896        0.035      346.877       25.438      854.317
09/20/2013  15:17:00     -295.143     -220.403      -14.033      180.173      147.708       64.534    32462.302    21817.644     4164.685        9.715        2.922      368.357       75.815        0.042      346.890       25.460      854.265
09/20/2013  15:18:00      -86.428     -201.311        0.967      140.142      171.496       64.071    19639.800    29410.847     4105.151        5.057        2.658      219.080       49.864        0.052      347.128       25.868      854.258
09/20/2013  15:19:00     -104.926     -171.773       -5.314      163.897      101.261       69.092    26862.199    10253.803     4773.714        4.121        2.094      201.284       55.401        0.076      347.180       25.959      854.251
09/20/2013  15:20:00     -291.412     -267.885       -5.824      190.477      136.426       74.576    36281.427    18611.980     5561.567       10.857        3.023      395.832       72.091        0.033      347.052       25.739      854.232
09/20/2013  15:21:00     -249.250     -135.415       11.184      172.107      130.202       81.280    29620.734    16952.507     6606.388        6.687        2.659      283.660       80.078        0.080      347.140       25.889      854.248
09/20/2013  15:22:00     -223.540     -210.832        3.776      179.365      165.141       70.905    32171.635    27271.649     5027.470        7.944        3.224      307.279       80.138        0.068      347.008       25.663      854.272
09/20/2013  15:23:00     -157.739     -294.345       -8.647      272.731      208.621       92.740    74382.082    43522.788     8600.709       11.903        6.325      333.947       83.904        0.063      346.932       25.532      854.221
09/20/2013  15:24:00     -207.319     -281.400        2.847      182.488      163.417       89.555    33301.840    26704.969     8020.142        9.509        3.401      349.524       73.847        0.045      346.956       25.573      854.244
09/20/2013  15:25:00      -90.829     -233.414        6.654      167.191      202.049       99.813    27952.950    40823.886     9962.712        7.074        3.937      250.464       81.444        0.106      346.988       25.628      854.239
09/20/2013  15:26:00     -152.012     -230.955       -1.191      117.806      154.078       67.123    13878.355    23740.085     4505.444        5.928        2.106      276.491       65.715        0.056      346.988       25.627      854.254
09/20/2013  15:27:00     -107.899     -148.976       16.778      111.986       78.191       57.730    12540.865     6113.776     3332.730        2.805        1.099      183.946       64.220        0.122      347.093       25.809      854.239
09/20/2013  15:28:00     -244.813     -166.968      -10.750      172.052      150.106       76.416    29601.772    22531.934     5839.446        7.294        2.899      296.331       86.503        0.085      347.018       25.680      854.240
09/20/2013  15:29:00     -301.801     -305.166       -3.059      178.177      243.461       94.337    31746.907    59273.395     8899.489       14.205        4.996      429.196       81.132        0.036      346.777       25.265      854.225
09/20/2013  15:30:00     -259.188     -323.121      -10.484      198.896      150.325       85.879    39559.783    22597.633     7375.265       12.060        3.477      414.229       81.572        0.039      346.799       25.304      854.198
09/20/2013  15:31:00     -204.546     -301.805       -3.260      140.142      190.451       77.440    19639.691    36271.657     5997.025        9.741        3.095      364.590       63.815        0.031      346.855       25.399      854.210
09/20/2013  15:32:00     -314.275     -146.315      -12.822      126.219      105.395       56.402    15931.347    11108.186     3181.217        7.528        1.511      346.666       50.504        0.021      346.600       24.961      854.151
09/20/2013  15:33:00     -254.757     -118.675        0.004      173.851      129.632       79.850    30224.328    16804.387     6375.967        6.618        2.670      281.043       75.945        0.073      346.818       25.335      854.146
09/20/2013  15:34:00     -207.929      -99.677      -25.444      113.462      116.618       55.284    12873.663    13599.705     3056.287        4.167        1.476      230.586       43.802        0.036      346.875       25.433      854.100
09/20/2013  15:35:00     -242.729     -296.666        7.467      182.735      168.447       69.729    33391.975    28374.449     4862.118       10.679        3.331      383.312       69.324        0.033      346.913       25.498      854.153
09/20/2013  15:36:00     -161.807     -169.570       13.635      212.649      211.253       85.466    45219.585    44627.840     7304.489        7.612        4.858      234.384       88.421        0.142      347.031       25.703      854.131
09/20/2013  15:37:00     -334.067     -268.439       -7.706      180.530      172.695       79.094    32591.131    29823.547     6255.897       12.618        3.434      428.556       73.887        0.030      346.917       25.506      854.094
09/20/2013  15:38:00      -75.759     -188.309       15.437      145.449      104.386       63.269    21155.548    10896.466     4003.016        3.874        1.803      202.977       41.899        0.043      347.042       25.721      854.127
09/20/2013  15:39:00     -202.632      -91.913        4.936      152.046      115.940       57.158    23118.089    13442.093     3267.002        4.467        1.991      222.503       60.860        0.075      347.119       25.855      854.109
09/20/2013  15:40:00     -181.724      -31.776       12.912      112.653      114.006       53.471    12690.679    12997.305     2859.115        3.137        1.427      184.482       40.039        0.047      347.059       25.751      854.092
09/20/2013  15:41:00     -173.089     -177.052       11.810      118.023      112.148       65.831    13929.381    12577.106     4333.753        4.614        1.542      247.603       65.487        0.070      347.176       25.952      854.077
09/20/2013  15:42:00     -156.894     -313.978       -3.322      121.569      159.215       65.462    14779.108    25349.501     4285.230        8.380        2.221      350.996       81.953        0.055      346.767       25.247      854.088
09/20/2013  15:43:00     -142.363     -244.294       -7.060      108.703      102.879       46.484    11816.382    10584.115     2160.731        5.227        1.228      282.749       34.368        0.015      346.768       25.250      854.037
09/20/2013  15:44:00     -207.534     -138.575        4.260      186.521      134.309       59.419    34790.074    18038.942     3530.562        5.931        2.818      249.546       64.046        0.066      347.019       25.683      854.040
09/20/2013  15:45:00     -453.038     -286.439      -26.573      179.852      181.025       90.895    32346.705    32770.094     8261.873       18.067        3.669      535.995       98.548        0.034      346.849       25.391      853.998
09/20/2013  15:46:00     -195.202     -152.343       22.000      165.599      134.750       75.473    27423.066    18157.461     5696.177        5.653        2.564      247.613       72.513        0.086      346.919       25.509      854.015
09/20/2013  15:47:00     -130.401      -21.346       18.504      116.742       82.941       59.494    13628.700     6879.220     3539.497        2.092        1.202      132.136       62.473        0.224      346.913       25.501      853.984
09/20/2013  15:48:00        8.116      -98.774       17.500       91.268      121.658       53.628     8329.842    14800.618     2875.981        1.806        1.300       99.107       46.435        0.220      347.147       25.904      854.047
09/20/2013  15:49:00      -33.106      -83.462       17.572      125.991       99.312       74.914    15873.702     9862.892     5612.176        1.985        1.567       89.788       64.177        0.511      347.231       26.050      854.037
09/20/2013  15:50:00      -54.599      -17.490       17.281      123.762       79.946       44.844    15317.036     6391.311     2011.016        1.365        1.186       57.332       21.682        0.143      347.206       26.007      854.026
09/20/2013  15:51:00       40.316     -152.660      -18.513       82.365       99.316       57.702     6783.942     9863.574     3329.476        2.262        0.999      157.894       45.313        0.082      346.807       25.319      854.009
09/20/2013  15:52:00      -57.148      -28.368       17.331      119.593       81.805       54.782    14302.389     6692.107     3001.119        1.418        1.200       63.801       63.138        0.979      347.242       26.069      853.993
09/20/2013  15:53:00     -171.631     -253.720      -13.362      149.473      176.474       63.904    22342.171    31142.979     4083.752        7.578        2.878      306.318       78.433        0.066      347.019       25.681      854.022
09/20/2013  15:54:00      -93.410     -272.365      -12.860      115.848       98.140       72.695    13420.801     9631.455     5284.511        5.570        1.417      287.938       64.628        0.050      346.961       25.581      854.008
09/20/2013  15:55:00     -278.752      -89.428      -17.081      143.031      131.928       61.114    20457.838    17405.121     3734.928        6.379        2.080      292.746       56.240        0.037      347.146       25.900      853.972
09/20/2013  15:56:00     -230.909     -141.021       -2.377      177.193      138.636       65.298    31397.483    19219.884     4263.809        6.404        2.744      270.566       78.184        0.084      346.948       25.560      853.937
09/20/2013  15:57:00     -123.221     -132.516        9.992      144.080      111.812       65.868    20759.151    12501.862     4338.562        3.521        1.880      180.953       65.604        0.131      346.966       25.590      853.956
09/20/2013  15:58:00     -216.029     -311.906        3.717      169.500      157.931       80.412    28730.199    24942.281     6466.170       10.204        3.007      379.413       63.295        0.028      346.749       25.216      853.985
09/20/2013  15:59:00     -308.636     -148.760       20.440      214.355      121.138       72.182    45948.189    14674.521     5210.281        9.181        3.292      342.616       80.222        0.055      346.793       25.294      853.950
09/20/2013  16:00:00     -304.606     -183.917       12.276      197.619      145.502       77.490    39053.243    21170.754     6004.713        9.648        3.311      355.823       86.327        0.059      346.876       25.435      853.970
09/20/2013  16:01:00     -374.194     -265.454       -9.228      227.298      178.872       96.956    51664.383    31995.051     9400.417       15.180        4.653      458.788      111.961        0.060      346.729       25.183      853.935
09/20/2013  16:02:00     -450.592     -333.609      -19.511      237.132      194.221      113.103    56231.691    37721.795    12792.261       21.071        5.337      560.650      128.582        0.053      346.658       25.061      853.903
09/20/2013  16:03:00     -592.025     -290.555      -29.211      233.168      227.754       90.687    54367.139    51871.739     8224.117       27.509        5.723      659.482       90.776        0.019      346.699       25.132      853.863
09/20/2013  16:04:00     -359.697     -268.552      -18.400      202.460      153.074       83.775    40989.911    23431.711     7018.231       13.663        3.572      448.890      107.339        0.057      346.801       25.307      853.907
09/20/2013  16:05:00     -277.534     -146.557       10.358      190.825      167.746       83.296    36414.214    28138.742     6938.182        8.504        3.575      313.854       86.028        0.075      346.843       25.379      853.934
09/20/2013  16:06:00     -230.150     -207.619       -5.861      210.639      158.797       94.367    44368.694    25216.523     8905.086        8.728        3.925      309.959      122.528        0.156      346.775       25.263      853.939
09/20/2013  16:07:00     -400.069     -185.785      -18.334      215.465      145.904       78.604    46425.232    21287.909     6178.558       13.439        3.695      441.102       78.170        0.031      346.749       25.217      853.919
09/20/2013  16:08:00     -316.591     -121.911       20.935      226.188      136.239      100.594    51160.867    18560.978    10119.241        9.767        3.992      339.253      115.794        0.116      346.828       25.353      853.933
09/20/2013  16:09:00     -341.145     -143.125        6.375      202.127      154.162       81.551    40855.465    23765.892     6650.594       10.407        3.564      369.952      104.783        0.080      346.762       25.242      853.921
09/20/2013  16:10:00     -253.155     -282.891      -32.639      175.759      194.747       88.753    30891.117    37926.301     7877.023       11.092        3.835      379.624      110.988        0.085      346.822       25.341      853.932
09/20/2013  16:11:00     -196.496     -183.553       -2.895      167.042      112.233       75.428    27903.125    12596.326     5689.448        5.924        2.309      268.891       72.941        0.074      346.810       25.323      853.954
09/20/2013  16:12:00      -78.713     -209.632        4.024      142.018      173.099       75.550    20169.148    29963.177     5707.867        5.299        2.792      223.922       62.149        0.077      346.918       25.508      853.951
09/20/2013  16:13:00     -277.094     -214.877        1.829      189.604      165.141       81.995    35949.696    27271.606     6723.114        9.644        3.497      350.647       71.808        0.042      346.601       24.963      853.925
09/20/2013  16:14:00     -325.539     -244.642       -4.591      189.150      145.495       87.434    35777.657    21168.827     7644.748       11.521        3.230      407.217       87.511        0.046      346.742       25.204      853.961
09/20/2013  16:15:00     -378.894     -279.142       -7.877      261.361      201.711       95.465    68309.317    40687.173     9113.506       16.980        5.905      470.617      109.142        0.054      346.520       24.824      853.950
09/20/2013  16:16:00     -420.505     -227.715        0.645      220.276      150.000       87.848    48521.616    22499.948     7717.243       15.369        3.937      478.203      102.678        0.046      346.595       24.953      853.947
09/20/2013  16:17:00     -433.896     -257.080      -19.015      257.122      183.224       91.825    66111.773    33571.121     8431.744       18.140        5.406      504.338      103.178        0.042      346.562       24.895      853.961
09/20/2013  16:18:00     -338.151     -122.337        5.845      189.185      173.888       92.707    35790.776    30237.006     8594.519       10.197        3.731      359.601       87.935        0.060      346.664       25.069      853.964
09/20/2013  16:19:00     -397.254     -153.509       24.268      336.198      209.605      125.763   113028.880    43934.328    15816.423       17.734        8.639      425.882      147.263        0.120      346.609       24.977      853.911
09/20/2013  16:20:00     -432.911     -192.342        5.209      235.714      199.039      106.137    55560.942    39616.399    11265.057       16.542        5.322      473.717      119.960        0.064      346.565       24.900      853.922
09/20/2013  16:21:00     -421.936     -274.156        3.057      251.839      162.190      106.292    63422.728    26305.441    11297.953       17.709        5.051      503.181      107.564        0.046      346.588       24.939      853.930
09/20/2013  16:22:00     -310.762     -354.093       -3.153      228.074      261.015      115.469    52017.579    68128.611    13333.112       17.770        6.674      471.121      115.591        0.060      346.434       24.676      853.972
09/20/2013  16:23:00     -253.279     -188.444        0.980      158.620      133.965       85.244    25160.218    17946.710     7266.455        7.501        2.519      315.692       86.682        0.075      346.530       24.841      853.981
09/20/2013  16:24:00     -142.780     -313.676        7.665      148.799      234.148       81.255    22141.131    54825.239     6602.450       10.119        4.178      344.643       75.149        0.048      346.575       24.919      853.972
09/20/2013  16:25:00     -216.391     -349.121        8.376      192.019      242.469       86.745    36871.128    58791.072     7524.741       13.596        5.159      410.744       79.734        0.038      346.432       24.674      853.962
09/20/2013  16:26:00     -226.648     -275.425       -7.616      142.141      162.255       77.475    20204.091    26326.774     6002.453        8.990        2.627      356.691       78.221        0.048      346.551       24.876      853.960
09/20/2013  16:27:00     -363.894     -190.159        8.363      266.347      170.107      108.172    70940.706    28936.402    11701.180       14.009        5.579      410.584      106.716        0.068      346.540       24.856      853.973
09/20/2013  16:28:00     -441.539     -220.596      -10.123      217.651      167.314       93.732    47372.129    27994.033     8785.779       16.392        4.208      493.578      110.490        0.050      346.502       24.792      853.965
09/20/2013  16:29:00     -403.591     -249.527       -6.731      255.862      212.027      114.944    65465.300    44955.377    13212.212       17.439        6.182      474.499      131.294        0.077      346.449       24.701      853.968
09/20/2013  16:30:00     -462.153     -283.334      -23.308      259.433      238.125      128.135    67305.466    56703.547    16418.659       21.739        7.021      542.092      138.622        0.065      346.307       24.457      853.958
09/20/2013  16:31:00     -420.994     -227.459       -9.413      317.342      185.979       84.892   100705.898    34588.070     7206.568       18.575        7.125      478.512      114.750        0.058      346.301       24.448      853.977
09/20/2013  16:32:00     -513.425     -301.235      -17.921      315.637      223.896      132.579    99626.625    50129.200    17577.259       26.097        8.367      595.271      128.924        0.047      346.210       24.291      853.949
09/20/2013  16:33:00     -383.601     -192.394       -7.806      257.658      182.503      100.714    66387.778    33307.212    10143.249       14.701        5.492      429.145      114.929        0.072      346.355       24.538      853.987
09/20/2013  16:34:00     -270.149     -277.307      -11.704      187.398      204.327       90.628    35117.849    41749.398     8213.360       11.753        4.254      387.143       84.592        0.048      346.376       24.575      853.983
09/20/2013  16:35:00     -295.618     -192.924       -6.985      145.861      184.855       91.701    21275.400    34171.260     8409.060        9.424        3.193      353.001       87.008        0.061      346.247       24.353      853.951
09/20/2013  16:36:00     -281.155     -278.649        0.229      266.462      190.133       85.783    71002.109    36150.418     7358.661       13.558        5.726      395.845      108.058        0.075      346.266       24.386      853.929
09/20/2013  16:37:00     -426.872     -343.594      -18.223      210.071      263.500      113.380    44129.983    69432.365    12855.017       21.349        6.321      547.975      117.993        0.046      346.132       24.155      853.927
09/20/2013  16:38:00     -292.265     -282.598       15.807      186.110      196.791       99.821    34636.825    38726.724     9964.226       12.441        4.166      406.547      107.362        0.070      346.314       24.468      853.922
09/20/2013  16:39:00     -355.023     -230.763       -9.834      186.272      116.365       81.679    34697.390    13540.783     6671.515       11.714        2.745      423.430       89.016        0.044      346.312       24.465      853.963
09/20/2013  16:40:00     -298.500     -361.750        8.650      218.668      247.493      109.436    47815.813    61252.946    11976.177       17.052        6.052      469.004      117.691        0.063      346.211       24.293      853.935
09/20/2013  16:41:00     -320.639     -216.832        2.779      228.389      154.175       91.550    52161.421    23770.081     8381.430       11.706        4.216      387.073       87.486        0.051      346.335       24.504      853.918
09/20/2013  16:42:00     -311.450     -324.290       -6.391      165.746      205.158       82.187    27471.800    42089.784     6754.743       13.925        3.816      449.628       81.116        0.033      346.338       24.510      853.918
09/20/2013  16:43:00     -255.501     -126.430       -4.691      192.708      111.915       68.786    37136.409    12525.062     4731.470        6.783        2.720      285.071       67.453        0.056      346.505       24.798      853.924
09/20/2013  16:44:00     -336.484     -196.812       -8.169      226.927      131.945       91.077    51495.856    17409.611     8294.979       11.460        3.860      389.815       95.578        0.060      346.352       24.535      853.930
09/20/2013  16:45:00     -178.208     -168.608       17.448      135.707      124.356       68.263    18416.280    15464.389     4659.826        4.951        1.927      245.330       69.673        0.081      346.448       24.700      853.942
09/20/2013  16:46:00     -236.491     -312.027        1.261      200.621      210.816       89.713    40248.779    44443.205     8048.340       12.300        4.637      391.522       97.600        0.062      346.412       24.636      853.933
09/20/2013  16:47:00     -285.297     -272.783       -0.032      163.712      163.567       80.131    26801.681    26754.109     6421.019       10.788        2.999      394.722       77.954        0.039      346.448       24.700      853.966
09/20/2013  16:48:00     -338.485     -231.186      -17.313      144.304      171.653       84.514    20823.730    29464.860     7142.696       11.286        2.872      409.901       82.071        0.040      346.378       24.580      853.964
09/20/2013  16:49:00     -219.269     -344.723        9.204      138.747      174.245       86.442    19250.820    30361.478     7472.162       11.203        2.854      408.549       74.730        0.033      346.310       24.461      854.003
09/20/2013  16:50:00     -198.246     -284.114        6.482      184.287      142.727       83.588    33961.843    20370.855     6987.022        9.068        3.066      346.443       80.151        0.054      346.316       24.473      854.018
09/20/2013  16:51:00     -245.235     -328.096       -3.921      163.138      209.612       90.604    26613.928    43936.998     8209.163       12.327        3.938      409.619       93.453        0.052      346.167       24.216      853.984
09/20/2013  16:52:00     -223.778     -343.664      -13.507      171.137      178.212       83.002    29287.885    31759.463     6889.292       11.814        3.397      410.099       85.948        0.044      346.151       24.189      853.996
09/20/2013  16:53:00     -295.354     -186.869        6.058      174.144      155.222       93.498    30326.044    24093.918     8741.930        9.266        3.158      349.505       82.346        0.056      346.219       24.305      853.979
09/20/2013  16:54:00     -314.365     -352.022       -1.215      255.705      241.267       94.708    65384.940    58209.821     8969.528       17.763        6.628      471.958      111.704        0.056      346.146       24.179      853.965
09/20/2013  16:55:00     -375.209     -206.404      -19.479      127.476      175.387       70.916    16250.058    30760.591     5029.010       11.789        2.602      428.234       63.254        0.022      346.228       24.320      853.933
09/20/2013  16:56:00     -323.856     -104.757       -3.652      162.499      141.852       90.764    26405.771    20121.895     8238.187        8.531        2.738      340.377       92.263        0.073      346.245       24.349      853.963
09/20/2013  16:57:00     -241.315     -135.075       14.294      135.584      126.734       70.691    18382.890    16061.520     4997.157        5.805        1.972      276.546       64.143        0.054      346.282       24.416      853.959
09/20/2013  16:58:00     -222.378     -205.915       11.022      195.526      128.814       87.709    38230.421    16592.941     7692.894        7.723        3.126      303.073      106.773        0.124      346.291       24.428      853.952
09/20/2013  16:59:00     -288.884     -213.318        1.730      195.722      142.502       90.782    38307.034    20306.879     8241.335        9.790        3.343      359.108       98.127        0.075      346.269       24.392      853.957
09/20/2013  17:00:00     -315.353     -236.484        4.480      216.161      172.425       76.654    46725.615    29730.375     5875.762       11.885        4.117      394.173       89.371        0.051      346.118       24.133      853.947
09/20/2013  17:01:00     -553.608     -327.044      -14.494      272.220      215.737      118.926    74103.526    46542.557    14143.345       27.419        6.739      642.993      128.424        0.040      345.987       23.906      853.913
09/20/2013  17:02:00     -460.308     -275.693      -21.715      293.898      226.909      121.672    86375.893    51487.625    14804.061       22.048        7.633      536.554      136.380        0.065      345.916       23.786      853.901
09/20/2013  17:03:00     -637.732     -236.474      -38.293      250.441      228.760      113.657    62720.851    52331.128    12917.895       29.600        6.398      680.163      132.407        0.038      345.794       23.576      853.943
09/20/2013  17:04:00     -347.909     -120.840        6.405      241.762      144.705       86.036    58448.832    20939.415     7402.175       11.122        4.340      368.297      103.820        0.079      345.903       23.762      853.881
09/20/2013  17:05:00     -288.444      -52.364       30.990      191.311      174.953      108.093    36599.879    30608.601    11684.042        8.288        3.945      293.158       98.452        0.113      345.990       23.913      853.939
09/20/2013  17:06:00     -188.672     -224.426       13.898      186.832      177.226       82.945    34906.201    31409.099     6879.832        7.966        3.660      293.196       85.323        0.085      346.059       24.032      853.978
09/20/2013  17:07:00     -304.025     -387.022      -17.769      260.682      184.106       95.966    67954.905    33895.090     9209.456       17.677        5.553      492.156       95.123        0.037      346.011       23.948      853.944
09/20/2013  17:08:00     -428.595     -378.277        2.338      286.939      186.369      124.853    82334.007    34733.344    15588.299       22.970        6.633      571.653      135.078        0.056      345.926       23.804      853.914
09/20/2013  17:09:00     -395.030     -224.601      -17.404      177.257      145.388      102.524    31420.116    21137.690    10511.136       13.492        3.153      454.417       90.339        0.040      345.967       23.874      853.980
09/20/2013  17:10:00     -297.205     -107.732       21.994      230.121      137.211       81.845    52955.530    18826.919     6698.563        8.944        3.924      316.128       74.049        0.055      346.065       24.042      853.991
09/20/2013  17:11:00     -411.447     -281.574      -11.559      233.533      193.201      111.605    54537.779    37326.555    12455.722       17.649        5.216      498.570      130.603        0.069      345.958       23.858      853.999
09/20/2013  17:12:00     -206.651      -92.963        6.477      157.032      148.481       73.348    24659.057    22046.592     5379.924        5.173        2.604      226.599       88.195        0.151      346.018       23.961      854.004
09/20/2013  17:13:00     -325.467     -304.900       -4.126      310.027      179.019      101.970    96116.455    32047.933    10397.829       16.871        6.928      445.974      127.107        0.081      345.866       23.700      853.979
09/20/2013  17:14:00     -657.572     -197.483      -16.929      263.594      200.649      115.559    69481.757    40260.170    13353.824       29.737        6.155      686.586      130.715        0.036      345.753       23.506      853.968
09/20/2013  17:15:00     -419.162     -253.089       -4.744      251.127      203.540      102.309    63064.673    41428.668    10467.228       17.734        5.748      489.643      118.370        0.058      345.827       23.632      854.035
09/20/2013  17:16:00     -421.531     -210.796       -4.312      238.295      203.973       99.442    56784.416    41604.888     9888.651       16.519        5.414      471.300      113.582        0.058      345.786       23.563      854.020
09/20/2013  17:17:00     -303.311     -190.019        0.549      174.041      187.381       90.582    30290.103    35111.526     8205.030       10.084        3.680      357.918       96.874        0.073      345.929       23.807      854.051
09/20/2013  17:18:00     -544.664     -356.307       -3.583      267.621      210.007      106.098    71621.220    44102.792    11256.738       27.528        6.349      650.856      118.857        0.033      345.819       23.619      854.072
09/20/2013  17:19:00     -414.492     -216.843      -17.547      213.146      140.965       79.771    45431.252    19871.238     6363.399       14.539        3.583      467.786       85.163        0.033      345.874       23.715      854.060
09/20/2013  17:20:00     -526.415     -328.624      -42.615      192.734      186.909       99.977    37146.534    34935.116     9995.328       23.448        4.104      620.570       93.468        0.023      345.836       23.648      854.054
09/20/2013  17:21:00     -420.665     -244.756      -17.088      287.013      229.246      107.123    82376.642    52553.885    11475.278       19.175        7.320      486.688      142.518        0.086      345.839       23.653      854.044
09/20/2013  17:22:00     -351.405     -273.351       -9.487      177.885      131.462       81.788    31642.947    17282.327     6689.331       12.694        2.781      445.204       72.942        0.027      345.894       23.749      854.076
09/20/2013  17:23:00     -366.428     -324.766       -7.292      229.442      202.964       89.275    52643.667    41194.401     7970.044       17.078        5.090      489.635      105.563        0.046      345.814       23.611      854.079
09/20/2013  17:24:00     -249.192     -184.132       21.278      142.977      183.300       89.880    20442.304    33598.892     8078.334        7.927        3.106      309.840       85.444        0.076      345.865       23.698      854.079
09/20/2013  17:25:00     -275.091     -231.665      -10.412      197.551      169.684       82.145    39026.480    28792.493     6747.743       10.199        3.728      359.644       82.114        0.052      345.830       23.637      854.058
09/20/2013  17:26:00     -390.209     -262.948      -12.818      178.432      148.760       84.174    31838.035    22129.395     7085.282       14.130        3.053      470.537       87.985        0.035      345.834       23.644      854.042
09/20/2013  17:27:00     -249.532     -156.796        5.604      189.695      110.008       71.856    35984.071    12101.838     5163.230        7.006        2.662      294.705       85.495        0.084      345.910       23.775      854.031
09/20/2013  17:28:00     -300.600     -213.043       -2.314      181.169      127.503       84.088    32822.162    16256.963     7070.718        9.594        2.807      368.439       97.871        0.071      345.939       23.826      854.025
09/20/2013  17:29:00     -361.352     -140.790       -2.765      230.847      140.382       81.113    53290.525    19707.021     6579.388       11.498        3.979      387.811       93.873        0.059      345.908       23.772      854.042
09/20/2013  17:30:00     -200.239     -118.256        9.533      168.551      175.203       79.901    28409.563    30695.986     6384.116        5.982        3.274      232.552       83.080        0.128      345.982       23.899      854.058
09/20/2013  17:31:00     -395.733     -314.472      -19.405      167.747      169.957       87.956    28139.071    28885.212     7736.267       16.030        3.238      505.467       91.707        0.033      345.744       23.491      854.055
09/20/2013  17:32:00     -427.046     -324.451        7.543      270.397      157.002      106.943    73114.739    24649.517    11436.870       19.843        5.460      536.318      137.710        0.066      345.690       23.397      854.046
09/20/2013  17:33:00     -379.601     -260.917      -11.011      268.682      190.491      100.146    72190.264    36286.841    10029.251       16.538        5.925      460.624      117.957        0.066      345.565       23.183      854.024
09/20/2013  17:34:00     -476.382     -276.403      -12.787      293.215      148.373       94.038    85974.855    22014.502     8843.131       21.014        5.842      550.761      100.619        0.033      345.558       23.170      854.025
09/20/2013  17:35:00     -260.751     -145.016        8.843      163.651      153.783       79.738    26781.586    23649.213     6358.206        7.293        2.839      298.363       82.431        0.076      345.671       23.363      854.006
09/20/2013  17:36:00     -300.736     -174.092        4.567      218.042      164.140       84.701    47542.359    26941.937     7174.334       10.120        4.083      347.491       91.407        0.069      345.687       23.393      854.034
09/20/2013  17:37:00     -451.794     -387.303       -3.590      289.142      190.643      108.727    83603.098    36344.785    11821.468       24.293        6.588      595.081      116.259        0.038      345.540       23.139      854.021
09/20/2013  17:38:00     -378.349     -272.728       -8.231      214.957      170.842       86.582    46206.435    29187.107     7496.472       15.023        4.145      466.399      104.204        0.050      345.568       23.187      854.006
09/20/2013  17:39:00     -386.171     -245.852      -18.983      173.146      180.773       82.438    29979.677    32678.970     6795.971       13.968        3.473      457.789       87.581        0.037      345.619       23.274      853.999
09/20/2013  17:40:00     -310.639     -121.127        1.983      162.605      146.129       89.383    26440.482    21353.755     7989.397        8.347        2.789      333.419       82.481        0.061      345.660       23.346      853.996
09/20/2013  17:41:00     -279.813     -196.458      -10.050      168.739      138.902       77.006    28472.694    19293.894     5929.940        8.533        2.685      341.893       73.749        0.047      345.677       23.374      853.942
09/20/2013  17:42:00     -279.823     -191.196      -13.543      154.128      150.927       79.093    23755.406    22779.059     6255.639        8.390        2.640      338.905       73.424        0.047      345.656       23.340      853.923
09/20/2013  17:43:00     -309.748     -332.394      -17.667      235.982      169.990       90.548    55687.641    28896.561     8199.013       14.974        4.639      454.345       81.165        0.032      345.559       23.170      853.936
09/20/2013  17:44:00     -286.988     -298.373        1.925      190.090      187.530       87.827    36134.356    35167.352     7713.506       12.519        3.951      413.991       86.567        0.044      345.526       23.116      853.947
09/20/2013  17:45:00     -421.245     -334.436        6.578      260.657      187.171      118.928    67941.940    35033.160    14143.758       20.321        5.856      537.862      128.601        0.057      345.481       23.038      853.936
09/20/2013  17:46:00     -284.431     -226.478       -8.635      187.443      193.595      113.138    35135.017    37479.214    12800.317       10.882        4.271      363.584      109.762        0.091      345.501       23.073      853.885
09/20/2013  17:47:00     -460.751     -237.288      -10.374      274.045      211.828      105.417    75100.433    44871.308    11112.722       19.987        6.554      518.263      115.646        0.050      345.481       23.039      853.875
09/20/2013  17:48:00     -485.397     -319.859       -3.779      276.679      201.155      119.116    76551.327    40463.187    14188.701       23.454        6.560      581.309      127.519        0.048      345.457       22.999      853.941
09/20/2013  17:49:00     -423.890     -311.358       -2.386      229.457      216.700      111.313    52650.722    46958.766    12390.544       19.429        5.600      525.953      122.837        0.055      345.385       22.873      853.951
09/20/2013  17:50:00     -361.643     -368.611        1.533      237.094      232.218       95.099    56213.690    53925.419     9043.914       19.290        5.959      516.392      100.104        0.038      345.411       22.918      853.946
09/20/2013  17:51:00     -526.841     -292.302      -17.214      287.581      208.789      116.586    82702.662    43592.687    13592.349       25.157        6.994      602.496      139.714        0.054      345.346       22.808      853.955
09/20/2013  17:52:00     -503.335     -331.938        5.501      345.200      230.260      130.905   119162.785    53019.896    17136.128       27.640        9.466      602.933      178.021        0.087      345.338       22.793      853.935
09/20/2013  17:53:00     -561.765     -293.646       -2.334      297.803      262.432      137.602    88686.385    68870.304    18934.390       28.912        8.825      633.883      132.060        0.043      345.207       22.569      853.947
09/20/2013  17:54:00     -563.320     -364.790      -24.581      280.120      211.859      118.779    78467.294    44884.393    14108.463       29.421        6.873      671.119      124.092        0.034      345.138       22.450      853.950
09/20/2013  17:55:00     -540.051     -426.009      -25.852      280.121      206.651      122.753    78467.631    42704.753    15068.414       30.500        6.812      687.850      107.893        0.025      345.165       22.497      853.945
09/20/2013  17:56:00     -499.357     -331.475      -12.118      339.134      242.532      118.998   115011.532    58821.980    14160.636       27.365        9.400      599.361      146.790        0.060      345.194       22.548      853.968
09/20/2013  17:57:00     -418.541     -354.073       -8.930      275.745      208.401      114.472    76035.489    43430.956    13103.937       21.657        6.629      548.219      129.480        0.056      345.202       22.561      854.032
09/20/2013  17:58:00     -175.082     -183.872       17.509      141.668      135.817       86.285    20069.739    18446.330     7445.184        5.536        2.298      253.895       84.356        0.110      345.271       22.679      854.003
09/20/2013  17:59:00     -210.814     -214.125        6.189      139.117      156.787       74.376    19353.584    24582.266     5531.719        6.989        2.473      300.486       76.726        0.065      345.247       22.637      854.014
09/20/2013  18:00:00     -367.870     -179.343        8.642      189.852      154.237       93.516    36043.858    23788.970     8745.323       11.806        3.429      409.259       89.442        0.048      345.226       22.601      854.043
09/20/2013  18:01:00     -321.615     -375.213      -11.119      213.429      190.970       87.281    45552.113    36469.360     7617.906       16.697        4.482      494.187       91.133        0.034      345.123       22.426      853.952
09/20/2013  18:02:00     -543.428     -221.452      -28.512      263.114      243.093      114.217    69228.822    59094.182    13045.425       24.324        7.068      586.818      129.039        0.048      345.063       22.322      853.933
09/20/2013  18:03:00     -689.310     -325.550      -47.082      232.066      265.374      127.307    53854.584    70423.518    16207.105       36.189        7.024      762.320      108.683        0.020      344.994       22.204      853.914
09/20/2013  18:04:00     -459.359     -203.081        4.881      296.826      238.568      115.585    88105.478    56914.486    13359.887       20.530        7.919      502.248      146.572        0.085      345.002       22.219      853.901
09/20/2013  18:05:00     -428.494     -344.939       -8.611      298.640      257.489      111.480    89185.842    66300.746    12427.719       23.526        8.396      550.082      121.013        0.048      345.027       22.261      853.906
09/20/2013  18:06:00     -510.021     -324.569      -11.493      341.637      194.637      121.123   116715.567    37883.625    14670.875       26.740        8.464      604.538      127.005        0.044      345.012       22.237      853.913
09/20/2013  18:07:00     -437.010     -353.569      -14.576      284.981      231.246      105.818    81214.273    53474.585    11197.516       23.102        7.294      562.128      125.075        0.050      345.035       22.275      853.925
09/20/2013  18:08:00     -481.930     -212.191      -15.703      239.627      215.757       99.600    57420.907    46551.264     9920.258       19.569        5.695      526.575      103.578        0.039      344.996       22.206      853.894
09/20/2013  18:09:00     -432.536     -237.108       -4.886      294.405      219.891      119.459    86674.191    48352.181    14270.483       19.629        7.465      493.262      143.957        0.085      344.962       22.151      853.870
09/20/2013  18:10:00     -429.611     -245.894       -9.434      231.070      227.256      104.387    53393.358    51645.182    10896.669       18.050        5.797      495.005      109.807        0.049      344.928       22.092      853.886
09/20/2013  18:11:00     -474.721     -307.974      -19.284      242.081      244.596      108.879    58603.169    59827.317    11854.584       22.541        6.514      565.869      121.661        0.046      344.922       22.083      853.903
09/20/2013  18:12:00     -344.052     -340.717       -0.776      225.756      203.271      108.811    50965.953    41319.114    11839.931       16.927        5.206      484.211      123.721        0.065      344.948       22.125      853.883
09/20/2013  18:13:00     -360.273     -234.601      -23.330      171.558      182.188       88.913    29432.278    33192.636     7905.535       12.794        3.527      429.924       80.061        0.035      344.954       22.136      853.906
09/20/2013  18:14:00     -340.210     -226.710        0.234      180.711      141.377       92.233    32656.420    19987.544     8506.867       11.413        3.058      408.828       81.434        0.040      344.924       22.085      853.909
09/20/2013  18:15:00     -414.007     -190.631      -15.600      237.624      166.194       86.866    56464.974    27620.363     7545.742       14.979        4.582      455.787       92.976        0.042      344.875       22.000      853.906
09/20/2013  18:16:00     -587.190     -389.599      -14.600      285.547      229.827      135.685    81536.857    52820.430    18410.513       32.475        7.638      704.684      126.742        0.032      344.824       21.912      853.941
09/20/2013  18:17:00     -530.741     -310.393       -7.695      322.737      279.642      129.371   104159.229    78199.560    16736.975       28.855        9.955      614.841      163.896        0.071      344.796       21.866      853.903
09/20/2013  18:18:00     -342.020     -237.730       -0.718      187.733      149.262       87.009    35243.657    22279.259     7570.552       11.928        3.255      416.525      103.291        0.061      344.803       21.875      853.907
09/20/2013  18:19:00     -296.818     -220.038       15.057      164.955      124.855       84.930    27210.038    15588.736     7213.132        9.337        2.501      369.483       86.400        0.055      344.800       21.872      854.012
09/20/2013  18:20:00     -372.182     -254.863      -17.929      218.491      146.356      103.813    47738.502    21420.067    10777.229       14.185        3.997      451.082      120.179        0.071      344.774       21.828      853.991
09/20/2013  18:21:00     -371.982     -223.564       -1.092      223.224      133.012       83.293    49828.892    17692.125     6937.649       13.139        3.723      433.994       77.439        0.032      344.800       21.872      853.953
09/20/2013  18:22:00     -484.766     -174.314        5.687      279.093      208.633      103.114    77892.895    43527.750    10632.416       19.871        6.603      515.153      120.191        0.054      344.790       21.855      853.968
09/20/2013  18:23:00     -345.627     -384.458        1.546      186.964      297.480      103.248    34955.555    88494.093    10660.220       20.066        6.705      516.977       89.072        0.030      344.755       21.794      853.979
09/20/2013  18:24:00     -381.673     -332.414      -16.026      248.243      219.651      108.400    61624.800    48246.563    11750.587       18.900        6.081      506.135      116.379        0.053      344.715       21.726      853.910
09/20/2013  18:25:00     -508.477     -229.028      -13.094      187.238      239.456      121.504    35057.886    57339.165    14763.230       20.915        5.358      557.676      106.952        0.037      344.700       21.702      853.950
09/20/2013  18:26:00     -419.752     -195.786      -10.579      204.167      222.352      114.873    41683.988    49440.292    13195.714       15.946        5.216      463.167      101.989        0.048      344.698       21.696      853.910
09/20/2013  18:27:00     -476.943     -361.181      -10.724      355.963      316.936      125.292   126709.661   100448.542    15698.127       30.040       12.143      598.269      166.121        0.077      344.684       21.675      853.943
09/20/2013  18:28:00     -369.893     -217.111        3.564      327.585      263.247      141.116   107311.984    69298.883    19913.788       19.021        9.826      428.903      164.376        0.147      344.676       21.660      853.900
09/20/2013  18:29:00     -626.128     -417.729      -18.731      266.377      200.239      126.783    70956.950    40095.785    16073.987       34.698        6.356      752.684      125.451        0.028      344.617       21.559      853.942
09/20/2013  18:30:00     -574.062     -321.997      -31.516      251.638      221.083      114.627    63321.803    48877.574    13139.248       27.976        6.267      658.201      119.361        0.033      344.616       21.556      853.958
09/20/2013  18:31:00     -499.830     -357.364       -7.523      278.231      230.053      120.601    77412.404    52924.488    14544.634       26.121        7.244      614.442      126.361        0.042      344.598       21.528      853.977
09/20/2013  18:32:00     -406.416     -338.231      -12.916      250.307      222.898      120.714    62653.588    49683.378    14571.792       20.330        6.345      528.748      130.738        0.061      344.621       21.566      854.017
09/20/2013  18:33:00     -338.719     -207.181      -11.093      212.361      183.425       93.054    45097.107    33644.796     8659.011       12.257        4.370      397.058      102.439        0.067      344.628       21.578      854.028
09/20/2013  18:34:00     -463.631     -338.588       -2.264      304.159      216.612      114.508    92512.412    46920.663    13112.017       24.104        7.627      574.104      137.383        0.057      344.596       21.523      854.019
09/20/2013  18:35:00     -357.457     -192.095        2.719      248.374      216.522      105.571    61689.455    46881.594    11145.306       14.218        5.986      405.803      126.542        0.097      344.587       21.510      854.040
09/20/2013  18:36:00     -303.286     -180.999        7.020      250.509      172.377       99.137    62754.720    29713.939     9828.051       11.352        5.115      353.190      123.072        0.121      344.580       21.497      854.057
09/20/2013  18:37:00     -449.971     -251.236      -18.362      201.738      176.123       99.185    40698.117    31019.238     9837.692       17.373        4.078      515.357       99.373        0.037      344.575       21.489      854.076
09/20/2013  18:38:00     -644.769     -246.553      -20.218      357.152      239.992      135.201   127557.265    57596.179    18279.407       34.014       10.172      690.302      160.745        0.054      344.549       21.444      854.012
09/20/2013  18:39:00     -501.110     -242.304      -11.570      285.811      229.629      122.764    81688.211    52729.254    15070.878       22.969        7.474      556.617      148.526        0.071      344.565       21.470      853.993
09/20/2013  18:40:00     -361.329     -263.228       -4.827      177.174      176.656       86.686    31390.752    31207.252     7514.492       13.498        3.506      447.044       92.499        0.043      344.565       21.470      854.040
09/20/2013  18:41:00     -298.132     -267.870        0.558      198.481      184.540       91.152    39394.904    34054.951     8308.637       12.118        4.088      400.796       83.501        0.043      344.576       21.489      854.059
09/20/2013  18:42:00     -298.704     -392.452       19.064      222.574      290.872      107.894    49539.075    84606.289    11641.049       19.467        7.289      493.197      130.763        0.070      344.563       21.467      854.057
09/20/2013  18:43:00     -458.157     -293.714       -0.195      238.826      241.442      115.727    57037.655    58294.429    13392.634       21.243        6.436      544.220      127.941        0.055      344.516       21.388      854.050
09/20/2013  18:44:00     -570.708     -303.053      -10.523      310.881      238.668      115.863    96647.021    56962.624    13424.345       29.231        8.352      646.180      134.916        0.044      344.458       21.288      854.010
09/20/2013  18:45:00     -599.290     -294.448      -19.412      286.267      208.797      109.808    81948.610    43596.008    12057.877       29.189        6.880      667.719      132.592        0.039      344.470       21.310      854.048
09/20/2013  18:46:00     -402.791     -182.575        0.032      208.167      175.424       95.388    43333.295    30773.705     9098.965       13.937        4.160      442.238      109.198        0.061      344.393       21.177      854.099
09/20/2013  18:47:00     -392.575     -206.667      -11.581      226.304      162.491       89.547    51213.430    26403.330     8018.750       14.128        4.282      443.651       93.779        0.045      344.321       21.054      854.136
09/20/2013  18:48:00     -465.963     -285.297      -20.274      169.080      198.493       99.623    28588.086    39399.348     9924.667       18.840        3.896      546.366      107.142        0.038      344.275       20.975      854.178
09/20/2013  18:49:00     -624.825     -233.398      -14.467      216.695      216.276      106.609    46956.718    46775.349    11365.493       27.507        5.255      666.993      101.843        0.023      344.241       20.918      854.187
09/20/2013  18:50:00     -283.075     -253.190       27.364      212.181      194.939      110.804    45020.814    38001.026    12277.488       12.012        4.765      379.785      113.358        0.089      344.322       21.057      854.143
09/20/2013  18:51:00     -422.436     -272.730        9.478      269.889      209.448      105.889    72840.117    43868.653    11212.583       19.040        6.396      502.825      133.716        0.071      344.394       21.178      854.136
09/20/2013  18:52:00     -342.108     -329.332       -0.627      213.981      227.431      111.852    45787.739    51724.702    12510.847       16.774        5.501      474.866       91.931        0.037      344.427       21.233      854.151
09/20/2013  18:53:00     -318.476     -315.391       -9.007      173.491      179.445       84.600    30098.975    32200.469     7157.146       13.520        3.473      448.216       66.717        0.022      344.427       21.234      854.130
09/20/2013  18:54:00     -219.788     -340.988       -2.320      179.481      183.836       85.701    32213.350    33795.846     7344.588       11.896        3.668      405.684       77.853        0.037      344.415       21.213      854.163
09/20/2013  18:55:00     -373.199     -149.893       -7.851      172.951      192.453       79.187    29912.064    37038.003     6270.637       11.750        3.661      402.176       80.878        0.040      344.388       21.167      854.182
09/20/2013  18:56:00     -360.388     -142.377      -20.804      211.612      116.897       91.160    44779.519    13665.003     8310.073       10.866        3.338      387.493      109.505        0.080      344.280       20.984      854.155
09/20/2013  18:57:00     -323.748     -149.410      -10.788      251.117      170.577       93.875    63059.796    29096.593     8812.470       11.409        5.048      356.562      106.411        0.089      344.208       20.859      854.136
09/20/2013  18:58:00     -381.306     -199.399       -8.351      227.559      203.441       85.774    51783.161    41388.171     7357.172       14.286        5.026      430.295      108.726        0.064      344.271       20.968      854.113
09/20/2013  18:59:00     -416.878     -142.370      -20.108      179.585      171.861       82.132    32250.893    29536.328     6745.680       13.148        3.427      440.518       88.470        0.040      344.309       21.032      854.114
09/20/2013  19:00:00     -308.264     -106.084        5.956      149.896      121.503       71.145    22468.840    14763.046     5061.678        7.430        2.115      326.007       80.097        0.060      344.242       20.920      854.117
09/20/2013  19:01:00     -169.644      -51.747       28.495      182.144      113.646       73.637    33176.435    12915.402     5422.456        4.188        2.576      177.361       80.354        0.205      344.173       20.803      854.120
09/20/2013  19:02:00     -407.138     -229.412      -17.078      198.463      177.183       97.202    39387.595    31393.982     9448.230       14.944        4.011      467.324      113.179        0.059      344.138       20.740      854.158
09/20/2013  19:03:00     -336.567     -171.411        1.710      128.060      113.780       68.221    16399.327    12945.860     4654.155        8.832        1.700      377.703       57.806        0.023      344.125       20.721      854.161
09/20/2013  19:04:00     -317.248     -269.261      -19.041      235.915      195.629      103.054    55655.756    38270.809    10620.217       13.901        5.227      416.110      104.111        0.063      344.148       20.759      854.186
09/20/2013  19:05:00     -404.947     -236.211       -3.302      253.959      230.420      106.868    64495.303    53093.229    11420.811       17.437        6.450      468.805      140.855        0.090      344.149       20.760      854.177
09/20/2013  19:06:00     -400.060     -150.420        2.292      229.488      169.740      101.913    52664.612    28811.735    10386.232       13.725        4.593      427.404      118.670        0.077      344.138       20.740      854.159
09/20/2013  19:07:00     -412.040     -173.726       -9.170      294.815      178.653      107.353    86916.074    31916.928    11524.629       16.517        6.518      447.166      137.848        0.095      344.139       20.743      854.149
09/20/2013  19:08:00     -444.969     -285.130       -9.082      186.296      172.092      102.363    34706.186    29615.509    10478.207       17.708        3.740      528.485       92.322        0.031      344.142       20.747      854.217
09/20/2013  19:09:00     -291.778     -181.885       16.932      193.789      120.500       78.512    37554.027    14520.351     6164.185        8.836        2.912      343.827       85.771        0.062      344.111       20.695      854.301
09/20/2013  19:10:00     -255.319     -269.268       -0.805      190.188      156.589       79.594    36171.303    24520.257     6335.223       10.235        3.351      371.070       87.785        0.056      344.121       20.713      854.288
09/20/2013  19:11:00     -539.657     -237.406      -22.172      240.213      190.497       90.748    57702.176    36289.075     8235.267       22.513        5.111      589.568       94.016        0.025      344.102       20.680      854.282
09/20/2013  19:12:00     -370.467     -115.002      -14.828      199.906      135.965       89.165    39962.580    18486.585     7950.479       10.853        3.320      387.906       92.045        0.056      344.064       20.615      854.335
09/20/2013  19:13:00     -575.727     -303.898      -11.259      238.940      234.399      115.268    57092.347    54942.875    13286.754       27.461        6.266      651.011      129.248        0.039      344.124       20.716      854.311
09/20/2013  19:14:00     -315.237     -327.555       -9.185      198.911      257.241      110.112    39565.781    66173.147    12124.669       16.228        5.893      454.606      118.689        0.068      344.156       20.771      854.319
09/20/2013  19:15:00     -413.678     -129.537       -8.935      235.554      157.223       97.879    55485.620    24719.118     9580.235       13.887        4.489      433.485      101.968        0.055      344.135       20.735      854.334
09/20/2013  19:16:00     -353.608     -293.484        6.901      248.349      189.132      103.038    61677.376    35770.943    10616.752       15.962        5.403      459.534      128.377        0.078      344.216       20.873      854.373
09/20/2013  19:17:00     -241.193     -181.532       -0.444      186.886      128.274       73.432    34926.239    16454.255     5392.322        7.394        2.839      301.875       83.047        0.076      344.145       20.752      854.413
09/20/2013  19:18:00     -247.445     -110.153        0.612      108.961      114.065       62.263    11872.477    13010.768     3876.710        5.106        1.438      270.856       57.206        0.045      343.994       20.495      854.425
09/20/2013  19:19:00     -143.638      -62.410        1.274      114.676       92.349       51.550    13150.574     8528.356     2657.399        2.443        1.217      156.611       55.150        0.124      343.963       20.443      854.484
09/20/2013  19:20:00     -337.635     -182.393      -13.283      153.968      160.000       73.798    23706.026    25600.086     5446.124       10.109        2.738      383.751       75.137        0.038      343.921       20.369      854.538
09/20/2013  19:21:00     -203.390     -101.450        5.540      135.388      144.635       63.952    18329.813    20919.385     4089.818        4.751        2.167      227.287       67.786        0.089      343.859       20.267      854.560
09/20/2013  19:22:00     -269.953      -85.790       -2.073      167.021      118.070       63.176    27896.006    13940.590     3991.233        6.302        2.291      283.257       80.312        0.080      343.820       20.197      854.540
09/20/2013  19:23:00     -392.795     -102.227       10.247      178.969      135.440       79.962    32029.803    18343.979     6393.953       11.079        2.838      405.880       84.066        0.043      343.775       20.121      854.519
09/20/2013  19:24:00     -362.565     -139.975      -15.962      196.228      152.080       76.916    38505.275    23128.263     5916.111       10.941        3.377      388.647       72.052        0.034      343.843       20.236      854.478
09/20/2013  19:25:00     -344.216     -271.764      -17.931      214.336      229.826       93.087    45939.831    52820.089     8665.098       15.002        5.371      438.566       93.362        0.045      344.016       20.531      854.381
09/20/2013  19:26:00     -432.236     -241.377      -16.224      221.884      186.270      100.667    49232.414    34696.507    10133.859       16.969        4.703      495.066      104.946        0.045      343.988       20.485      854.352
09/20/2013  19:27:00     -540.663     -139.491      -18.699      241.683      185.848      108.515    58410.463    34539.412    11775.410       20.840        5.236      558.367      115.320        0.043      344.009       20.520      854.347
09/20/2013  19:28:00     -662.773     -291.839      -26.746      311.970      219.916      118.166    97325.008    48362.969    13963.257       34.237        7.983      724.181      141.710        0.038      344.030       20.558      854.397
09/20/2013  19:29:00     -469.483     -347.920       -4.378      276.792      281.484      133.455    76614.028    79233.493    17810.142       25.754        8.683      584.348      156.628        0.072      344.043       20.580      854.498
09/20/2013  19:30:00     -487.837     -424.477        0.117      328.366      253.391      152.444   107824.466    64206.779    23239.057       30.668        9.764      646.657      171.406        0.070      344.007       20.517      854.418
09/20/2013  19:31:00     -483.208     -214.403      -14.306      271.116      211.498      110.292    73503.732    44731.193    12164.375       20.501        6.520      528.638      116.586        0.049      344.015       20.532      854.514
09/20/2013  19:32:00     -413.645     -258.700       40.905      405.286      266.612      123.606   164256.532    71081.924    15278.514       24.511       12.531      487.881      170.189        0.122      343.951       20.421      854.530
09/20/2013  19:33:00     -386.197     -223.508      -14.896      221.333      220.514       96.609    48988.488    48626.231     9333.321       15.312        5.347      446.211      104.235        0.055      344.008       20.520      854.557
09/20/2013  19:34:00     -559.690     -272.939       -0.338      284.252      250.631      124.545    80799.030    62815.799    15511.446       27.341        7.956      622.695      141.353        0.052      343.968       20.450      854.478
09/20/2013  19:35:00     -481.497     -241.509       -8.841      319.729      210.818      123.207   102226.692    44444.041    15180.034       22.602        8.093      538.671      146.158        0.074      344.013       20.527      854.426
09/20/2013  19:36:00     -523.178     -331.593       13.286      294.673      273.557      161.132    86831.998    74833.345    25963.520       28.570        9.381      619.410      151.738        0.060      344.034       20.564      854.546
09/20/2013  19:37:00     -421.916     -268.807       21.049      347.560      252.078      120.869   120798.298    63543.537    14609.216       22.479        9.948      500.270      154.020        0.095      343.988       20.484      854.581
09/20/2013  19:38:00     -236.661     -235.450        2.847      183.101      198.607       79.797    33525.917    39444.554     6367.538        9.538        3.967      333.834       84.443        0.064      343.983       20.476      854.658
09/20/2013  19:39:00     -301.185     -116.200        3.110      169.825      148.961       70.842    28840.408    22189.336     5018.621        8.013        2.802      322.823       63.315        0.038      343.924       20.374      854.651
09/20/2013  19:40:00     -442.518      -91.092      -22.445      157.519      142.932       85.267    24812.249    20429.468     7270.433       12.856        2.626      451.796       88.221        0.038      343.783       20.135      854.609
09/20/2013  19:41:00     -384.402     -151.143      -27.665      177.081      190.278       87.718    31357.846    36205.533     7694.376       12.330        3.763      413.049       96.477        0.055      343.739       20.059      854.561
09/20/2013  19:42:00     -431.503     -376.687        7.733      210.463      209.204      109.817    44294.657    43766.155    12059.730       21.411        5.006      572.789      108.404        0.036      343.859       20.264      854.517
09/20/2013  19:43:00     -415.250     -162.894      -15.821      181.454      216.962       98.788    32925.686    47072.582     9759.019       14.447        4.488      446.057       91.613        0.042      343.869       20.282      854.499
09/20/2013  19:44:00     -517.093     -199.210       12.366      347.870      292.875      142.230   121013.478    85775.934    20229.473       26.708       11.351      554.138      184.535        0.111      343.862       20.268      854.441
09/20/2013  19:45:00     -468.007     -221.442      -12.184      293.561      219.143      118.182    86178.223    48023.649    13967.008       20.816        7.408      517.752      131.217        0.064      343.884       20.308      854.485
09/20/2013  19:46:00     -546.441     -229.682       -0.141      244.260      256.373      118.812    59662.953    65727.152    14116.205       24.540        6.975      592.749      124.403        0.044      343.948       20.415      854.505
09/20/2013  19:47:00     -409.901     -342.384       -6.847      259.943      173.247      111.756    67570.210    30014.662    12489.292       19.766        5.504      534.083      113.944        0.046      343.892       20.322      854.496
09/20/2013  19:48:00     -289.377     -128.361       19.915      184.079      185.413       97.005    33885.054    34377.897     9409.995        8.913        3.884      316.569       99.986        0.100      343.853       20.256      854.503
09/20/2013  19:49:00     -292.625      -28.222        4.732      215.724      151.569       84.764    46536.820    22973.237     7184.925        8.156        3.835      293.983       91.536        0.097      343.784       20.135      854.496
09/20/2013  19:50:00     -353.239     -147.232       -1.839      245.592      168.346       95.511    60315.468    28340.312     9122.338       12.210        4.889      382.695      114.085        0.089      343.776       20.123      854.539
09/20/2013  19:51:00     -505.528     -192.858       -5.014      329.407      231.426      106.570   108509.113    53557.969    11357.250       23.307        8.671      541.067      138.352        0.065      343.715       20.019      854.472
09/20/2013  19:52:00     -537.019     -312.012      -34.708      275.319      210.175      120.078    75800.442    44173.609    14418.749       26.064        6.720      621.080      115.805        0.035      343.735       20.052      854.586
09/20/2013  19:53:00     -455.538     -287.158       12.198      280.323      235.021      124.710    78580.939    55234.753    15552.645       21.972        7.468      538.493      145.489        0.073      343.761       20.095      854.611
09/20/2013  19:54:00     -479.822     -321.360       -6.020      279.970      258.311      130.220    78382.935    66724.324    16957.267       24.777        8.103      577.496      162.572        0.079      343.805       20.173      854.553
09/20/2013  19:55:00     -395.060     -119.826      -24.051      177.993      165.863       88.444    31681.508    27510.445     7822.371       11.900        3.351      412.832       87.959        0.045      343.735       20.051      854.581
09/20/2013  19:56:00     -566.875     -274.016      -29.816      245.361      201.180      100.541    60202.129    40473.505    10108.444       25.403        5.539      629.629       97.776        0.024      343.752       20.082      854.593
09/20/2013  19:57:00     -379.776     -195.125       -1.453      262.886      197.230      112.106    69109.067    38899.576    12567.681       15.142        6.029      426.970      128.629        0.091      343.735       20.053      854.616
09/20/2013  19:58:00     -597.986     -248.492      -30.857      258.512      192.490      119.403    66828.218    37052.351    14257.130       26.919        5.907      647.561      129.464        0.040      343.735       20.053      854.687
09/20/2013  19:59:00     -375.008     -237.486      -23.169      177.725      153.753       80.412    31586.113    23639.984     6466.118       12.962        3.085      443.881       81.657        0.034      343.718       20.021      854.784
09/20/2013  20:00:00     -482.961     -264.330       -7.761      238.060      198.136       90.162    56672.391    39257.899     8129.221       20.360        5.203      550.565      105.459        0.037      343.640       19.890      854.841
09/20/2013  20:01:00     -771.593     -385.239      -47.814      344.877      244.477      128.523   118939.949    59769.071    16518.053       47.060        9.761      862.418      146.225        0.029      343.708       20.006      854.676
09/20/2013  20:02:00     -362.021     -185.597       -4.854      240.493      192.163       93.645    57836.973    36926.435     8769.388       13.451        5.177      406.824       99.183        0.059      343.687       19.971      854.822
09/20/2013  20:03:00     -532.742     -286.516      -18.457      257.267      246.751      108.228    66186.348    60885.925    11713.361       25.249        6.939      604.901      125.937        0.043      343.610       19.839      854.814
09/20/2013  20:04:00     -197.211      -41.755        9.406      169.227      127.077       79.425    28637.694    16148.649     6308.288        4.590        2.555      201.583       77.236        0.147      343.436       19.544      854.803
09/20/2013  20:05:00     -273.793      -94.721        6.207      234.715      145.804       83.034    55091.121    21258.778     6894.718        8.359        4.162      289.715      108.220        0.140      343.383       19.453      854.816
09/20/2013  20:06:00     -432.202     -190.256      -14.317      268.514      157.032       89.753    72099.533    24659.009     8055.564       16.399        5.241      472.224       90.447        0.037      343.484       19.625      854.903
09/20/2013  20:07:00     -649.370     -348.993        7.054      330.819      240.612      147.119   109440.983    57894.105    21644.010       36.622        9.449      737.209      168.629        0.052      343.680       19.958      854.753
09/20/2013  20:08:00     -577.095     -194.751       -7.136      317.953      271.618      128.485   101094.378    73776.079    16508.484       28.116        9.569      609.070      151.286        0.062      343.804       20.171      854.772
09/20/2013  20:09:00     -333.052     -104.749       36.975      326.639      216.385      118.719   106692.784    46822.391    14094.212       14.540        8.380      349.137      154.313        0.195      343.823       20.203      854.875
09/20/2013  20:10:00     -312.474     -203.239        1.940      233.766      166.497       93.051    54646.542    27721.384     8658.429       11.497        4.551      372.754      109.304        0.086      343.678       19.957      854.960
09/20/2013  20:11:00     -448.821     -291.689       -5.296      245.777      164.342       95.728    60406.373    27008.221     9163.843       19.155        4.829      535.278      107.728        0.041      343.314       19.335      855.063
09/20/2013  20:12:00     -252.277     -102.663       -8.230      133.671      159.241       65.815    17867.936    25357.845     4331.565        6.090        2.378      272.366       55.213        0.041      343.265       19.252      855.147
09/20/2013  20:13:00     -127.885       -2.241       10.478      107.707       79.521       50.162    11600.882     6323.612     2516.256        1.845        1.022      127.905       57.423        0.202      343.148       19.054      855.163
09/20/2013  20:14:00     -265.745      -46.925      -10.809      114.559       79.556       57.958    13123.854     6329.145     3359.093        4.787        1.141      269.856       63.051        0.055      343.072       18.923      855.228
09/20/2013  20:15:00     -379.517       49.361      -24.041      181.713      129.996       69.549    33019.733    16898.895     4837.033       10.089        2.738      382.713       75.695        0.039      342.964       18.739      855.235
09/20/2013  20:16:00     -275.923      -66.378      -22.675      126.475       70.264       56.477    15995.826     4937.070     3189.688        5.258        1.206      283.795       40.218        0.020      342.882       18.599      855.216
09/20/2013  20:17:00     -262.656     -145.257      -21.408      109.780       65.693       52.485    12051.748     4315.608     2754.661        5.483        0.956      300.146       55.256        0.034      342.898       18.626      855.301
09/20/2013  20:18:00     -431.342      -62.873      -26.917      177.144      161.337       70.763    31379.843    26029.765     5007.394       12.656        3.121      435.900       82.597        0.036      342.840       18.526      855.286
09/20/2013  20:19:00     -441.361       -5.036      -46.221      201.718      158.020       88.849    40690.088    24970.192     7894.094       13.524        3.678      441.390       91.359        0.043      342.907       18.642      855.125
09/20/2013  20:20:00     -315.860     -160.099      -11.773      214.596      167.870       78.409    46051.252    28180.277     6147.979       10.294        4.019      354.117      101.890        0.083      342.984       18.774      855.194
09/20/2013  20:21:00     -274.574      -44.510       -8.344      143.399      106.645       59.063    20563.417    11373.115     3488.449        5.643        1.771      278.158       69.056        0.062      342.842       18.531      855.200
09/20/2013  20:22:00     -372.865      -53.172      -10.244      184.484      142.533       77.517    34034.176    20315.709     6008.866       10.115        3.018      376.637       77.862        0.043      342.816       18.488      855.351
09/20/2013  20:23:00     -436.422       28.355      -31.918      230.738      150.738       84.577    53239.918    22721.945     7153.282       13.768        4.156      437.342      104.294        0.057      342.854       18.553      855.340
09/20/2013  20:24:00     -503.122     -209.481      -37.826      201.240      173.080       75.802    40497.601    29956.634     5745.909       18.731        3.810      544.990       77.303        0.020      342.886       18.606      855.380
09/20/2013  20:25:00     -471.880     -204.596      -14.898      208.915      208.451      105.538    43645.460    43451.629    11138.330       18.147        4.912      514.325      113.742        0.049      342.882       18.599      855.332
09/20/2013  20:26:00     -381.673     -183.888       -8.608      204.359      189.327       92.713    41762.440    35844.589     8595.629       13.287        4.310      423.662       99.053        0.055      342.842       18.531      855.382
09/20/2013  20:27:00     -304.889      -59.879      -11.196      124.776      111.270       66.987    15569.050    12381.057     4487.195        6.455        1.622      310.714       72.487        0.054      342.812       18.480      855.428
09/20/2013  20:28:00     -564.019     -169.559      -24.412      188.656      146.268       81.039    35591.031    21394.316     6567.267       20.550        3.178      588.955       80.093        0.018      342.728       18.338      855.374
09/20/2013  20:29:00     -419.390     -126.802      -29.086      159.714      122.223       79.891    25508.634    14938.492     6382.568       11.981        2.341      438.140       81.883        0.035      342.782       18.428      855.367
09/20/2013  20:30:00     -383.365      -17.815      -10.189      251.089      157.111       82.290    63045.802    24683.743     6771.725       12.093        4.725      383.779      110.188        0.082      342.660       18.223      855.460
09/20/2013  20:31:00     -560.582      -87.638      -56.072      125.553      186.420       71.686    15763.512    34752.244     5138.828       19.035        2.783      567.391       64.927        0.013      342.711       18.309      855.321
09/20/2013  20:32:00     -444.177      -66.846      -27.518      220.785      189.380       86.967    48745.821    35864.684     7563.280       14.733        4.609      449.179       91.068        0.041      342.766       18.402      855.242
09/20/2013  20:33:00     -501.649     -189.500        4.643      246.976      192.435      109.369    60996.956    37031.385    11961.687       19.877        5.500      536.248      115.276        0.046      342.907       18.643      855.391
09/20/2013  20:34:00     -603.104     -213.257      -10.702      252.800      177.185      100.893    63907.791    31394.357    10179.463       25.738        5.274      639.698      109.619        0.029      343.158       19.069      855.403
09/20/2013  20:35:00     -276.850      -74.416       35.524      191.274      196.495      105.859    36585.727    38610.169    11206.154        8.491        4.320      286.677      116.767        0.166      343.078       18.933      855.433
09/20/2013  20:36:00     -444.515     -213.105      -23.569      224.531      154.445       94.773    50414.145    23853.137     8981.928       16.339        4.162      492.958       98.497        0.040      343.111       18.987      855.448
09/20/2013  20:37:00     -386.340      -24.024      -28.387      158.202       98.147       64.190    25027.905     9632.798     4120.415        9.470        1.939      387.086       78.024        0.041      342.844       18.534      855.460
09/20/2013  20:38:00     -363.002       58.854      -53.809      124.807      170.172       70.632    15576.757    28958.489     4988.881        9.382        2.476      367.742       61.810        0.028      342.607       18.131      855.319
09/20/2013  20:39:00     -233.737      -47.840      -16.811      228.772      125.486       86.635    52336.449    15746.617     7505.549        6.638        3.779      238.583       95.814        0.161      342.589       18.103      855.307
09/20/2013  20:40:00     -268.865       -0.872      -28.082      141.004      112.395       64.965    19882.031    12632.532     4220.497        5.490        1.837      268.866       56.138        0.044      342.523       17.989      855.442
09/20/2013  20:41:00     -454.255     -143.451      -22.357      123.281      124.056       59.772    15198.319    15389.800     3572.727       13.079        1.708      476.367       54.911        0.013      342.435       17.839      855.577
09/20/2013  20:42:00     -325.959      -66.795        5.586      160.918      113.239       73.004    25894.500    12823.154     5329.553        7.739        2.202      332.733       79.987        0.058      342.390       17.763      855.597
09/20/2013  20:43:00     -370.247     -133.025      -14.017      172.677      189.759       82.574    29817.245    36008.329     6818.457       11.380        3.632      393.419       82.152        0.044      342.386       17.755      855.615
09/20/2013  20:44:00     -431.894     -191.766      -22.381      163.062      152.274       76.080    26589.092    23187.411     5788.126       13.968        2.778      472.553       73.635        0.024      342.322       17.646      855.520
09/20/2013  20:45:00     -257.064      -96.041        8.826      201.272      149.966       87.964    40510.241    22489.709     7737.606        7.305        3.537      274.419       90.761        0.109      342.614       18.143      855.516
09/20/2013  20:46:00     -278.983     -131.158      -10.923      228.962      116.264       89.857    52423.582    13517.392     8074.251        8.457        3.701      308.275      103.279        0.112      342.453       17.871      855.504
09/20/2013  20:47:00     -186.123     -137.766        2.132      132.337       93.403       64.491    17513.034     8724.067     4159.062        4.200        1.520      231.562       59.899        0.067      342.420       17.813      855.638
09/20/2013  20:48:00     -233.917      -81.382       13.637      136.065      110.193       69.687    18513.654    12142.428     4856.347        4.851        1.776      247.670       80.306        0.105      342.360       17.714      855.662
09/20/2013  20:49:00     -159.389     -171.343        5.021      118.693       99.805       51.930    14088.068     9961.024     2696.696        4.076        1.337      234.016       55.214        0.056      342.347       17.690      855.673
09/20/2013  20:50:00     -276.711     -185.563      -20.431      122.101      127.107       58.371    14908.694    16156.160     3407.214        7.294        1.724      333.170       49.670        0.022      342.423       17.817      855.649
09/20/2013  20:51:00     -307.809      -55.759      -32.395      121.190       92.157       70.196    14686.985     8492.908     4927.518        6.350        1.405      312.819       54.255        0.030      342.498       17.946      855.582
09/20/2013  20:52:00     -247.107      -44.204       -7.595      121.819      116.263       66.014    14839.991    13517.079     4357.784        4.789        1.636      251.029       71.527        0.081      342.474       17.905      855.600
09/20/2013  20:53:00     -202.933      -95.359       -7.533      136.807       74.735       47.815    18716.222     5585.280     2286.266        3.845        1.329      224.221       58.865        0.069      342.403       17.784      855.623
09/20/2013  20:54:00     -128.590     -138.973        3.021       92.078       77.150       42.025     8478.388     5952.056     1766.126        2.602        0.810      189.338       39.164        0.043      342.361       17.716      855.636
09/20/2013  20:55:00     -257.466     -192.302      -12.087       94.718       99.645       53.209     8971.534     9929.174     2831.232        6.257        1.087      321.355       52.454        0.027      342.352       17.698      855.684
09/20/2013  20:56:00     -391.131     -231.831      -18.444      124.766      131.706       75.791    15566.627    17346.395     5744.224       12.286        1.933      454.675       71.978        0.025      342.318       17.641      855.746
09/20/2013  20:57:00     -576.059      -41.857      -49.963      200.150      148.547       86.538    40059.914    22066.250     7488.778       20.284        3.481      577.578       79.706        0.019      342.359       17.709      855.663
09/20/2013  20:58:00     -361.939      -98.092       -9.490      177.325      132.797       85.785    31444.218    17635.132     7359.058        9.856        2.822      374.996       91.838        0.060      342.310       17.627      855.577
09/20/2013  20:59:00     -279.103     -116.566       -5.755      160.632      109.342       65.720    25802.524    11955.664     4319.063        6.679        2.104      302.467       60.368        0.040      342.274       17.566      855.703
09/20/2013  21:00:00     -187.509      -16.889       -6.515      121.594      131.984       68.553    14785.076    17419.834     4699.473        3.619        1.845      188.268       69.148        0.135      342.327       17.658      855.646
09/20/2013  21:01:00     -376.214     -131.506       -6.259      145.248      136.117       67.634    21097.055    18527.809     4574.358       10.153        2.210      398.536       70.428        0.031      342.482       17.921      855.571
09/20/2013  21:02:00     -327.404     -180.397      -13.425      134.852      159.235       68.864    18185.009    25355.823     4742.192        9.409        2.414      373.814       69.193        0.034      342.490       17.933      855.576
09/20/2013  21:03:00     -294.512     -111.782       -7.621      141.752      120.019       71.817    20093.708    14404.531     5157.740        6.947        1.983      315.012       73.736        0.055      342.361       17.713      855.612
09/20/2013  21:04:00     -168.604     -114.755       12.993      103.201       96.430       60.136    10650.480     9298.721     3616.279        3.266        1.178      203.951       59.225        0.084      342.247       17.520      855.673
09/20/2013  21:05:00     -151.909      -73.051       10.687      139.083      110.811       74.575    19344.041    12279.108     5561.452        3.285        1.859      168.561       83.286        0.244      342.306       17.622      855.600
09/20/2013  21:06:00     -282.816      -32.898       -8.376      205.006      127.064       72.132    42027.498    16145.230     5202.975        7.224        3.169      284.723       97.852        0.118      342.284       17.582      855.520
09/20/2013  21:07:00     -376.178     -117.238      -16.536      220.183      168.405       82.018    48480.418    28360.305     6727.027       11.953        4.178      394.024       98.980        0.063      342.490       17.934      855.528
09/20/2013  21:08:00     -372.985     -217.580       -6.263      202.014      168.652       90.011    40809.572    28443.517     8102.049       13.191        3.868      431.808       90.694        0.044      342.660       18.223      855.460
09/20/2013  21:09:00     -381.386     -134.696       -8.218      259.890      211.862      102.242    67543.017    44885.698    10453.492       14.325        6.144      404.473      121.178        0.090      342.724       18.330      855.456
09/20/2013  21:10:00     -377.364     -138.857      -12.550      201.515      203.822       91.444    40608.462    41543.524     8361.993       12.616        4.526      402.100       93.803        0.054      342.622       18.159      855.448
09/20/2013  21:11:00     -400.979      -23.586      -20.561      153.484      154.472       73.142    23557.272    23861.518     5349.806       10.726        2.638      401.673       77.436        0.037      342.393       17.768      855.422
09/20/2013  21:12:00     -361.451     -124.137      -12.246      175.496      126.537       64.869    30798.965    16011.594     4207.978        9.860        2.551      382.174       81.291        0.045      342.285       17.585      855.436
09/20/2013  21:13:00     -341.089     -258.305      -15.476      212.385      149.636       90.169    45107.570    22391.039     8130.463       12.945        3.781      427.859       64.870        0.023      342.510       17.969      855.358
09/20/2013  21:14:00     -605.804     -140.562      -24.520      235.138      155.079       89.675    55289.686    24049.467     8041.545       23.735        4.369      621.898      103.442        0.028      342.381       17.749      855.408
09/20/2013  21:15:00     -620.117      -86.623      -42.704      280.550      194.163       97.595    78708.482    37699.245     9524.711       25.988        6.297      626.138      111.680        0.032      342.139       17.336      855.412
09/20/2013  21:16:00     -455.117     -145.623       -9.288      156.339      153.203       79.693    24441.916    23471.228     6350.971       14.133        2.713      477.846       64.013        0.018      342.104       17.276      855.429
09/20/2013  21:17:00     -351.544      -90.660        8.303      221.818      152.760       95.225    49203.211    23335.613     9067.777       10.672        4.080      363.046      120.400        0.110      342.106       17.279      855.462
09/20/2013  21:18:00     -402.054     -129.888      -29.152      183.935      120.293       64.305    33831.924    14470.485     4135.172       11.589        2.622      422.514       58.458        0.019      342.082       17.239      855.515
09/20/2013  21:19:00     -206.846     -113.508        6.085      185.925      137.372       92.302    34568.047    18870.930     8519.657        5.882        3.098      235.943       80.110        0.115      342.123       17.308      855.392
09/20/2013  21:20:00     -429.321     -160.356       -9.970      234.184      127.528       80.414    54842.104    16263.382     6466.432       14.384        3.879      458.291      101.317        0.049      342.346       17.688      855.383
09/20/2013  21:21:00     -575.188     -183.972      -17.509      184.052      103.809       76.221    33875.071    10776.406     5809.606       20.772        2.523      603.893       79.259        0.017      342.318       17.640      855.390
09/20/2013  21:22:00     -439.848      -50.410      -12.778      192.590      134.653       73.799    37090.869    18131.430     5446.280       12.841        3.033      442.727       85.385        0.037      342.186       17.418      855.444
09/20/2013  21:23:00     -263.874     -147.209       -9.838      184.939      159.358       75.933    34202.543    25395.117     5765.768        7.837        3.268      302.159       93.303        0.095      342.173       17.396      855.497
09/20/2013  21:24:00     -385.650      -32.018      -23.557      194.335      156.443       71.503    37766.088    24474.400     5112.691       10.882        3.368      386.977       83.141        0.046      342.138       17.335      855.458
09/20/2013  21:25:00     -398.904     -101.097      -20.358      137.460      167.436       70.522    18895.154    28034.893     4973.314       11.082        2.595      411.515       66.907        0.026      342.192       17.426      855.353
09/20/2013  21:26:00     -453.033     -185.609       -5.987      190.171      144.157       90.104    36164.871    20781.189     8118.716       15.238        3.253      489.581       97.776        0.040      342.488       17.930      855.364
09/20/2013  21:27:00     -283.467     -150.602       11.812      252.359      174.095      103.585    63685.086    30309.117    10729.826       10.393        5.236      320.990      120.586        0.141      342.568       18.067      855.364
09/20/2013  21:28:00     -347.388     -207.641      -13.449      190.717      135.513       79.365    36373.139    18363.824     6298.779       11.249        3.052      404.714       83.097        0.042      342.659       18.220      855.373
09/20/2013  21:29:00     -427.944     -112.957       -2.865      155.552      144.462       89.512    24196.339    20869.411     8012.441       12.448        2.654      442.601       94.719        0.046      342.558       18.048      855.433
09/20/2013  21:30:00     -307.568     -185.932        0.127      212.168      197.967      104.307    45015.335    39190.969    10879.988       11.211        4.754      359.401      114.823        0.102      342.564       18.057      855.393
09/20/2013  21:31:00     -450.639     -198.425      -33.481      187.705      162.828       87.803    35233.177    26512.944     7709.288       15.650        3.473      492.390      102.420        0.043      342.660       18.223      855.396
09/20/2013  21:32:00     -567.125     -268.905      -15.455      196.412      198.422       91.980    38577.681    39371.202     8460.324       24.028        4.320      627.646       95.247        0.023      342.663       18.227      855.429
09/20/2013  21:33:00     -501.983      -94.827      -15.798      183.171      145.035       98.226    33551.689    21035.291     9648.424       16.272        3.212      510.861       94.233        0.034      342.768       18.406      855.431
09/20/2013  21:34:00     -314.111     -129.690        3.244      228.945      171.938      102.129    52415.824    29562.676    10430.351       10.393        4.620      339.831      102.327        0.091      342.672       18.241      855.449
09/20/2013  21:35:00     -433.977     -107.424      -19.491      229.877      213.323       93.294    52843.529    45506.558     8703.848       15.363        5.353      447.075      107.579        0.058      342.483       17.920      855.386
09/20/2013  21:36:00     -557.542     -179.285      -32.048      324.027      228.920      100.235   104993.525    52404.159    10047.103       25.570        8.372      585.659      108.122        0.034      342.682       18.260      855.364
09/20/2013  21:37:00     -443.399      -89.856        2.202      294.750      202.064       97.139    86877.522    40829.907     9436.032       17.089        6.857      452.412      110.759        0.060      342.635       18.179      855.439
09/20/2013  21:38:00     -520.397     -159.939       -9.606      349.409      216.175      119.788   122086.351    46731.492    14349.176       23.979        9.158      544.420      152.458        0.078      342.801       18.462      855.338
09/20/2013  21:39:00     -344.838     -250.934       18.591      275.716      238.691      119.050    76019.250    56973.238    14172.842       16.467        7.358      426.476      136.002        0.102      342.728       18.338      855.319
09/20/2013  21:40:00     -418.086     -308.366      -18.682      260.104      204.027      109.445    67654.275    41627.166    11978.120       19.572        6.063      519.505      119.301        0.053      342.351       17.696      855.571
09/20/2013  21:41:00     -502.663     -127.890      -30.985      186.860      143.385       84.151    34916.506    20559.275     7081.421       16.626        3.128      518.677       95.369        0.034      342.164       17.379      855.564
09/20/2013  21:42:00     -296.824     -175.114      -12.821      151.428      117.927       71.899    22930.449    13906.879     5169.497        8.046        2.100      344.629       68.890        0.040      342.120       17.304      855.550
09/20/2013  21:43:00     -398.588     -121.970       -9.157      205.315      164.100       80.884    42154.312    26928.842     6542.145       12.471        3.781      416.832       97.196        0.054      342.012       17.120      855.534
09/20/2013  21:44:00     -440.123     -125.124      -36.276      195.819      127.742       78.616    38344.928    16318.072     6180.430       13.575        3.042      457.564       90.251        0.039      341.998       17.095      855.450
09/20/2013  21:45:00     -331.491     -109.289      -18.749      203.653      153.281       75.917    41474.669    23495.066     5763.376        9.644        3.537      349.042       79.476        0.052      341.949       17.013      855.489
09/20/2013  21:46:00     -340.119     -129.482       -6.953      121.053      139.182       58.607    14653.868    19371.537     3434.798        8.497        1.873      363.932       48.901        0.018      341.919       16.962      855.626
09/20/2013  21:47:00     -391.326     -142.449       -1.229      190.499      145.166       77.984    36289.793    21073.255     6081.484       11.842        3.172      416.447       82.258        0.039      341.888       16.910      855.757
09/20/2013  21:48:00     -312.990      -49.199        5.683      165.892      107.659       68.650    27520.183    11590.530     4712.885        7.211        2.191      316.833       62.665        0.039      341.868       16.876      855.729
09/20/2013  21:49:00     -385.894      -54.871      -23.715      142.715      109.025       65.126    20367.458    11886.513     4241.382        9.448        1.825      389.776       67.703        0.030      341.806       16.770      855.681
09/20/2013  21:50:00     -366.708      -60.031      -23.199      126.272      103.225       57.215    15944.683    10655.479     3273.526        8.424        1.494      371.589       58.505        0.025      341.754       16.682      855.658
09/20/2013  21:51:00     -325.902       68.152      -33.692      141.047       92.164       52.022    19894.304     8494.166     2706.263        7.154        1.555      332.952       65.827        0.039      341.821       16.797      855.574
09/20/2013  21:52:00     -184.274        8.935      -12.594      119.133      139.696       63.761    14192.779    19515.032     4065.446        3.598        1.889      184.490       48.255        0.068      341.850       16.848      855.533
09/20/2013  21:53:00      -99.552      -35.340       -0.978      125.962      126.681       55.654    15866.358    16048.086     3097.417        2.308        1.751      105.639       49.089        0.216      341.797       16.758      855.510
09/20/2013  21:54:00      -27.646      -89.438       13.397       88.606       73.525       56.801     7851.038     5405.874     3226.360        1.271        0.824       93.613       38.587        0.170      341.746       16.673      855.533
09/20/2013  21:55:00     -170.068     -199.974      -15.301      141.372      162.586       53.175    19986.168    26434.130     2827.588        5.919        2.462      262.512       39.819        0.023      341.842       16.833      855.655
09/20/2013  21:56:00     -437.015      -31.905      -28.638      176.680      148.159       65.198    31215.979    21951.206     4250.773       12.511        2.871      438.178       81.965        0.035      341.825       16.802      855.656
09/20/2013  21:57:00     -453.173     -100.279      -13.700      200.309      159.614       82.899    40123.872    25476.611     6872.209       14.403        3.624      464.136       91.954        0.039      341.812       16.780      855.618
09/20/2013  21:58:00     -394.596      -72.793      -22.891      155.344      115.197       71.813    24131.606    13270.243     5157.134       10.204        2.128      401.254       79.548        0.039      341.704       16.598      855.623
09/20/2013  21:59:00     -395.658      -85.484      -19.964      216.425      160.412       90.676    46839.885    25731.988     8222.067       12.251        4.040      404.787       93.289        0.053      341.680       16.559      855.510
09/20/2013  22:00:00     -382.009      -99.864      -28.086      196.309      155.231       75.612    38537.413    24096.689     5717.244       11.251        3.418      394.847       87.421        0.049      341.699       16.591      855.541
09/20/2013  22:01:00     -490.078      -98.050      -39.205      204.197      180.986       92.150    41696.237    32756.082     8491.686       16.712        4.147      499.790       84.842        0.029      341.753       16.681      855.559
09/20/2013  22:02:00     -493.287      -91.395       -5.013      195.538      151.712       81.972    38234.993    23016.656     6719.408       15.983        3.399      501.682       96.832        0.037      341.821       16.798      855.583
09/20/2013  22:03:00     -374.605     -153.115      -13.780      151.445      129.828       72.502    22935.621    16855.339     5256.578       10.450        2.252      404.689       71.695        0.031      341.789       16.742      855.612
09/20/2013  22:04:00     -363.497      -51.509      -37.543       90.641       92.973       50.148     8215.701     8643.937     2514.846        7.778        0.969      367.128       42.032        0.013      341.732       16.645      855.670
09/20/2013  22:05:00     -268.704       -2.724      -13.434      146.438       98.675       71.072    21444.074     9736.780     5051.227        5.430        1.812      268.718       83.732        0.097      341.700       16.592      855.659
09/20/2013  22:06:00       18.964     -198.165      -30.160      167.725      191.522       73.915    28131.742    36680.722     5463.493        5.539        3.514      199.070       82.661        0.172      341.782       16.730      855.557
09/20/2013  22:07:00       42.309     -161.863       10.960      116.164      116.409       80.433    13494.053    13550.997     6469.415        3.081        1.676      167.301       63.104        0.142      342.312       17.630      855.591
09/20/2013  22:08:00       24.869     -215.690      -22.554      135.486       86.798       60.229    18356.573     7533.940     3627.550        3.858        1.476      217.119       45.460        0.044      342.505       17.956      855.658
09/20/2013  22:09:00     -227.735     -206.341      -19.275      133.154      105.520       42.741    17729.887    11134.566     1826.786        6.275        1.535      307.310       30.584        0.010      342.447       17.861      855.790
09/20/2013  22:10:00     -288.076     -202.930       -2.923      128.452      118.027       67.885    16499.813    13930.437     4608.389        7.960        1.752      352.375       62.062        0.031      342.326       17.654      855.883
09/20/2013  22:11:00     -292.281      -89.811       -8.419      152.007      159.429       79.982    23106.050    25417.493     6397.087        7.423        2.746      305.768       87.248        0.081      342.038       17.165      855.880
09/20/2013  22:12:00     -241.269      -16.648      -25.371      151.952       93.469       56.606    23089.266     8736.420     3204.262        4.707        1.751      241.843       70.857        0.086      341.897       16.925      855.788
09/20/2013  22:13:00     -156.349      -37.118      -13.967       60.348       75.061       37.656     3641.879     5634.144     1417.982        1.835        0.535      160.695       17.986        0.013      341.890       16.915      855.714
09/20/2013  22:14:00      -46.616       -9.447       -7.817       37.856       30.981       23.899     1433.072      959.793      571.161        0.264        0.148       47.564       10.220        0.046      341.872       16.888      855.702
09/20/2013  22:15:00      -36.775      -38.904        9.751      114.395       44.066       35.853    13086.295     1941.823     1285.470        0.963        0.816       53.534       44.655        0.696      341.843       16.836      855.768
09/20/2013  22:16:00      -94.214      -65.195       -7.735       74.225       38.968       32.989     5509.294     1518.476     1088.267        1.065        0.406      114.572       44.329        0.150      341.782       16.733      855.773
09/20/2013  22:17:00      -74.304      -70.622        4.810       56.947       59.093       31.559     3242.985     3491.933      995.968        0.913        0.387      102.511       35.146        0.118      341.786       16.740      855.822
09/20/2013  22:18:00      -85.989      -60.465       -3.662       55.839       37.667       29.409     3117.942     1418.839      864.882        0.823        0.270      105.120       29.354        0.078      341.741       16.665      855.875
09/20/2013  22:19:00     -248.198       42.836      -17.535       85.918       57.898       30.392     7381.878     3352.136      923.645        3.770        0.583      251.867       38.838        0.024      341.752       16.678      855.772
09/20/2013  22:20:00     -101.844      -67.055       -0.943       74.800       46.667       22.881     5595.108     2177.780      523.528        1.158        0.415      121.937       28.994        0.057      341.704       16.599      855.798
09/20/2013  22:21:00       31.852       26.593       22.873       56.212       32.908       25.302     3159.773     1082.936      640.183        0.356        0.244       41.494       23.996        0.334      341.596       16.418      855.840
09/20/2013  22:22:00       75.041       47.762       54.838       73.799       67.266       54.516     5446.324     4524.705     2972.037        1.193        0.647       88.952       48.909        0.302      341.616       16.452      855.876
09/20/2013  22:23:00       10.826       23.234      -14.718       30.543       48.413       21.085      932.866     2343.806      444.597        0.230        0.186       25.632       23.175        0.817      341.643       16.498      855.891
09/20/2013  22:24:00      -85.764       37.566      -15.099       22.618       29.170       14.766      511.552      850.880      218.032        0.529        0.079       93.630       14.685        0.025      341.599       16.423      855.868
09/20/2013  22:25:00      -75.541       17.119       -4.138       28.511       28.023       20.876      812.862      785.302      435.826        0.402        0.102       77.457       12.072        0.024      341.486       16.230      855.872
09/20/2013  22:26:00     -118.390       41.260      -16.767       51.617       41.702       27.704     2664.324     1739.087      767.507        1.058        0.259      125.374       23.343        0.035      341.468       16.201      855.888
09/20/2013  22:27:00     -118.768       81.640      -17.244       62.201       49.564       35.189     3868.944     2456.546     1238.235        1.431        0.378      144.121       29.626        0.042      341.469       16.201      855.892
09/20/2013  22:28:00     -133.047       59.858      -19.865       41.367       48.894       25.003     1711.200     2390.596      625.148        1.320        0.236      145.892       20.790        0.020      341.604       16.432      855.898
09/20/2013  22:29:00     -142.088      163.012      -36.556       26.689       27.688       20.228      712.320      766.614      409.154        2.499        0.094      216.245       15.925        0.005      341.636       16.483      855.841
09/20/2013  22:30:00     -182.321      111.432      -27.694       56.576       50.642       40.036     3200.863     2564.586     1602.850        2.690        0.368      213.677       28.874        0.018      341.546       16.330      855.731
09/20/2013  22:31:00     -219.387       35.823      -17.299       55.770       53.581       40.221     3110.270     2870.874     1617.742        2.865        0.380      222.292       33.041        0.022      341.610       16.440      855.742
09/20/2013  22:32:00      -91.346      -23.129       -3.036      107.289       48.435       44.523    11510.928     2345.947     1982.323        1.236        0.792       94.229       54.086        0.329      341.593       16.412      855.805
09/20/2013  22:33:00      -42.136      -49.384       -0.980       69.603       52.062       25.519     4844.545     2710.443      651.196        0.621        0.410       64.917       25.231        0.151      341.729       16.644      855.854
09/20/2013  22:34:00      -31.975      -80.396       -2.744       75.651       51.202       26.775     5723.021     2621.616      716.875        0.828        0.453       86.521       32.605        0.142      341.851       16.851      855.861
09/20/2013  22:35:00      -43.584      -60.428       -4.580       23.104       63.481       17.961      533.798     4029.835      322.596        0.523        0.244       74.506       22.384        0.090      341.783       16.735      855.807
09/20/2013  22:36:00       14.974       95.373      -14.871       27.918       25.695       24.889      779.431      660.258      619.470        0.580        0.103       96.541       16.069        0.028      341.600       16.424      855.668
09/20/2013  22:37:00        3.032       21.552       15.315       20.242       17.953       22.011      409.734      322.316      484.468        0.096        0.061       21.764       15.429        0.503      341.516       16.282      855.592
09/20/2013  22:38:00      -87.853      -62.422       -5.000       66.073       51.575       35.112     4365.704     2660.022     1232.857        0.995        0.413      107.772       26.770        0.062      341.620       16.459      855.661
09/20/2013  22:39:00     -116.070     -122.335       11.524      118.554       84.207       56.003    14055.019     7090.776     3136.373        2.642        1.214      168.636       65.636        0.151      341.551       16.339      855.777
09/20/2013  22:40:00      -18.499      -18.863       19.164      189.788      136.240       64.059    36019.493    18561.436     4103.539        2.986        2.934       26.420       76.166        8.311      341.551       16.341      855.770
09/20/2013  22:41:00     -123.588      -98.272       23.762      195.779      166.871       89.752    38329.604    27845.986     8055.496        4.985        3.712      157.897      105.134        0.443      341.858       16.861      855.515
09/20/2013  22:42:00     -169.365     -119.375        6.841      168.515      118.345       58.588    28397.262    14005.527     3432.519        4.440        2.292      207.208       64.778        0.098      341.759       16.692      855.529
09/20/2013  22:43:00     -476.876     -189.924      -16.014      186.121      201.256       84.791    34641.075    40503.973     7189.460       17.302        4.117      513.305       87.429        0.029      341.774       16.717      855.617
09/20/2013  22:44:00     -215.141     -112.947       24.682      192.335      114.310       62.246    36992.864    13066.767     3874.572        5.678        2.697      242.987       75.477        0.096      341.978       17.064      855.521
09/20/2013  22:45:00     -378.284     -249.418        0.545      222.955      153.985       90.779    49708.719    23711.229     8240.761       14.347        4.083      453.110      116.857        0.067      341.931       16.982      855.577
09/20/2013  22:46:00     -287.082     -112.987        3.187      202.204      147.787       68.213    40886.645    21840.865     4652.957        8.127        3.369      308.516       84.689        0.075      341.767       16.704      855.623
09/20/2013  22:47:00     -229.572      -79.227       12.376      150.112      107.986       74.724    22533.549    11660.982     5583.607        4.945        1.989      242.859       84.798        0.122      341.656       16.517      855.688
09/20/2013  22:48:00     -227.034       21.209      -12.212       94.808       81.364       46.725     8988.493     6620.098     2183.232        3.496        0.890      228.023       48.123        0.045      341.616       16.450      855.715
09/20/2013  22:49:00     -185.143      -51.159       -8.030       59.815       67.255       34.332     3577.787     4523.249     1178.710        2.312        0.464      192.081       33.688        0.031      341.530       16.305      855.764
09/20/2013  22:50:00     -133.263      -65.413        6.340       66.243       71.847       40.132     4388.115     5161.982     1610.556        1.662        0.558      148.451       35.789        0.058      341.571       16.374      855.823
09/20/2013  22:51:00      -73.322     -124.638        1.552       78.838       89.615       34.605     6215.383     8030.926     1197.484        1.818        0.772      144.606       32.945        0.052      341.706       16.604      855.775
09/20/2013  22:52:00      -96.136     -112.099       -8.973       80.480      103.494       37.235     6477.044    10711.018     1386.426        2.023        0.929      147.676       43.040        0.085      341.679       16.558      855.737
09/20/2013  22:53:00      -27.451     -129.655       -3.338      101.151       53.749       41.546    10231.574     2888.987     1726.094        1.621        0.742      132.529       29.963        0.051      341.715       16.619      855.815
09/20/2013  22:54:00     -112.994     -202.323       -9.148       69.466       84.540       45.023     4825.584     7147.062     2027.073        3.389        0.700      231.737       34.418        0.022      341.640       16.491      855.797
09/20/2013  22:55:00     -120.265      -78.014      -10.796      111.899       40.095       31.624    12521.313     1607.607     1000.065        1.789        0.756      143.352       37.601        0.069      341.627       16.469      855.682
09/20/2013  22:56:00      -80.096      -65.442       -7.491       74.539       42.985       42.111     5556.062     1847.702     1773.340        0.996        0.459      103.431       44.322        0.184      341.559       16.356      855.617
09/20/2013  22:57:00      -59.663     -114.736        1.811       67.837       53.394       28.239     4601.889     2850.935      797.429        1.249        0.413      129.322       32.896        0.065      341.558       16.353      855.673
09/20/2013  22:58:00      -89.628      -68.546       -3.742       52.762       58.208       25.286     2783.817     3388.123      639.405        0.978        0.341      112.835       34.637        0.094      341.503       16.260      855.701
09/20/2013  22:59:00      -13.748      -92.060       -2.584       70.180       63.069       53.108     4925.166     3977.690     2820.462        1.019        0.586       93.081       35.181        0.143      341.555       16.349      855.750
09/20/2013  23:00:00       18.392     -106.905      -17.762       58.228       57.161       33.921     3390.477     3267.409     1150.612        0.994        0.390      108.476       31.184        0.083      341.497       16.248      855.801
09/20/2013  23:01:00      -71.316     -126.957       -7.340       34.548       65.959       27.019     1193.571     4350.561      730.008        1.376        0.314      145.616       10.644        0.005      341.661       16.529      855.840
09/20/2013  23:02:00      -74.200      -41.243        2.984       35.296       33.426       21.140     1245.818     1117.269      446.880        0.501        0.140       84.892       17.352        0.042      341.542       16.327      855.824
09/20/2013  23:03:00       13.866       44.520       -2.990       50.787       41.604       36.437     2579.317     1730.861     1327.636        0.391        0.282       46.630       33.093        0.504      341.496       16.248      855.793
09/20/2013  23:04:00       55.845       99.785       -9.297       37.624       48.073       24.280     1415.601     2310.979      589.529        0.874        0.216      114.349       21.989        0.037      341.475       16.212      855.716
09/20/2013  23:05:00      -19.781       83.462       -6.308       39.537       48.994       23.891     1563.142     2400.392      570.772        0.596        0.227       85.774       10.437        0.015      341.356       16.011      855.699
09/20/2013  23:06:00      -94.316       98.518      -13.440       29.791       66.081       28.185      887.488     4366.645      794.382        1.241        0.302      136.386       18.570        0.019      341.373       16.039      855.687
09/20/2013  23:07:00      -47.828       -8.688       -4.835       45.265       21.204       17.073     2048.913      449.603      291.480        0.259        0.139       48.610       20.302        0.174      341.394       16.076      855.679
09/20/2013  23:08:00      -14.947       31.612       11.293       86.138       47.464       31.814     7419.688     2252.833     1012.141        0.602        0.534       34.968       42.101        1.450      341.375       16.044      855.661
09/20/2013  23:09:00       24.944       53.812       10.285       15.084       31.709       20.629      227.513     1005.490      425.571        0.264        0.083       59.312        7.441        0.016      341.271       15.868      855.655
09/20/2013  23:10:00      -11.252       16.895       -6.172       32.231       20.008        9.340     1038.814      400.316       87.233        0.099        0.076       20.299        8.068        0.158      341.326       15.959      855.622
09/20/2013  23:11:00       12.523       33.303       29.951       19.295       20.725       24.450      372.302      429.522      597.798        0.178        0.070       35.579       18.651        0.275      341.228       15.795      855.677
09/20/2013  23:12:00       49.144       62.010       46.177       46.843       25.920       34.903     2194.233      671.859     1218.232        0.624        0.204       79.123       32.505        0.169      341.244       15.821      855.658
09/20/2013  23:13:00       28.730       60.346      -12.297       29.437       35.042       17.279      866.511     1227.923      298.576        0.351        0.120       66.836       19.390        0.084      341.259       15.848      855.580
09/20/2013  23:14:00      -22.163       77.849      -21.142       34.972       37.775       12.130     1223.073     1426.939      147.140        0.490        0.140       80.942       12.426        0.024      341.426       16.130      855.532
09/20/2013  23:15:00      -60.271       35.070      -12.991       23.079       30.955       15.634      532.630      958.220      244.408        0.338        0.087       69.731        3.623        0.003      341.473       16.210      855.611
09/20/2013  23:16:00     -106.506      -42.417       -7.389       29.264       22.084       13.368      856.404      487.719      178.708        0.736        0.076      114.642        9.590        0.007      341.291       15.900      855.692
09/20/2013  23:17:00      -94.083      -78.924        1.870       45.797       40.544       21.598     2097.385     1643.802      466.483        0.965        0.210      122.803       20.529        0.028      341.235       15.807      855.736
09/20/2013  23:18:00      -44.315      -62.267        7.908       60.364       51.490       27.228     3643.835     2651.270      741.368        0.647        0.352       76.427       30.832        0.163      341.317       15.946      855.736
09/20/2013  23:19:00      -79.960      -91.742       -1.395       50.496       48.870       28.335     2549.815     2388.296      802.850        1.028        0.287      121.697       28.572        0.055      341.391       16.072      855.692
09/20/2013  23:20:00      -63.198      -61.897        5.498       61.046       61.051       38.214     3726.581     3727.245     1460.332        0.838        0.446       88.460       38.439        0.189      341.302       15.919      855.678
09/20/2013  23:21:00      -39.358      -11.468       -4.317       22.453       22.446       17.165      504.139      503.830      294.648        0.150        0.065       40.994       13.552        0.109      341.189       15.729      855.699
09/20/2013  23:22:00      -58.087      -34.731       -6.514       26.652       17.469       11.661      710.319      305.178      135.969        0.289        0.058       67.678        7.428        0.012      341.305       15.925      855.696
09/20/2013  23:23:00        2.654      -60.320        8.328       23.340       40.416       19.941      544.776     1633.484      397.643        0.314        0.129       60.379       24.140        0.160      341.331       15.970      855.722
09/20/2013  23:24:00      -56.553      -88.605       -4.261       32.457       39.117       17.291     1053.449     1530.165      298.979        0.697        0.144      105.114       17.776        0.029      341.371       16.036      855.772
09/20/2013  23:25:00     -144.742      -85.863      -11.254       37.240       52.035       24.871     1386.834     2707.625      618.571        1.658        0.236      168.294       19.600        0.014      341.276       15.873      855.782
09/20/2013  23:26:00      -64.629      -27.456       -4.117       43.033       21.659       23.608     1851.856      469.107      557.340        0.391        0.144       70.219       23.705        0.114      341.228       15.795      855.736
09/20/2013  23:27:00     -104.114      -34.085       -7.588       41.280       24.026       18.392     1704.054      577.253      338.252        0.734        0.131      109.552       15.133        0.019      341.183       15.721      855.721
09/20/2013  23:28:00     -130.143      -34.772      -10.779       39.677       39.696       19.025     1574.288     1575.798      361.942        1.089        0.176      134.708       14.980        0.012      341.197       15.744      855.739
09/20/2013  23:29:00     -129.486        8.167       -9.602       28.387       25.466       17.630      805.835      648.529      310.826        0.934        0.088      129.743       11.102        0.007      341.184       15.721      855.757
09/20/2013  23:30:00     -125.277      -41.447       -1.985       49.521       36.848       23.150     2452.351     1357.794      535.940        1.088        0.217      131.955       26.319        0.040      341.072       15.529      855.722
09/20/2013  23:31:00     -138.031      -74.289       -3.051       75.150       40.882       31.448     5647.548     1671.311      988.998        1.644        0.415      156.752       33.928        0.047      341.086       15.554      855.709
09/20/2013  23:32:00      -91.763      -55.680       -2.161       32.066       30.157       22.179     1028.242      909.427      491.905        0.698        0.121      107.335       15.010        0.020      341.107       15.590      855.690
09/20/2013  23:33:00      -45.322      -53.504       11.980       51.899       34.843       26.723     2693.455     1214.028      714.128        0.484        0.231       70.120       29.804        0.181      341.069       15.526      855.680
09/20/2013  23:34:00      -60.133      -41.365       -2.070       31.571       28.371       15.043      996.701      804.891      226.295        0.368        0.101       72.986       12.946        0.031      341.071       15.528      855.713
09/20/2013  23:35:00      -65.122        6.267       -3.673       27.855       19.189       13.379      775.878      368.211      178.988        0.281        0.066       65.423       10.084        0.024      340.908       15.254      855.713
09/20/2013  23:36:00     -145.882       25.450       -7.074       23.532       23.660       16.306      553.761      559.786      265.885        1.168        0.069      148.085       11.429        0.006      340.942       15.312      855.679
09/20/2013  23:37:00      -20.538        5.458        5.271       39.156       17.632       18.924     1533.201      310.882      358.122        0.134        0.110       21.250       22.743        1.145      340.725       14.944      855.645
09/20/2013  23:38:00        8.063      -41.482       -4.865       25.464       28.047       10.517      648.422      786.652      110.598        0.168        0.077       42.258        9.264        0.048      340.941       15.310      855.707
09/20/2013  23:39:00      -27.441     -118.899      -10.673       23.041       28.939       17.442      530.884      837.493      304.229        0.834        0.084      122.024        9.574        0.006      341.094       15.569      855.810
09/20/2013  23:40:00      -21.138     -102.339        3.006       32.675       35.519       23.273     1067.627     1261.612      541.650        0.690        0.144      104.499       19.838        0.036      341.178       15.710      855.814
09/20/2013  23:41:00      -73.388      -97.968       10.199       76.874       63.563       27.696     5909.589     4040.253      767.063        1.290        0.536      122.407       25.515        0.043      341.174       15.703      855.762
09/20/2013  23:42:00      -70.194      -53.203        2.497       50.947       37.643       25.736     2595.572     1417.009      662.326        0.622        0.234       88.078       21.489        0.060      341.059       15.509      855.708
09/20/2013  23:43:00      -74.940      -46.597       -2.442       87.110       37.403       22.590     7588.088     1399.016      510.324        0.864        0.475       88.245       26.169        0.088      341.026       15.451      855.691
09/20/2013  23:44:00     -166.083      -51.730        3.061       73.858       62.082       36.249     5454.977     3854.226     1313.967        2.044        0.531      173.953       30.542        0.031      340.987       15.385      855.711
09/20/2013  23:45:00     -112.342      -43.000       -7.462       43.973       54.456       27.339     1933.648     2965.428      747.415        1.008        0.282      120.290       22.698        0.036      341.044       15.483      855.703
09/20/2013  23:46:00      -56.047      -32.453        7.518       45.819       38.720       21.067     2099.378     1499.264      443.825        0.415        0.202       64.765       20.221        0.097      340.933       15.296      855.651
09/20/2013  23:47:00     -136.695      -41.204       -4.020       58.071       44.061       27.057     3372.284     1941.365      732.077        1.322        0.302      142.770       21.654        0.023      341.003       15.415      855.622
09/20/2013  23:48:00     -103.187      -41.090        1.642       55.947       32.818       23.183     3130.041     1077.010      537.462        0.854        0.237      111.067       24.641        0.049      340.970       15.359      855.597
09/20/2013  23:49:00      -62.533      -28.858        2.497       32.528       25.244       19.035     1058.083      637.285      362.321        0.340        0.103       68.871       14.010        0.041      341.018       15.440      855.625
09/20/2013  23:50:00     -135.730      -44.347       -8.282       54.790       29.726       22.686     3001.892      883.657      514.666        1.243        0.220      142.791       27.245        0.036      340.957       15.335      855.644
09/20/2013  23:51:00      -74.354      -16.091        3.652       52.594       37.330       24.683     2766.163     1393.553      609.271        0.528        0.238       76.075       26.893        0.125      340.849       15.153      855.666
09/20/2013  23:52:00       10.932        3.716       11.632       25.567       28.897       19.430      653.662      835.016      377.543        0.107        0.093       11.546       10.526        0.831      340.760       15.002      855.676
09/20/2013  23:53:00        4.504       42.797       68.494       34.474       53.867       36.468     1188.458     2901.663     1329.935        0.598        0.271       43.033       38.080        0.783      340.691       14.886      855.649
09/20/2013  23:54:00       41.805     -121.201      -29.801       41.698       38.104       25.731     1738.750     1451.942      662.088        1.059        0.193      128.208       10.904        0.007      340.864       15.179      855.735
09/20/2013  23:55:00        0.701     -109.405       -5.115       75.054       59.632       36.170     5633.085     3556.012     1308.282        1.124        0.525      109.408       24.938        0.052      340.919       15.272      855.792
09/20/2013  23:56:00       38.083     -126.344      -10.948       72.378       43.506       33.588     5238.623     1892.778     1128.154        1.289        0.413      131.959       23.054        0.031      340.912       15.259      855.730
09/20/2013  23:57:00     -192.194     -131.067       -5.952      126.305      101.551       50.542    15952.839    10312.613     2554.525        4.148        1.441      232.631       59.685        0.066      341.020       15.440      855.654
09/20/2013  23:58:00     -258.395        1.947      -34.940       60.343       36.299       32.923     3641.317     1317.598     1083.907        3.702        0.302      258.403       33.236        0.017      341.215       15.769      855.565
09/20/2013  23:59:00     -101.329      -20.766      -14.672       41.380       63.262       28.707     1712.304     4002.051      824.092        0.872        0.327      103.435       19.009        0.034      341.137       15.641      855.561
